<?xml version="1.0" encoding="UTF-8" standalone="no" ?>
<gpx xmlns="http://www.topografix.com/GPX/1/1" xmlns:xsi="http://www.w3.org/2001/XMLSchema-instance" xsi:schemaLocation="http://www.topografix.com/GPX/1/1 http://www.topografix.com/GPX/1/1/gpx.xsd" version="1.1" creator="VisuGPX - https://www.visugpx.com">
  <metadata>
    <name>Rastel d\'Agay</name>
    <desc><![CDATA[rando du 18 02 11]]></desc>
  </metadata>
  <trk>
    <name><![CDATA[Rastel d\'Agay_1]]></name>
    <trkseg>
      <trkpt lat="43.4396" lon="6.85001">
        <ele>1.281738</ele>
        <time>2011-02-18 13:41:34Z</time>
      </trkpt>
      <trkpt lat="43.4396" lon="6.85001">
        <ele>1.281738</ele>
        <time>2011-02-18 13:41:38Z</time>
      </trkpt>
      <trkpt lat="43.4396" lon="6.85001">
        <ele>1.281738</ele>
        <time>2011-02-18 13:41:42Z</time>
      </trkpt>
      <trkpt lat="43.4396" lon="6.85001">
        <ele>1.281738</ele>
        <time>2011-02-18 13:41:46Z</time>
      </trkpt>
      <trkpt lat="43.43953" lon="6.85003">
        <ele>-3.718266</ele>
        <time>2011-02-18 13:41:50Z</time>
      </trkpt>
      <trkpt lat="43.43956" lon="6.85002">
        <ele>-3.718266</ele>
        <time>2011-02-18 13:41:54Z</time>
      </trkpt>
      <trkpt lat="43.43959" lon="6.85">
        <ele>-3.718269</ele>
        <time>2011-02-18 13:41:58Z</time>
      </trkpt>
      <trkpt lat="43.43961" lon="6.84998">
        <ele>-3.718269</ele>
        <time>2011-02-18 13:42:02Z</time>
      </trkpt>
      <trkpt lat="43.43961" lon="6.84998">
        <ele>-3.718269</ele>
        <time>2011-02-18 13:42:06Z</time>
      </trkpt>
      <trkpt lat="43.43963" lon="6.84996">
        <ele>-3.718269</ele>
        <time>2011-02-18 13:42:10Z</time>
      </trkpt>
      <trkpt lat="43.43964" lon="6.84995">
        <ele>-3.718269</ele>
        <time>2011-02-18 13:42:14Z</time>
      </trkpt>
      <trkpt lat="43.43965" lon="6.84992">
        <ele>-3.718277</ele>
        <time>2011-02-18 13:42:18Z</time>
      </trkpt>
      <trkpt lat="43.43967" lon="6.84988">
        <ele>-3.718285</ele>
        <time>2011-02-18 13:42:22Z</time>
      </trkpt>
      <trkpt lat="43.43967" lon="6.84988">
        <ele>-3.718285</ele>
        <time>2011-02-18 13:42:26Z</time>
      </trkpt>
      <trkpt lat="43.43971" lon="6.84984">
        <ele>-3.718281</ele>
        <time>2011-02-18 13:42:30Z</time>
      </trkpt>
      <trkpt lat="43.43973" lon="6.84983">
        <ele>-3.718285</ele>
        <time>2011-02-18 13:42:34Z</time>
      </trkpt>
      <trkpt lat="43.43976" lon="6.8498">
        <ele>-3.718285</ele>
        <time>2011-02-18 13:42:38Z</time>
      </trkpt>
      <trkpt lat="43.4398" lon="6.84978">
        <ele>-3.718285</ele>
        <time>2011-02-18 13:42:42Z</time>
      </trkpt>
      <trkpt lat="43.43984" lon="6.84976">
        <ele>-3.718285</ele>
        <time>2011-02-18 13:42:46Z</time>
      </trkpt>
      <trkpt lat="43.43988" lon="6.84974">
        <ele>-3.718281</ele>
        <time>2011-02-18 13:42:50Z</time>
      </trkpt>
      <trkpt lat="43.43989" lon="6.84973">
        <ele>-3.718277</ele>
        <time>2011-02-18 13:42:54Z</time>
      </trkpt>
      <trkpt lat="43.43997" lon="6.84971">
        <ele>-3.718269</ele>
        <time>2011-02-18 13:42:58Z</time>
      </trkpt>
      <trkpt lat="43.44001" lon="6.84971">
        <ele>-3.718262</ele>
        <time>2011-02-18 13:43:02Z</time>
      </trkpt>
      <trkpt lat="43.44005" lon="6.84972">
        <ele>-3.718254</ele>
        <time>2011-02-18 13:43:06Z</time>
      </trkpt>
      <trkpt lat="43.44008" lon="6.84973">
        <ele>-3.71825</ele>
        <time>2011-02-18 13:43:10Z</time>
      </trkpt>
      <trkpt lat="43.44013" lon="6.84974">
        <ele>-3.718239</ele>
        <time>2011-02-18 13:43:14Z</time>
      </trkpt>
      <trkpt lat="43.44017" lon="6.84977">
        <ele>-3.718227</ele>
        <time>2011-02-18 13:43:18Z</time>
      </trkpt>
      <trkpt lat="43.4402" lon="6.84981">
        <ele>-2.718212</ele>
        <time>2011-02-18 13:43:22Z</time>
      </trkpt>
      <trkpt lat="43.44022" lon="6.84986">
        <ele>-2.718197</ele>
        <time>2011-02-18 13:43:26Z</time>
      </trkpt>
      <trkpt lat="43.44023" lon="6.84988">
        <ele>-2.718193</ele>
        <time>2011-02-18 13:43:30Z</time>
      </trkpt>
      <trkpt lat="43.44024" lon="6.84992">
        <ele>-3.718178</ele>
        <time>2011-02-18 13:43:34Z</time>
      </trkpt>
      <trkpt lat="43.44027" lon="6.84996">
        <ele>-3.71817</ele>
        <time>2011-02-18 13:43:38Z</time>
      </trkpt>
      <trkpt lat="43.44029" lon="6.85">
        <ele>-4.718155</ele>
        <time>2011-02-18 13:43:42Z</time>
      </trkpt>
      <trkpt lat="43.44031" lon="6.85003">
        <ele>-5.718147</ele>
        <time>2011-02-18 13:43:46Z</time>
      </trkpt>
      <trkpt lat="43.44033" lon="6.85007">
        <ele>-5.718132</ele>
        <time>2011-02-18 13:43:50Z</time>
      </trkpt>
      <trkpt lat="43.44035" lon="6.85013">
        <ele>-5.718113</ele>
        <time>2011-02-18 13:43:54Z</time>
      </trkpt>
      <trkpt lat="43.44038" lon="6.85016">
        <ele>-6.718102</ele>
        <time>2011-02-18 13:43:58Z</time>
      </trkpt>
      <trkpt lat="43.4404" lon="6.85021">
        <ele>-6.71809</ele>
        <time>2011-02-18 13:44:02Z</time>
      </trkpt>
      <trkpt lat="43.44042" lon="6.85026">
        <ele>-6.718071</ele>
        <time>2011-02-18 13:44:06Z</time>
      </trkpt>
      <trkpt lat="43.44045" lon="6.85029">
        <ele>-6.718063</ele>
        <time>2011-02-18 13:44:10Z</time>
      </trkpt>
      <trkpt lat="43.44047" lon="6.85032">
        <ele>-7.718056</ele>
        <time>2011-02-18 13:44:14Z</time>
      </trkpt>
      <trkpt lat="43.44048" lon="6.85034">
        <ele>-7.718048</ele>
        <time>2011-02-18 13:44:18Z</time>
      </trkpt>
      <trkpt lat="43.44053" lon="6.85038">
        <ele>-7.718033</ele>
        <time>2011-02-18 13:44:22Z</time>
      </trkpt>
      <trkpt lat="43.44054" lon="6.8504">
        <ele>-7.718025</ele>
        <time>2011-02-18 13:44:26Z</time>
      </trkpt>
      <trkpt lat="43.44054" lon="6.8504">
        <ele>-7.718025</ele>
        <time>2011-02-18 13:44:30Z</time>
      </trkpt>
      <trkpt lat="43.44054" lon="6.8504">
        <ele>-7.718025</ele>
        <time>2011-02-18 13:44:34Z</time>
      </trkpt>
      <trkpt lat="43.4406" lon="6.85048">
        <ele>-7.717999</ele>
        <time>2011-02-18 13:44:38Z</time>
      </trkpt>
      <trkpt lat="43.4406" lon="6.8505">
        <ele>-8.717995</ele>
        <time>2011-02-18 13:44:42Z</time>
      </trkpt>
      <trkpt lat="43.4406" lon="6.8505">
        <ele>-8.717995</ele>
        <time>2011-02-18 13:44:46Z</time>
      </trkpt>
      <trkpt lat="43.44063" lon="6.85055">
        <ele>-9.717976</ele>
        <time>2011-02-18 13:44:50Z</time>
      </trkpt>
      <trkpt lat="43.44064" lon="6.85059">
        <ele>-9.717964</ele>
        <time>2011-02-18 13:44:54Z</time>
      </trkpt>
      <trkpt lat="43.44068" lon="6.85067">
        <ele>-9.717941</ele>
        <time>2011-02-18 13:44:58Z</time>
      </trkpt>
      <trkpt lat="43.44071" lon="6.85074">
        <ele>-9.717918</ele>
        <time>2011-02-18 13:45:02Z</time>
      </trkpt>
      <trkpt lat="43.44074" lon="6.85079">
        <ele>-10.717903</ele>
        <time>2011-02-18 13:45:06Z</time>
      </trkpt>
      <trkpt lat="43.44074" lon="6.85079">
        <ele>-10.717903</ele>
        <time>2011-02-18 13:45:10Z</time>
      </trkpt>
      <trkpt lat="43.44074" lon="6.85079">
        <ele>-10.717903</ele>
        <time>2011-02-18 13:45:14Z</time>
      </trkpt>
      <trkpt lat="43.44087" lon="6.85106">
        <ele>-8.717819</ele>
        <time>2011-02-18 13:45:18Z</time>
      </trkpt>
      <trkpt lat="43.44087" lon="6.85106">
        <ele>-8.717819</ele>
        <time>2011-02-18 13:45:22Z</time>
      </trkpt>
      <trkpt lat="43.44087" lon="6.85106">
        <ele>-8.717819</ele>
        <time>2011-02-18 13:45:26Z</time>
      </trkpt>
      <trkpt lat="43.44087" lon="6.85106">
        <ele>-8.717819</ele>
        <time>2011-02-18 13:45:30Z</time>
      </trkpt>
      <trkpt lat="43.44098" lon="6.85132">
        <ele>-7.717743</ele>
        <time>2011-02-18 13:45:34Z</time>
      </trkpt>
      <trkpt lat="43.44099" lon="6.85135">
        <ele>-7.717735</ele>
        <time>2011-02-18 13:45:38Z</time>
      </trkpt>
      <trkpt lat="43.44099" lon="6.85135">
        <ele>-7.717735</ele>
        <time>2011-02-18 13:45:42Z</time>
      </trkpt>
      <trkpt lat="43.44104" lon="6.85146">
        <ele>-6.717701</ele>
        <time>2011-02-18 13:45:46Z</time>
      </trkpt>
      <trkpt lat="43.44106" lon="6.85156">
        <ele>-5.717674</ele>
        <time>2011-02-18 13:45:50Z</time>
      </trkpt>
      <trkpt lat="43.44108" lon="6.85162">
        <ele>-4.717663</ele>
        <time>2011-02-18 13:45:54Z</time>
      </trkpt>
      <trkpt lat="43.4411" lon="6.85167">
        <ele>-4.717644</ele>
        <time>2011-02-18 13:45:58Z</time>
      </trkpt>
      <trkpt lat="43.44111" lon="6.85168">
        <ele>-3.717644</ele>
        <time>2011-02-18 13:46:02Z</time>
      </trkpt>
      <trkpt lat="43.44112" lon="6.85178">
        <ele>-2.717621</ele>
        <time>2011-02-18 13:46:06Z</time>
      </trkpt>
      <trkpt lat="43.44112" lon="6.85184">
        <ele>-1.717606</ele>
        <time>2011-02-18 13:46:10Z</time>
      </trkpt>
      <trkpt lat="43.44111" lon="6.8519">
        <ele>-0.71759</ele>
        <time>2011-02-18 13:46:14Z</time>
      </trkpt>
      <trkpt lat="43.44109" lon="6.85196">
        <ele>-0.717583</ele>
        <time>2011-02-18 13:46:18Z</time>
      </trkpt>
      <trkpt lat="43.44108" lon="6.85201">
        <ele>-1.717567</ele>
        <time>2011-02-18 13:46:22Z</time>
      </trkpt>
      <trkpt lat="43.44107" lon="6.85209">
        <ele>-1.717552</ele>
        <time>2011-02-18 13:46:26Z</time>
      </trkpt>
      <trkpt lat="43.44106" lon="6.85214">
        <ele>-2.717545</ele>
        <time>2011-02-18 13:46:30Z</time>
      </trkpt>
      <trkpt lat="43.44106" lon="6.85214">
        <ele>-2.717545</ele>
        <time>2011-02-18 13:46:34Z</time>
      </trkpt>
      <trkpt lat="43.44103" lon="6.85226">
        <ele>-2.717522</ele>
        <time>2011-02-18 13:46:38Z</time>
      </trkpt>
      <trkpt lat="43.44102" lon="6.85234">
        <ele>-2.717506</ele>
        <time>2011-02-18 13:46:42Z</time>
      </trkpt>
      <trkpt lat="43.44101" lon="6.8524">
        <ele>-1.717495</ele>
        <time>2011-02-18 13:46:46Z</time>
      </trkpt>
      <trkpt lat="43.44101" lon="6.8524">
        <ele>-1.717495</ele>
        <time>2011-02-18 13:46:50Z</time>
      </trkpt>
      <trkpt lat="43.441" lon="6.85255">
        <ele>-1.717461</ele>
        <time>2011-02-18 13:46:54Z</time>
      </trkpt>
      <trkpt lat="43.441" lon="6.8526">
        <ele>-0.717445</ele>
        <time>2011-02-18 13:46:58Z</time>
      </trkpt>
      <trkpt lat="43.441" lon="6.85266">
        <ele>-0.717442</ele>
        <time>2011-02-18 13:47:02Z</time>
      </trkpt>
      <trkpt lat="43.44099" lon="6.85271">
        <ele>-0.717426</ele>
        <time>2011-02-18 13:47:06Z</time>
      </trkpt>
      <trkpt lat="43.44098" lon="6.85277">
        <ele>-1.717415</ele>
        <time>2011-02-18 13:47:10Z</time>
      </trkpt>
      <trkpt lat="43.44098" lon="6.8528">
        <ele>-2.717407</ele>
        <time>2011-02-18 13:47:14Z</time>
      </trkpt>
      <trkpt lat="43.44095" lon="6.85289">
        <ele>-3.717392</ele>
        <time>2011-02-18 13:47:18Z</time>
      </trkpt>
      <trkpt lat="43.44095" lon="6.85291">
        <ele>-4.717388</ele>
        <time>2011-02-18 13:47:22Z</time>
      </trkpt>
      <trkpt lat="43.4409" lon="6.85303">
        <ele>-5.717369</ele>
        <time>2011-02-18 13:47:26Z</time>
      </trkpt>
      <trkpt lat="43.44088" lon="6.8531">
        <ele>-5.717354</ele>
        <time>2011-02-18 13:47:30Z</time>
      </trkpt>
      <trkpt lat="43.44088" lon="6.8531">
        <ele>-5.717354</ele>
        <time>2011-02-18 13:47:34Z</time>
      </trkpt>
      <trkpt lat="43.44084" lon="6.8532">
        <ele>-6.717339</ele>
        <time>2011-02-18 13:47:38Z</time>
      </trkpt>
      <trkpt lat="43.44084" lon="6.8532">
        <ele>-6.717339</ele>
        <time>2011-02-18 13:47:42Z</time>
      </trkpt>
      <trkpt lat="43.44084" lon="6.8532">
        <ele>-6.717339</ele>
        <time>2011-02-18 13:47:46Z</time>
      </trkpt>
      <trkpt lat="43.44079" lon="6.85334">
        <ele>-6.717316</ele>
        <time>2011-02-18 13:47:50Z</time>
      </trkpt>
      <trkpt lat="43.44079" lon="6.85334">
        <ele>-6.717316</ele>
        <time>2011-02-18 13:47:54Z</time>
      </trkpt>
      <trkpt lat="43.44078" lon="6.85343">
        <ele>-5.717297</ele>
        <time>2011-02-18 13:47:58Z</time>
      </trkpt>
      <trkpt lat="43.44077" lon="6.85344">
        <ele>-5.717293</ele>
        <time>2011-02-18 13:48:02Z</time>
      </trkpt>
      <trkpt lat="43.44077" lon="6.85351">
        <ele>-5.717281</ele>
        <time>2011-02-18 13:48:06Z</time>
      </trkpt>
      <trkpt lat="43.44077" lon="6.85359">
        <ele>-5.717255</ele>
        <time>2011-02-18 13:48:10Z</time>
      </trkpt>
      <trkpt lat="43.44077" lon="6.85364">
        <ele>-5.717247</ele>
        <time>2011-02-18 13:48:14Z</time>
      </trkpt>
      <trkpt lat="43.44075" lon="6.85371">
        <ele>-5.717236</ele>
        <time>2011-02-18 13:48:18Z</time>
      </trkpt>
      <trkpt lat="43.44074" lon="6.85376">
        <ele>-5.717224</ele>
        <time>2011-02-18 13:48:22Z</time>
      </trkpt>
      <trkpt lat="43.44072" lon="6.85381">
        <ele>-5.717216</ele>
        <time>2011-02-18 13:48:26Z</time>
      </trkpt>
      <trkpt lat="43.44072" lon="6.85381">
        <ele>-5.717216</ele>
        <time>2011-02-18 13:48:30Z</time>
      </trkpt>
      <trkpt lat="43.44067" lon="6.85393">
        <ele>-5.717201</ele>
        <time>2011-02-18 13:48:34Z</time>
      </trkpt>
      <trkpt lat="43.44065" lon="6.854">
        <ele>-4.717186</ele>
        <time>2011-02-18 13:48:38Z</time>
      </trkpt>
      <trkpt lat="43.44064" lon="6.85403">
        <ele>-4.717178</ele>
        <time>2011-02-18 13:48:42Z</time>
      </trkpt>
      <trkpt lat="43.44064" lon="6.85404">
        <ele>-4.717178</ele>
        <time>2011-02-18 13:48:46Z</time>
      </trkpt>
      <trkpt lat="43.44061" lon="6.85412">
        <ele>-3.717163</ele>
        <time>2011-02-18 13:48:50Z</time>
      </trkpt>
      <trkpt lat="43.44061" lon="6.85412">
        <ele>-3.717163</ele>
        <time>2011-02-18 13:48:54Z</time>
      </trkpt>
      <trkpt lat="43.44057" lon="6.85425">
        <ele>-5.71714</ele>
        <time>2011-02-18 13:48:58Z</time>
      </trkpt>
      <trkpt lat="43.44056" lon="6.85431">
        <ele>-5.717129</ele>
        <time>2011-02-18 13:49:02Z</time>
      </trkpt>
      <trkpt lat="43.44056" lon="6.85438">
        <ele>-4.717113</ele>
        <time>2011-02-18 13:49:06Z</time>
      </trkpt>
      <trkpt lat="43.44056" lon="6.85439">
        <ele>-4.717113</ele>
        <time>2011-02-18 13:49:10Z</time>
      </trkpt>
      <trkpt lat="43.44056" lon="6.85443">
        <ele>-3.717102</ele>
        <time>2011-02-18 13:49:14Z</time>
      </trkpt>
      <trkpt lat="43.44056" lon="6.85443">
        <ele>-3.717102</ele>
        <time>2011-02-18 13:49:18Z</time>
      </trkpt>
      <trkpt lat="43.44056" lon="6.85443">
        <ele>-3.717102</ele>
        <time>2011-02-18 13:49:22Z</time>
      </trkpt>
      <trkpt lat="43.44059" lon="6.85453">
        <ele>-4.717072</ele>
        <time>2011-02-18 13:49:26Z</time>
      </trkpt>
      <trkpt lat="43.44059" lon="6.85454">
        <ele>-4.717072</ele>
        <time>2011-02-18 13:49:30Z</time>
      </trkpt>
      <trkpt lat="43.44064" lon="6.85459">
        <ele>-5.717056</ele>
        <time>2011-02-18 13:49:34Z</time>
      </trkpt>
      <trkpt lat="43.44067" lon="6.85463">
        <ele>-6.717037</ele>
        <time>2011-02-18 13:49:38Z</time>
      </trkpt>
      <trkpt lat="43.44068" lon="6.85464">
        <ele>-6.717037</ele>
        <time>2011-02-18 13:49:42Z</time>
      </trkpt>
      <trkpt lat="43.44072" lon="6.85471">
        <ele>-6.717014</ele>
        <time>2011-02-18 13:49:46Z</time>
      </trkpt>
      <trkpt lat="43.44073" lon="6.85473">
        <ele>-6.717003</ele>
        <time>2011-02-18 13:49:50Z</time>
      </trkpt>
      <trkpt lat="43.44074" lon="6.85477">
        <ele>-6.716995</ele>
        <time>2011-02-18 13:49:54Z</time>
      </trkpt>
      <trkpt lat="43.44074" lon="6.85477">
        <ele>-6.716995</ele>
        <time>2011-02-18 13:49:58Z</time>
      </trkpt>
      <trkpt lat="43.44076" lon="6.85483">
        <ele>-5.71698</ele>
        <time>2011-02-18 13:50:02Z</time>
      </trkpt>
      <trkpt lat="43.44078" lon="6.85488">
        <ele>-4.716965</ele>
        <time>2011-02-18 13:50:06Z</time>
      </trkpt>
      <trkpt lat="43.4408" lon="6.85493">
        <ele>-3.716949</ele>
        <time>2011-02-18 13:50:10Z</time>
      </trkpt>
      <trkpt lat="43.4408" lon="6.85493">
        <ele>-3.716949</ele>
        <time>2011-02-18 13:50:14Z</time>
      </trkpt>
      <trkpt lat="43.44081" lon="6.85502">
        <ele>-3.716927</ele>
        <time>2011-02-18 13:50:18Z</time>
      </trkpt>
      <trkpt lat="43.44082" lon="6.8551">
        <ele>-2.716908</ele>
        <time>2011-02-18 13:50:22Z</time>
      </trkpt>
      <trkpt lat="43.44082" lon="6.8551">
        <ele>-2.716908</ele>
        <time>2011-02-18 13:50:26Z</time>
      </trkpt>
      <trkpt lat="43.44083" lon="6.85522">
        <ele>0.283119</ele>
        <time>2011-02-18 13:50:30Z</time>
      </trkpt>
      <trkpt lat="43.44083" lon="6.85527">
        <ele>1.283134</ele>
        <time>2011-02-18 13:50:34Z</time>
      </trkpt>
      <trkpt lat="43.44084" lon="6.85531">
        <ele>1.283142</ele>
        <time>2011-02-18 13:50:38Z</time>
      </trkpt>
      <trkpt lat="43.44084" lon="6.85537">
        <ele>1.283157</ele>
        <time>2011-02-18 13:50:42Z</time>
      </trkpt>
      <trkpt lat="43.44085" lon="6.85542">
        <ele>1.283173</ele>
        <time>2011-02-18 13:50:46Z</time>
      </trkpt>
      <trkpt lat="43.44085" lon="6.85545">
        <ele>1.283173</ele>
        <time>2011-02-18 13:50:50Z</time>
      </trkpt>
      <trkpt lat="43.44086" lon="6.85549">
        <ele>1.283188</ele>
        <time>2011-02-18 13:50:54Z</time>
      </trkpt>
      <trkpt lat="43.44087" lon="6.85558">
        <ele>0.283211</ele>
        <time>2011-02-18 13:50:58Z</time>
      </trkpt>
      <trkpt lat="43.44087" lon="6.85563">
        <ele>0.283218</ele>
        <time>2011-02-18 13:51:02Z</time>
      </trkpt>
      <trkpt lat="43.44087" lon="6.85563">
        <ele>0.283218</ele>
        <time>2011-02-18 13:51:06Z</time>
      </trkpt>
      <trkpt lat="43.44088" lon="6.85576">
        <ele>-2.716751</ele>
        <time>2011-02-18 13:51:10Z</time>
      </trkpt>
      <trkpt lat="43.44088" lon="6.85582">
        <ele>-3.716736</ele>
        <time>2011-02-18 13:51:14Z</time>
      </trkpt>
      <trkpt lat="43.44087" lon="6.85588">
        <ele>-4.716728</ele>
        <time>2011-02-18 13:51:18Z</time>
      </trkpt>
      <trkpt lat="43.44087" lon="6.85591">
        <ele>-4.716717</ele>
        <time>2011-02-18 13:51:22Z</time>
      </trkpt>
      <trkpt lat="43.44085" lon="6.85598">
        <ele>-5.716705</ele>
        <time>2011-02-18 13:51:26Z</time>
      </trkpt>
      <trkpt lat="43.44083" lon="6.85603">
        <ele>-5.716698</ele>
        <time>2011-02-18 13:51:30Z</time>
      </trkpt>
      <trkpt lat="43.44081" lon="6.85603">
        <ele>-5.716698</ele>
        <time>2011-02-18 13:51:34Z</time>
      </trkpt>
      <trkpt lat="43.4408" lon="6.85605">
        <ele>-5.716698</ele>
        <time>2011-02-18 13:51:38Z</time>
      </trkpt>
      <trkpt lat="43.4408" lon="6.85605">
        <ele>-5.716698</ele>
        <time>2011-02-18 13:51:42Z</time>
      </trkpt>
      <trkpt lat="43.44075" lon="6.85609">
        <ele>-4.71669</ele>
        <time>2011-02-18 13:51:46Z</time>
      </trkpt>
      <trkpt lat="43.44073" lon="6.8561">
        <ele>-4.716698</ele>
        <time>2011-02-18 13:51:50Z</time>
      </trkpt>
      <trkpt lat="43.44071" lon="6.85612">
        <ele>-4.716694</ele>
        <time>2011-02-18 13:51:54Z</time>
      </trkpt>
      <trkpt lat="43.44071" lon="6.85612">
        <ele>-4.716694</ele>
        <time>2011-02-18 13:51:58Z</time>
      </trkpt>
      <trkpt lat="43.44071" lon="6.85612">
        <ele>-4.716694</ele>
        <time>2011-02-18 13:52:02Z</time>
      </trkpt>
      <trkpt lat="43.44067" lon="6.85619">
        <ele>-3.716682</ele>
        <time>2011-02-18 13:52:06Z</time>
      </trkpt>
      <trkpt lat="43.44065" lon="6.85624">
        <ele>-2.716679</ele>
        <time>2011-02-18 13:52:10Z</time>
      </trkpt>
      <trkpt lat="43.44065" lon="6.85625">
        <ele>-2.716675</ele>
        <time>2011-02-18 13:52:14Z</time>
      </trkpt>
      <trkpt lat="43.44061" lon="6.85634">
        <ele>-2.71666</ele>
        <time>2011-02-18 13:52:18Z</time>
      </trkpt>
      <trkpt lat="43.4406" lon="6.85636">
        <ele>-2.716656</ele>
        <time>2011-02-18 13:52:22Z</time>
      </trkpt>
      <trkpt lat="43.4406" lon="6.85636">
        <ele>-2.716656</ele>
        <time>2011-02-18 13:52:26Z</time>
      </trkpt>
      <trkpt lat="43.4406" lon="6.85636">
        <ele>-2.716656</ele>
        <time>2011-02-18 13:52:30Z</time>
      </trkpt>
      <trkpt lat="43.44055" lon="6.85647">
        <ele>-1.716637</ele>
        <time>2011-02-18 13:52:34Z</time>
      </trkpt>
      <trkpt lat="43.44055" lon="6.85647">
        <ele>-1.716637</ele>
        <time>2011-02-18 13:52:38Z</time>
      </trkpt>
      <trkpt lat="43.44055" lon="6.85647">
        <ele>-1.716637</ele>
        <time>2011-02-18 13:52:42Z</time>
      </trkpt>
      <trkpt lat="43.44055" lon="6.85647">
        <ele>-1.716637</ele>
        <time>2011-02-18 13:52:46Z</time>
      </trkpt>
      <trkpt lat="43.44054" lon="6.85653">
        <ele>2.283375</ele>
        <time>2011-02-18 13:52:50Z</time>
      </trkpt>
      <trkpt lat="43.44053" lon="6.85656">
        <ele>2.283379</ele>
        <time>2011-02-18 13:52:54Z</time>
      </trkpt>
      <trkpt lat="43.44053" lon="6.85656">
        <ele>2.283379</ele>
        <time>2011-02-18 13:52:58Z</time>
      </trkpt>
      <trkpt lat="43.44053" lon="6.85656">
        <ele>2.283379</ele>
        <time>2011-02-18 13:53:02Z</time>
      </trkpt>
      <trkpt lat="43.44053" lon="6.85662">
        <ele>3.283394</ele>
        <time>2011-02-18 13:53:06Z</time>
      </trkpt>
      <trkpt lat="43.44053" lon="6.85662">
        <ele>3.283394</ele>
        <time>2011-02-18 13:53:10Z</time>
      </trkpt>
      <trkpt lat="43.44053" lon="6.85662">
        <ele>3.283394</ele>
        <time>2011-02-18 13:53:14Z</time>
      </trkpt>
      <trkpt lat="43.44051" lon="6.85675">
        <ele>5.283421</ele>
        <time>2011-02-18 13:53:18Z</time>
      </trkpt>
      <trkpt lat="43.44051" lon="6.85681">
        <ele>5.28344</ele>
        <time>2011-02-18 13:53:22Z</time>
      </trkpt>
      <trkpt lat="43.44051" lon="6.85686">
        <ele>5.283447</ele>
        <time>2011-02-18 13:53:26Z</time>
      </trkpt>
      <trkpt lat="43.44052" lon="6.85689">
        <ele>5.283447</ele>
        <time>2011-02-18 13:53:30Z</time>
      </trkpt>
      <trkpt lat="43.44051" lon="6.85695">
        <ele>5.283463</ele>
        <time>2011-02-18 13:53:34Z</time>
      </trkpt>
      <trkpt lat="43.4405" lon="6.85698">
        <ele>5.28347</ele>
        <time>2011-02-18 13:53:38Z</time>
      </trkpt>
      <trkpt lat="43.4405" lon="6.85701">
        <ele>5.283478</ele>
        <time>2011-02-18 13:53:42Z</time>
      </trkpt>
      <trkpt lat="43.4405" lon="6.85701">
        <ele>5.283478</ele>
        <time>2011-02-18 13:53:46Z</time>
      </trkpt>
      <trkpt lat="43.44044" lon="6.85714">
        <ele>6.283493</ele>
        <time>2011-02-18 13:53:50Z</time>
      </trkpt>
      <trkpt lat="43.44043" lon="6.85719">
        <ele>6.283504</ele>
        <time>2011-02-18 13:53:54Z</time>
      </trkpt>
      <trkpt lat="43.44043" lon="6.85719">
        <ele>6.283504</ele>
        <time>2011-02-18 13:53:58Z</time>
      </trkpt>
      <trkpt lat="43.44044" lon="6.85728">
        <ele>7.283531</ele>
        <time>2011-02-18 13:54:02Z</time>
      </trkpt>
      <trkpt lat="43.44044" lon="6.85728">
        <ele>7.283531</ele>
        <time>2011-02-18 13:54:06Z</time>
      </trkpt>
      <trkpt lat="43.44046" lon="6.85734">
        <ele>7.283546</ele>
        <time>2011-02-18 13:54:10Z</time>
      </trkpt>
      <trkpt lat="43.4405" lon="6.85736">
        <ele>6.283554</ele>
        <time>2011-02-18 13:54:14Z</time>
      </trkpt>
      <trkpt lat="43.44053" lon="6.85738">
        <ele>6.283569</ele>
        <time>2011-02-18 13:54:18Z</time>
      </trkpt>
      <trkpt lat="43.44057" lon="6.8574">
        <ele>6.283577</ele>
        <time>2011-02-18 13:54:22Z</time>
      </trkpt>
      <trkpt lat="43.44062" lon="6.85743">
        <ele>6.283592</ele>
        <time>2011-02-18 13:54:26Z</time>
      </trkpt>
      <trkpt lat="43.44064" lon="6.85745">
        <ele>6.2836</ele>
        <time>2011-02-18 13:54:30Z</time>
      </trkpt>
      <trkpt lat="43.44064" lon="6.85745">
        <ele>6.2836</ele>
        <time>2011-02-18 13:54:34Z</time>
      </trkpt>
      <trkpt lat="43.44067" lon="6.85755">
        <ele>5.28363</ele>
        <time>2011-02-18 13:54:38Z</time>
      </trkpt>
      <trkpt lat="43.44068" lon="6.85762">
        <ele>5.283646</ele>
        <time>2011-02-18 13:54:42Z</time>
      </trkpt>
      <trkpt lat="43.4407" lon="6.85768">
        <ele>5.283661</ele>
        <time>2011-02-18 13:54:46Z</time>
      </trkpt>
      <trkpt lat="43.44071" lon="6.85775">
        <ele>6.283684</ele>
        <time>2011-02-18 13:54:50Z</time>
      </trkpt>
      <trkpt lat="43.44073" lon="6.85781">
        <ele>5.283699</ele>
        <time>2011-02-18 13:54:54Z</time>
      </trkpt>
      <trkpt lat="43.44074" lon="6.85785">
        <ele>6.283707</ele>
        <time>2011-02-18 13:54:58Z</time>
      </trkpt>
      <trkpt lat="43.44075" lon="6.8579">
        <ele>6.283718</ele>
        <time>2011-02-18 13:55:02Z</time>
      </trkpt>
      <trkpt lat="43.44075" lon="6.85791">
        <ele>6.283722</ele>
        <time>2011-02-18 13:55:06Z</time>
      </trkpt>
      <trkpt lat="43.44075" lon="6.85791">
        <ele>6.283722</ele>
        <time>2011-02-18 13:55:10Z</time>
      </trkpt>
      <trkpt lat="43.44078" lon="6.85806">
        <ele>7.28376</ele>
        <time>2011-02-18 13:55:14Z</time>
      </trkpt>
      <trkpt lat="43.44079" lon="6.8581">
        <ele>7.283772</ele>
        <time>2011-02-18 13:55:18Z</time>
      </trkpt>
      <trkpt lat="43.4408" lon="6.85818">
        <ele>8.283791</ele>
        <time>2011-02-18 13:55:22Z</time>
      </trkpt>
      <trkpt lat="43.4408" lon="6.85819">
        <ele>8.283798</ele>
        <time>2011-02-18 13:55:26Z</time>
      </trkpt>
      <trkpt lat="43.4408" lon="6.85832">
        <ele>9.283825</ele>
        <time>2011-02-18 13:55:30Z</time>
      </trkpt>
      <trkpt lat="43.4408" lon="6.85832">
        <ele>9.283825</ele>
        <time>2011-02-18 13:55:34Z</time>
      </trkpt>
      <trkpt lat="43.44079" lon="6.85849">
        <ele>11.283859</ele>
        <time>2011-02-18 13:55:38Z</time>
      </trkpt>
      <trkpt lat="43.4408" lon="6.85856">
        <ele>11.283875</ele>
        <time>2011-02-18 13:55:42Z</time>
      </trkpt>
      <trkpt lat="43.4408" lon="6.85861">
        <ele>11.28389</ele>
        <time>2011-02-18 13:55:46Z</time>
      </trkpt>
      <trkpt lat="43.4408" lon="6.85861">
        <ele>11.28389</ele>
        <time>2011-02-18 13:55:50Z</time>
      </trkpt>
      <trkpt lat="43.4408" lon="6.85861">
        <ele>11.28389</ele>
        <time>2011-02-18 13:55:54Z</time>
      </trkpt>
      <trkpt lat="43.44078" lon="6.8588">
        <ele>12.283928</ele>
        <time>2011-02-18 13:55:58Z</time>
      </trkpt>
      <trkpt lat="43.44078" lon="6.85888">
        <ele>12.283951</ele>
        <time>2011-02-18 13:56:02Z</time>
      </trkpt>
      <trkpt lat="43.44078" lon="6.85894">
        <ele>12.283962</ele>
        <time>2011-02-18 13:56:06Z</time>
      </trkpt>
      <trkpt lat="43.44078" lon="6.85903">
        <ele>12.283981</ele>
        <time>2011-02-18 13:56:10Z</time>
      </trkpt>
      <trkpt lat="43.44078" lon="6.85909">
        <ele>13.283997</ele>
        <time>2011-02-18 13:56:14Z</time>
      </trkpt>
      <trkpt lat="43.44078" lon="6.85912">
        <ele>13.283997</ele>
        <time>2011-02-18 13:56:18Z</time>
      </trkpt>
      <trkpt lat="43.4408" lon="6.85922">
        <ele>13.284027</ele>
        <time>2011-02-18 13:56:22Z</time>
      </trkpt>
      <trkpt lat="43.4408" lon="6.85928">
        <ele>14.284042</ele>
        <time>2011-02-18 13:56:26Z</time>
      </trkpt>
      <trkpt lat="43.44081" lon="6.85934">
        <ele>14.284058</ele>
        <time>2011-02-18 13:56:30Z</time>
      </trkpt>
      <trkpt lat="43.44082" lon="6.85935">
        <ele>14.284058</ele>
        <time>2011-02-18 13:56:34Z</time>
      </trkpt>
      <trkpt lat="43.44082" lon="6.85935">
        <ele>14.284058</ele>
        <time>2011-02-18 13:56:38Z</time>
      </trkpt>
      <trkpt lat="43.44084" lon="6.85944">
        <ele>12.284084</ele>
        <time>2011-02-18 13:56:42Z</time>
      </trkpt>
      <trkpt lat="43.44084" lon="6.85944">
        <ele>12.284084</ele>
        <time>2011-02-18 13:56:46Z</time>
      </trkpt>
      <trkpt lat="43.44086" lon="6.85949">
        <ele>11.2841</ele>
        <time>2011-02-18 13:56:50Z</time>
      </trkpt>
      <trkpt lat="43.44087" lon="6.85953">
        <ele>12.284111</ele>
        <time>2011-02-18 13:56:54Z</time>
      </trkpt>
      <trkpt lat="43.44088" lon="6.85957">
        <ele>12.284122</ele>
        <time>2011-02-18 13:56:58Z</time>
      </trkpt>
      <trkpt lat="43.44088" lon="6.85957">
        <ele>12.284122</ele>
        <time>2011-02-18 13:57:02Z</time>
      </trkpt>
      <trkpt lat="43.44088" lon="6.85957">
        <ele>12.284122</ele>
        <time>2011-02-18 13:57:06Z</time>
      </trkpt>
      <trkpt lat="43.44093" lon="6.85964">
        <ele>13.284142</ele>
        <time>2011-02-18 13:57:10Z</time>
      </trkpt>
      <trkpt lat="43.44094" lon="6.85966">
        <ele>13.284149</ele>
        <time>2011-02-18 13:57:14Z</time>
      </trkpt>
      <trkpt lat="43.44096" lon="6.8597">
        <ele>14.284164</ele>
        <time>2011-02-18 13:57:18Z</time>
      </trkpt>
      <trkpt lat="43.44098" lon="6.85974">
        <ele>14.284172</ele>
        <time>2011-02-18 13:57:22Z</time>
      </trkpt>
      <trkpt lat="43.44099" lon="6.85976">
        <ele>15.28418</ele>
        <time>2011-02-18 13:57:26Z</time>
      </trkpt>
      <trkpt lat="43.44101" lon="6.85985">
        <ele>16.284206</ele>
        <time>2011-02-18 13:57:30Z</time>
      </trkpt>
      <trkpt lat="43.44103" lon="6.85991">
        <ele>16.284222</ele>
        <time>2011-02-18 13:57:34Z</time>
      </trkpt>
      <trkpt lat="43.44103" lon="6.85996">
        <ele>15.284233</ele>
        <time>2011-02-18 13:57:38Z</time>
      </trkpt>
      <trkpt lat="43.44103" lon="6.85999">
        <ele>15.284241</ele>
        <time>2011-02-18 13:57:42Z</time>
      </trkpt>
      <trkpt lat="43.44103" lon="6.85999">
        <ele>15.284241</ele>
        <time>2011-02-18 13:57:46Z</time>
      </trkpt>
      <trkpt lat="43.44102" lon="6.86014">
        <ele>16.284271</ele>
        <time>2011-02-18 13:57:50Z</time>
      </trkpt>
      <trkpt lat="43.44102" lon="6.86026">
        <ele>16.284302</ele>
        <time>2011-02-18 13:57:54Z</time>
      </trkpt>
      <trkpt lat="43.44102" lon="6.86034">
        <ele>16.284317</ele>
        <time>2011-02-18 13:57:58Z</time>
      </trkpt>
      <trkpt lat="43.44102" lon="6.86034">
        <ele>16.284317</ele>
        <time>2011-02-18 13:58:02Z</time>
      </trkpt>
      <trkpt lat="43.44101" lon="6.86051">
        <ele>17.284355</ele>
        <time>2011-02-18 13:58:06Z</time>
      </trkpt>
      <trkpt lat="43.44102" lon="6.86056">
        <ele>17.28437</ele>
        <time>2011-02-18 13:58:10Z</time>
      </trkpt>
      <trkpt lat="43.44102" lon="6.86058">
        <ele>17.284374</ele>
        <time>2011-02-18 13:58:14Z</time>
      </trkpt>
      <trkpt lat="43.44102" lon="6.86067">
        <ele>18.284393</ele>
        <time>2011-02-18 13:58:18Z</time>
      </trkpt>
      <trkpt lat="43.44101" lon="6.86073">
        <ele>18.284409</ele>
        <time>2011-02-18 13:58:22Z</time>
      </trkpt>
      <trkpt lat="43.44101" lon="6.86076">
        <ele>18.284412</ele>
        <time>2011-02-18 13:58:26Z</time>
      </trkpt>
      <trkpt lat="43.44101" lon="6.86076">
        <ele>18.284412</ele>
        <time>2011-02-18 13:58:30Z</time>
      </trkpt>
      <trkpt lat="43.44098" lon="6.86083">
        <ele>19.284424</ele>
        <time>2011-02-18 13:58:34Z</time>
      </trkpt>
      <trkpt lat="43.44097" lon="6.86088">
        <ele>19.284435</ele>
        <time>2011-02-18 13:58:38Z</time>
      </trkpt>
      <trkpt lat="43.44095" lon="6.86098">
        <ele>20.284454</ele>
        <time>2011-02-18 13:58:42Z</time>
      </trkpt>
      <trkpt lat="43.44093" lon="6.86105">
        <ele>21.284466</ele>
        <time>2011-02-18 13:58:46Z</time>
      </trkpt>
      <trkpt lat="43.4409" lon="6.8612">
        <ele>22.284492</ele>
        <time>2011-02-18 13:58:50Z</time>
      </trkpt>
      <trkpt lat="43.4409" lon="6.86121">
        <ele>22.284496</ele>
        <time>2011-02-18 13:58:54Z</time>
      </trkpt>
      <trkpt lat="43.44088" lon="6.86129">
        <ele>23.284512</ele>
        <time>2011-02-18 13:58:58Z</time>
      </trkpt>
      <trkpt lat="43.44088" lon="6.86133">
        <ele>24.284523</ele>
        <time>2011-02-18 13:59:02Z</time>
      </trkpt>
      <trkpt lat="43.44088" lon="6.86133">
        <ele>24.284523</ele>
        <time>2011-02-18 13:59:06Z</time>
      </trkpt>
      <trkpt lat="43.44087" lon="6.86148">
        <ele>25.284554</ele>
        <time>2011-02-18 13:59:10Z</time>
      </trkpt>
      <trkpt lat="43.44087" lon="6.86154">
        <ele>26.284569</ele>
        <time>2011-02-18 13:59:14Z</time>
      </trkpt>
      <trkpt lat="43.44087" lon="6.86154">
        <ele>26.284569</ele>
        <time>2011-02-18 13:59:18Z</time>
      </trkpt>
      <trkpt lat="43.44089" lon="6.86171">
        <ele>27.284611</ele>
        <time>2011-02-18 13:59:22Z</time>
      </trkpt>
      <trkpt lat="43.4409" lon="6.86172">
        <ele>26.284615</ele>
        <time>2011-02-18 13:59:26Z</time>
      </trkpt>
      <trkpt lat="43.44091" lon="6.86171">
        <ele>27.284615</ele>
        <time>2011-02-18 13:59:30Z</time>
      </trkpt>
      <trkpt lat="43.44091" lon="6.86171">
        <ele>27.284615</ele>
        <time>2011-02-18 13:59:34Z</time>
      </trkpt>
      <trkpt lat="43.44091" lon="6.86171">
        <ele>27.284615</ele>
        <time>2011-02-18 13:59:38Z</time>
      </trkpt>
      <trkpt lat="43.44091" lon="6.86171">
        <ele>27.284615</ele>
        <time>2011-02-18 13:59:42Z</time>
      </trkpt>
      <trkpt lat="43.44091" lon="6.86171">
        <ele>27.284615</ele>
        <time>2011-02-18 13:59:46Z</time>
      </trkpt>
      <trkpt lat="43.44091" lon="6.86171">
        <ele>27.284615</ele>
        <time>2011-02-18 13:59:50Z</time>
      </trkpt>
      <trkpt lat="43.44095" lon="6.86165">
        <ele>27.284607</ele>
        <time>2011-02-18 13:59:54Z</time>
      </trkpt>
      <trkpt lat="43.44097" lon="6.8616">
        <ele>26.284599</ele>
        <time>2011-02-18 13:59:58Z</time>
      </trkpt>
      <trkpt lat="43.44098" lon="6.86159">
        <ele>27.284599</ele>
        <time>2011-02-18 14:00:02Z</time>
      </trkpt>
      <trkpt lat="43.44102" lon="6.86154">
        <ele>27.284592</ele>
        <time>2011-02-18 14:00:06Z</time>
      </trkpt>
      <trkpt lat="43.44107" lon="6.86148">
        <ele>27.284584</ele>
        <time>2011-02-18 14:00:10Z</time>
      </trkpt>
      <trkpt lat="43.44112" lon="6.86139">
        <ele>28.284569</ele>
        <time>2011-02-18 14:00:14Z</time>
      </trkpt>
      <trkpt lat="43.44117" lon="6.8613">
        <ele>30.284561</ele>
        <time>2011-02-18 14:00:18Z</time>
      </trkpt>
      <trkpt lat="43.44121" lon="6.86123">
        <ele>31.284554</ele>
        <time>2011-02-18 14:00:22Z</time>
      </trkpt>
      <trkpt lat="43.44121" lon="6.86122">
        <ele>31.284554</ele>
        <time>2011-02-18 14:00:26Z</time>
      </trkpt>
      <trkpt lat="43.44125" lon="6.86116">
        <ele>31.284538</ele>
        <time>2011-02-18 14:00:30Z</time>
      </trkpt>
      <trkpt lat="43.44126" lon="6.86114">
        <ele>31.284534</ele>
        <time>2011-02-18 14:00:34Z</time>
      </trkpt>
      <trkpt lat="43.44127" lon="6.8611">
        <ele>31.284531</ele>
        <time>2011-02-18 14:00:38Z</time>
      </trkpt>
      <trkpt lat="43.44129" lon="6.86103">
        <ele>31.284515</ele>
        <time>2011-02-18 14:00:42Z</time>
      </trkpt>
      <trkpt lat="43.44132" lon="6.86095">
        <ele>31.2845</ele>
        <time>2011-02-18 14:00:46Z</time>
      </trkpt>
      <trkpt lat="43.44133" lon="6.86089">
        <ele>31.284492</ele>
        <time>2011-02-18 14:00:50Z</time>
      </trkpt>
      <trkpt lat="43.44135" lon="6.86079">
        <ele>31.28447</ele>
        <time>2011-02-18 14:00:54Z</time>
      </trkpt>
      <trkpt lat="43.44135" lon="6.86077">
        <ele>31.28447</ele>
        <time>2011-02-18 14:00:58Z</time>
      </trkpt>
      <trkpt lat="43.44135" lon="6.86077">
        <ele>31.28447</ele>
        <time>2011-02-18 14:01:02Z</time>
      </trkpt>
      <trkpt lat="43.44135" lon="6.86066">
        <ele>32.284443</ele>
        <time>2011-02-18 14:01:06Z</time>
      </trkpt>
      <trkpt lat="43.44135" lon="6.86063">
        <ele>32.284431</ele>
        <time>2011-02-18 14:01:10Z</time>
      </trkpt>
      <trkpt lat="43.44136" lon="6.86058">
        <ele>33.284424</ele>
        <time>2011-02-18 14:01:14Z</time>
      </trkpt>
      <trkpt lat="43.44136" lon="6.86058">
        <ele>33.284424</ele>
        <time>2011-02-18 14:01:18Z</time>
      </trkpt>
      <trkpt lat="43.44137" lon="6.86051">
        <ele>34.284409</ele>
        <time>2011-02-18 14:01:22Z</time>
      </trkpt>
      <trkpt lat="43.44137" lon="6.86049">
        <ele>34.284405</ele>
        <time>2011-02-18 14:01:26Z</time>
      </trkpt>
      <trkpt lat="43.44137" lon="6.86049">
        <ele>34.284405</ele>
        <time>2011-02-18 14:01:30Z</time>
      </trkpt>
      <trkpt lat="43.44138" lon="6.86037">
        <ele>33.284378</ele>
        <time>2011-02-18 14:01:34Z</time>
      </trkpt>
      <trkpt lat="43.44138" lon="6.86037">
        <ele>33.284378</ele>
        <time>2011-02-18 14:01:38Z</time>
      </trkpt>
      <trkpt lat="43.44138" lon="6.86037">
        <ele>33.284378</ele>
        <time>2011-02-18 14:01:42Z</time>
      </trkpt>
      <trkpt lat="43.4414" lon="6.86017">
        <ele>33.28434</ele>
        <time>2011-02-18 14:01:46Z</time>
      </trkpt>
      <trkpt lat="43.4414" lon="6.86012">
        <ele>33.284328</ele>
        <time>2011-02-18 14:01:50Z</time>
      </trkpt>
      <trkpt lat="43.4414" lon="6.8601">
        <ele>33.284325</ele>
        <time>2011-02-18 14:01:54Z</time>
      </trkpt>
      <trkpt lat="43.44141" lon="6.86003">
        <ele>35.284309</ele>
        <time>2011-02-18 14:01:58Z</time>
      </trkpt>
      <trkpt lat="43.44142" lon="6.85997">
        <ele>36.284298</ele>
        <time>2011-02-18 14:02:02Z</time>
      </trkpt>
      <trkpt lat="43.44144" lon="6.85988">
        <ele>38.284279</ele>
        <time>2011-02-18 14:02:06Z</time>
      </trkpt>
      <trkpt lat="43.44144" lon="6.85988">
        <ele>38.284279</ele>
        <time>2011-02-18 14:02:10Z</time>
      </trkpt>
      <trkpt lat="43.44144" lon="6.85988">
        <ele>38.284279</ele>
        <time>2011-02-18 14:02:14Z</time>
      </trkpt>
      <trkpt lat="43.44144" lon="6.85988">
        <ele>38.284279</ele>
        <time>2011-02-18 14:02:18Z</time>
      </trkpt>
      <trkpt lat="43.44144" lon="6.85988">
        <ele>38.284279</ele>
        <time>2011-02-18 14:02:22Z</time>
      </trkpt>
      <trkpt lat="43.44144" lon="6.85988">
        <ele>38.284279</ele>
        <time>2011-02-18 14:02:26Z</time>
      </trkpt>
      <trkpt lat="43.44144" lon="6.85988">
        <ele>38.284279</ele>
        <time>2011-02-18 14:02:30Z</time>
      </trkpt>
      <trkpt lat="43.44144" lon="6.85988">
        <ele>38.284279</ele>
        <time>2011-02-18 14:02:34Z</time>
      </trkpt>
      <trkpt lat="43.44149" lon="6.85971">
        <ele>42.284248</ele>
        <time>2011-02-18 14:02:38Z</time>
      </trkpt>
      <trkpt lat="43.44149" lon="6.85971">
        <ele>42.284248</ele>
        <time>2011-02-18 14:02:42Z</time>
      </trkpt>
      <trkpt lat="43.44149" lon="6.85966">
        <ele>45.284237</ele>
        <time>2011-02-18 14:02:46Z</time>
      </trkpt>
      <trkpt lat="43.44149" lon="6.85965">
        <ele>45.284233</ele>
        <time>2011-02-18 14:02:50Z</time>
      </trkpt>
      <trkpt lat="43.44151" lon="6.85959">
        <ele>45.284222</ele>
        <time>2011-02-18 14:02:54Z</time>
      </trkpt>
      <trkpt lat="43.44152" lon="6.85954">
        <ele>45.284218</ele>
        <time>2011-02-18 14:02:58Z</time>
      </trkpt>
      <trkpt lat="43.44155" lon="6.8595">
        <ele>45.284206</ele>
        <time>2011-02-18 14:03:02Z</time>
      </trkpt>
      <trkpt lat="43.44157" lon="6.85948">
        <ele>46.284206</ele>
        <time>2011-02-18 14:03:06Z</time>
      </trkpt>
      <trkpt lat="43.44157" lon="6.85948">
        <ele>46.284206</ele>
        <time>2011-02-18 14:03:10Z</time>
      </trkpt>
      <trkpt lat="43.44165" lon="6.85946">
        <ele>46.284214</ele>
        <time>2011-02-18 14:03:14Z</time>
      </trkpt>
      <trkpt lat="43.44167" lon="6.85948">
        <ele>48.284225</ele>
        <time>2011-02-18 14:03:18Z</time>
      </trkpt>
      <trkpt lat="43.44168" lon="6.85951">
        <ele>49.284233</ele>
        <time>2011-02-18 14:03:22Z</time>
      </trkpt>
      <trkpt lat="43.44168" lon="6.85954">
        <ele>49.284237</ele>
        <time>2011-02-18 14:03:26Z</time>
      </trkpt>
      <trkpt lat="43.44168" lon="6.85956">
        <ele>49.284241</ele>
        <time>2011-02-18 14:03:30Z</time>
      </trkpt>
      <trkpt lat="43.44169" lon="6.85966">
        <ele>49.284267</ele>
        <time>2011-02-18 14:03:34Z</time>
      </trkpt>
      <trkpt lat="43.44169" lon="6.85973">
        <ele>50.284279</ele>
        <time>2011-02-18 14:03:38Z</time>
      </trkpt>
      <trkpt lat="43.44169" lon="6.85979">
        <ele>50.284294</ele>
        <time>2011-02-18 14:03:42Z</time>
      </trkpt>
      <trkpt lat="43.44169" lon="6.85989">
        <ele>50.284321</ele>
        <time>2011-02-18 14:03:46Z</time>
      </trkpt>
      <trkpt lat="43.44169" lon="6.85996">
        <ele>50.284336</ele>
        <time>2011-02-18 14:03:50Z</time>
      </trkpt>
      <trkpt lat="43.4417" lon="6.85998">
        <ele>51.28434</ele>
        <time>2011-02-18 14:03:54Z</time>
      </trkpt>
      <trkpt lat="43.4417" lon="6.86009">
        <ele>50.284363</ele>
        <time>2011-02-18 14:03:58Z</time>
      </trkpt>
      <trkpt lat="43.4417" lon="6.86015">
        <ele>50.284378</ele>
        <time>2011-02-18 14:04:02Z</time>
      </trkpt>
      <trkpt lat="43.44171" lon="6.86021">
        <ele>49.284401</ele>
        <time>2011-02-18 14:04:06Z</time>
      </trkpt>
      <trkpt lat="43.44171" lon="6.86027">
        <ele>49.284409</ele>
        <time>2011-02-18 14:04:10Z</time>
      </trkpt>
      <trkpt lat="43.44172" lon="6.86028">
        <ele>49.284409</ele>
        <time>2011-02-18 14:04:14Z</time>
      </trkpt>
      <trkpt lat="43.44173" lon="6.86035">
        <ele>49.284431</ele>
        <time>2011-02-18 14:04:18Z</time>
      </trkpt>
      <trkpt lat="43.44174" lon="6.86038">
        <ele>50.284439</ele>
        <time>2011-02-18 14:04:22Z</time>
      </trkpt>
      <trkpt lat="43.44175" lon="6.86043">
        <ele>50.284454</ele>
        <time>2011-02-18 14:04:26Z</time>
      </trkpt>
      <trkpt lat="43.44176" lon="6.86051">
        <ele>51.28447</ele>
        <time>2011-02-18 14:04:30Z</time>
      </trkpt>
      <trkpt lat="43.44177" lon="6.86056">
        <ele>51.284485</ele>
        <time>2011-02-18 14:04:34Z</time>
      </trkpt>
      <trkpt lat="43.44178" lon="6.86063">
        <ele>52.2845</ele>
        <time>2011-02-18 14:04:38Z</time>
      </trkpt>
      <trkpt lat="43.44176" lon="6.86071">
        <ele>54.284523</ele>
        <time>2011-02-18 14:04:42Z</time>
      </trkpt>
      <trkpt lat="43.44176" lon="6.86076">
        <ele>54.284531</ele>
        <time>2011-02-18 14:04:46Z</time>
      </trkpt>
      <trkpt lat="43.44175" lon="6.8608">
        <ele>55.284534</ele>
        <time>2011-02-18 14:04:50Z</time>
      </trkpt>
      <trkpt lat="43.44174" lon="6.86085">
        <ele>56.284546</ele>
        <time>2011-02-18 14:04:54Z</time>
      </trkpt>
      <trkpt lat="43.44173" lon="6.86087">
        <ele>57.284546</ele>
        <time>2011-02-18 14:04:58Z</time>
      </trkpt>
      <trkpt lat="43.44173" lon="6.86094">
        <ele>56.284565</ele>
        <time>2011-02-18 14:05:02Z</time>
      </trkpt>
      <trkpt lat="43.44172" lon="6.86098">
        <ele>57.284576</ele>
        <time>2011-02-18 14:05:06Z</time>
      </trkpt>
      <trkpt lat="43.44171" lon="6.86105">
        <ele>58.284584</ele>
        <time>2011-02-18 14:05:10Z</time>
      </trkpt>
      <trkpt lat="43.4417" lon="6.86108">
        <ele>58.284592</ele>
        <time>2011-02-18 14:05:14Z</time>
      </trkpt>
      <trkpt lat="43.44167" lon="6.86118">
        <ele>60.284607</ele>
        <time>2011-02-18 14:05:18Z</time>
      </trkpt>
      <trkpt lat="43.44165" lon="6.86124">
        <ele>61.284622</ele>
        <time>2011-02-18 14:05:22Z</time>
      </trkpt>
      <trkpt lat="43.44164" lon="6.86132">
        <ele>62.284637</ele>
        <time>2011-02-18 14:05:26Z</time>
      </trkpt>
      <trkpt lat="43.44162" lon="6.8614">
        <ele>63.284653</ele>
        <time>2011-02-18 14:05:30Z</time>
      </trkpt>
      <trkpt lat="43.44161" lon="6.86146">
        <ele>63.284664</ele>
        <time>2011-02-18 14:05:34Z</time>
      </trkpt>
      <trkpt lat="43.44161" lon="6.86146">
        <ele>63.284664</ele>
        <time>2011-02-18 14:05:38Z</time>
      </trkpt>
      <trkpt lat="43.44161" lon="6.86154">
        <ele>64.284683</ele>
        <time>2011-02-18 14:05:42Z</time>
      </trkpt>
      <trkpt lat="43.44161" lon="6.86159">
        <ele>64.284698</ele>
        <time>2011-02-18 14:05:46Z</time>
      </trkpt>
      <trkpt lat="43.44161" lon="6.86163">
        <ele>64.284706</ele>
        <time>2011-02-18 14:05:50Z</time>
      </trkpt>
      <trkpt lat="43.44161" lon="6.86165">
        <ele>64.284714</ele>
        <time>2011-02-18 14:05:54Z</time>
      </trkpt>
      <trkpt lat="43.44159" lon="6.86171">
        <ele>64.284714</ele>
        <time>2011-02-18 14:05:58Z</time>
      </trkpt>
      <trkpt lat="43.44158" lon="6.86174">
        <ele>63.284729</ele>
        <time>2011-02-18 14:06:02Z</time>
      </trkpt>
      <trkpt lat="43.44157" lon="6.86184">
        <ele>63.284744</ele>
        <time>2011-02-18 14:06:06Z</time>
      </trkpt>
      <trkpt lat="43.44156" lon="6.86188">
        <ele>63.284752</ele>
        <time>2011-02-18 14:06:10Z</time>
      </trkpt>
      <trkpt lat="43.44155" lon="6.86189">
        <ele>63.284756</ele>
        <time>2011-02-18 14:06:14Z</time>
      </trkpt>
      <trkpt lat="43.44155" lon="6.86189">
        <ele>63.284756</ele>
        <time>2011-02-18 14:06:18Z</time>
      </trkpt>
      <trkpt lat="43.4415" lon="6.86208">
        <ele>64.28479</ele>
        <time>2011-02-18 14:06:22Z</time>
      </trkpt>
      <trkpt lat="43.4415" lon="6.86209">
        <ele>65.28479</ele>
        <time>2011-02-18 14:06:26Z</time>
      </trkpt>
      <trkpt lat="43.44148" lon="6.86218">
        <ele>67.284805</ele>
        <time>2011-02-18 14:06:30Z</time>
      </trkpt>
      <trkpt lat="43.44148" lon="6.86222">
        <ele>67.284821</ele>
        <time>2011-02-18 14:06:34Z</time>
      </trkpt>
      <trkpt lat="43.44147" lon="6.8623">
        <ele>68.284836</ele>
        <time>2011-02-18 14:06:38Z</time>
      </trkpt>
      <trkpt lat="43.44147" lon="6.8623">
        <ele>68.284836</ele>
        <time>2011-02-18 14:06:42Z</time>
      </trkpt>
      <trkpt lat="43.44147" lon="6.86243">
        <ele>68.284866</ele>
        <time>2011-02-18 14:06:46Z</time>
      </trkpt>
      <trkpt lat="43.44148" lon="6.86249">
        <ele>68.284882</ele>
        <time>2011-02-18 14:06:50Z</time>
      </trkpt>
      <trkpt lat="43.44148" lon="6.86252">
        <ele>68.284882</ele>
        <time>2011-02-18 14:06:54Z</time>
      </trkpt>
      <trkpt lat="43.44147" lon="6.86259">
        <ele>69.284897</ele>
        <time>2011-02-18 14:06:58Z</time>
      </trkpt>
      <trkpt lat="43.44147" lon="6.86265">
        <ele>70.284912</ele>
        <time>2011-02-18 14:07:02Z</time>
      </trkpt>
      <trkpt lat="43.44148" lon="6.86269">
        <ele>71.284927</ele>
        <time>2011-02-18 14:07:06Z</time>
      </trkpt>
      <trkpt lat="43.44148" lon="6.86271">
        <ele>71.284927</ele>
        <time>2011-02-18 14:07:10Z</time>
      </trkpt>
      <trkpt lat="43.4415" lon="6.86273">
        <ele>72.284943</ele>
        <time>2011-02-18 14:07:14Z</time>
      </trkpt>
      <trkpt lat="43.44153" lon="6.86272">
        <ele>73.284943</ele>
        <time>2011-02-18 14:07:18Z</time>
      </trkpt>
      <trkpt lat="43.44156" lon="6.86269">
        <ele>73.284943</ele>
        <time>2011-02-18 14:07:22Z</time>
      </trkpt>
      <trkpt lat="43.44159" lon="6.86264">
        <ele>74.284927</ele>
        <time>2011-02-18 14:07:26Z</time>
      </trkpt>
      <trkpt lat="43.44161" lon="6.86256">
        <ele>75.284912</ele>
        <time>2011-02-18 14:07:30Z</time>
      </trkpt>
      <trkpt lat="43.44161" lon="6.86256">
        <ele>75.284912</ele>
        <time>2011-02-18 14:07:34Z</time>
      </trkpt>
      <trkpt lat="43.44163" lon="6.86243">
        <ele>76.284889</ele>
        <time>2011-02-18 14:07:38Z</time>
      </trkpt>
      <trkpt lat="43.44164" lon="6.86238">
        <ele>76.284882</ele>
        <time>2011-02-18 14:07:42Z</time>
      </trkpt>
      <trkpt lat="43.44164" lon="6.86238">
        <ele>76.284882</ele>
        <time>2011-02-18 14:07:46Z</time>
      </trkpt>
      <trkpt lat="43.44164" lon="6.86238">
        <ele>76.284882</ele>
        <time>2011-02-18 14:07:50Z</time>
      </trkpt>
      <trkpt lat="43.44169" lon="6.86225">
        <ele>78.284859</ele>
        <time>2011-02-18 14:07:54Z</time>
      </trkpt>
      <trkpt lat="43.44172" lon="6.86221">
        <ele>78.284851</ele>
        <time>2011-02-18 14:07:58Z</time>
      </trkpt>
      <trkpt lat="43.44173" lon="6.86217">
        <ele>77.284843</ele>
        <time>2011-02-18 14:08:02Z</time>
      </trkpt>
      <trkpt lat="43.44175" lon="6.86212">
        <ele>77.284836</ele>
        <time>2011-02-18 14:08:06Z</time>
      </trkpt>
      <trkpt lat="43.44176" lon="6.86208">
        <ele>78.284828</ele>
        <time>2011-02-18 14:08:10Z</time>
      </trkpt>
      <trkpt lat="43.4418" lon="6.86201">
        <ele>78.284821</ele>
        <time>2011-02-18 14:08:14Z</time>
      </trkpt>
      <trkpt lat="43.44183" lon="6.86196">
        <ele>78.284813</ele>
        <time>2011-02-18 14:08:18Z</time>
      </trkpt>
      <trkpt lat="43.44185" lon="6.86189">
        <ele>79.284798</ele>
        <time>2011-02-18 14:08:22Z</time>
      </trkpt>
      <trkpt lat="43.44188" lon="6.86183">
        <ele>80.28479</ele>
        <time>2011-02-18 14:08:26Z</time>
      </trkpt>
      <trkpt lat="43.44188" lon="6.86181">
        <ele>81.28479</ele>
        <time>2011-02-18 14:08:30Z</time>
      </trkpt>
      <trkpt lat="43.4419" lon="6.86173">
        <ele>83.284775</ele>
        <time>2011-02-18 14:08:34Z</time>
      </trkpt>
      <trkpt lat="43.44191" lon="6.86169">
        <ele>83.28476</ele>
        <time>2011-02-18 14:08:38Z</time>
      </trkpt>
      <trkpt lat="43.44192" lon="6.86168">
        <ele>84.28476</ele>
        <time>2011-02-18 14:08:42Z</time>
      </trkpt>
      <trkpt lat="43.44193" lon="6.86161">
        <ele>84.284752</ele>
        <time>2011-02-18 14:08:46Z</time>
      </trkpt>
      <trkpt lat="43.44193" lon="6.86157">
        <ele>85.284744</ele>
        <time>2011-02-18 14:08:50Z</time>
      </trkpt>
      <trkpt lat="43.44198" lon="6.86151">
        <ele>86.284737</ele>
        <time>2011-02-18 14:08:54Z</time>
      </trkpt>
      <trkpt lat="43.442" lon="6.86145">
        <ele>86.284729</ele>
        <time>2011-02-18 14:08:58Z</time>
      </trkpt>
      <trkpt lat="43.44202" lon="6.8614">
        <ele>87.284714</ele>
        <time>2011-02-18 14:09:02Z</time>
      </trkpt>
      <trkpt lat="43.44204" lon="6.86134">
        <ele>88.284706</ele>
        <time>2011-02-18 14:09:06Z</time>
      </trkpt>
      <trkpt lat="43.44207" lon="6.86129">
        <ele>89.284698</ele>
        <time>2011-02-18 14:09:10Z</time>
      </trkpt>
      <trkpt lat="43.44211" lon="6.86122">
        <ele>92.284683</ele>
        <time>2011-02-18 14:09:14Z</time>
      </trkpt>
      <trkpt lat="43.44214" lon="6.86116">
        <ele>93.284683</ele>
        <time>2011-02-18 14:09:18Z</time>
      </trkpt>
      <trkpt lat="43.44215" lon="6.86114">
        <ele>93.284676</ele>
        <time>2011-02-18 14:09:22Z</time>
      </trkpt>
      <trkpt lat="43.44215" lon="6.86114">
        <ele>93.284676</ele>
        <time>2011-02-18 14:09:26Z</time>
      </trkpt>
      <trkpt lat="43.44219" lon="6.86105">
        <ele>95.284668</ele>
        <time>2011-02-18 14:09:30Z</time>
      </trkpt>
      <trkpt lat="43.44219" lon="6.86105">
        <ele>95.284668</ele>
        <time>2011-02-18 14:09:34Z</time>
      </trkpt>
      <trkpt lat="43.44222" lon="6.86096">
        <ele>96.284645</ele>
        <time>2011-02-18 14:09:38Z</time>
      </trkpt>
      <trkpt lat="43.44223" lon="6.86091">
        <ele>96.284637</ele>
        <time>2011-02-18 14:09:42Z</time>
      </trkpt>
      <trkpt lat="43.44224" lon="6.86082">
        <ele>97.284622</ele>
        <time>2011-02-18 14:09:46Z</time>
      </trkpt>
      <trkpt lat="43.44225" lon="6.86076">
        <ele>97.284607</ele>
        <time>2011-02-18 14:09:50Z</time>
      </trkpt>
      <trkpt lat="43.44226" lon="6.86071">
        <ele>97.284599</ele>
        <time>2011-02-18 14:09:54Z</time>
      </trkpt>
      <trkpt lat="43.44226" lon="6.8607">
        <ele>97.284592</ele>
        <time>2011-02-18 14:09:58Z</time>
      </trkpt>
      <trkpt lat="43.44226" lon="6.86063">
        <ele>97.284576</ele>
        <time>2011-02-18 14:10:02Z</time>
      </trkpt>
      <trkpt lat="43.44228" lon="6.86053">
        <ele>98.284561</ele>
        <time>2011-02-18 14:10:06Z</time>
      </trkpt>
      <trkpt lat="43.44229" lon="6.86049">
        <ele>98.284554</ele>
        <time>2011-02-18 14:10:10Z</time>
      </trkpt>
      <trkpt lat="43.44231" lon="6.8604">
        <ele>99.284531</ele>
        <time>2011-02-18 14:10:14Z</time>
      </trkpt>
      <trkpt lat="43.44232" lon="6.86034">
        <ele>99.284523</ele>
        <time>2011-02-18 14:10:18Z</time>
      </trkpt>
      <trkpt lat="43.44234" lon="6.8603">
        <ele>100.284515</ele>
        <time>2011-02-18 14:10:22Z</time>
      </trkpt>
      <trkpt lat="43.44234" lon="6.8603">
        <ele>100.284515</ele>
        <time>2011-02-18 14:10:26Z</time>
      </trkpt>
      <trkpt lat="43.44236" lon="6.86018">
        <ele>101.284492</ele>
        <time>2011-02-18 14:10:30Z</time>
      </trkpt>
      <trkpt lat="43.44237" lon="6.86012">
        <ele>101.284477</ele>
        <time>2011-02-18 14:10:34Z</time>
      </trkpt>
      <trkpt lat="43.44238" lon="6.86006">
        <ele>102.28447</ele>
        <time>2011-02-18 14:10:38Z</time>
      </trkpt>
      <trkpt lat="43.44241" lon="6.85999">
        <ele>103.284454</ele>
        <time>2011-02-18 14:10:42Z</time>
      </trkpt>
      <trkpt lat="43.44242" lon="6.85994">
        <ele>104.284439</ele>
        <time>2011-02-18 14:10:46Z</time>
      </trkpt>
      <trkpt lat="43.44244" lon="6.85989">
        <ele>105.284439</ele>
        <time>2011-02-18 14:10:50Z</time>
      </trkpt>
      <trkpt lat="43.44246" lon="6.85985">
        <ele>106.284424</ele>
        <time>2011-02-18 14:10:54Z</time>
      </trkpt>
      <trkpt lat="43.44247" lon="6.8598">
        <ele>106.284424</ele>
        <time>2011-02-18 14:10:58Z</time>
      </trkpt>
      <trkpt lat="43.44249" lon="6.85974">
        <ele>106.284416</ele>
        <time>2011-02-18 14:11:02Z</time>
      </trkpt>
      <trkpt lat="43.44251" lon="6.85969">
        <ele>107.284401</ele>
        <time>2011-02-18 14:11:06Z</time>
      </trkpt>
      <trkpt lat="43.44252" lon="6.85965">
        <ele>107.284393</ele>
        <time>2011-02-18 14:11:10Z</time>
      </trkpt>
      <trkpt lat="43.44254" lon="6.85961">
        <ele>107.284386</ele>
        <time>2011-02-18 14:11:14Z</time>
      </trkpt>
      <trkpt lat="43.44255" lon="6.85957">
        <ele>107.284386</ele>
        <time>2011-02-18 14:11:18Z</time>
      </trkpt>
      <trkpt lat="43.44259" lon="6.85955">
        <ele>108.284386</ele>
        <time>2011-02-18 14:11:22Z</time>
      </trkpt>
      <trkpt lat="43.44259" lon="6.85955">
        <ele>108.284386</ele>
        <time>2011-02-18 14:11:26Z</time>
      </trkpt>
      <trkpt lat="43.44266" lon="6.85952">
        <ele>107.284386</ele>
        <time>2011-02-18 14:11:30Z</time>
      </trkpt>
      <trkpt lat="43.44267" lon="6.85952">
        <ele>107.284386</ele>
        <time>2011-02-18 14:11:34Z</time>
      </trkpt>
      <trkpt lat="43.4427" lon="6.85961">
        <ele>106.284416</ele>
        <time>2011-02-18 14:11:38Z</time>
      </trkpt>
      <trkpt lat="43.4427" lon="6.85967">
        <ele>105.284431</ele>
        <time>2011-02-18 14:11:42Z</time>
      </trkpt>
      <trkpt lat="43.4427" lon="6.85972">
        <ele>105.284439</ele>
        <time>2011-02-18 14:11:46Z</time>
      </trkpt>
      <trkpt lat="43.4427" lon="6.85975">
        <ele>105.284439</ele>
        <time>2011-02-18 14:11:50Z</time>
      </trkpt>
      <trkpt lat="43.44269" lon="6.85975">
        <ele>105.284447</ele>
        <time>2011-02-18 14:11:54Z</time>
      </trkpt>
      <trkpt lat="43.44268" lon="6.85983">
        <ele>104.284454</ele>
        <time>2011-02-18 14:11:58Z</time>
      </trkpt>
      <trkpt lat="43.44267" lon="6.85984">
        <ele>104.284462</ele>
        <time>2011-02-18 14:12:02Z</time>
      </trkpt>
      <trkpt lat="43.44264" lon="6.85992">
        <ele>104.28447</ele>
        <time>2011-02-18 14:12:06Z</time>
      </trkpt>
      <trkpt lat="43.44262" lon="6.85996">
        <ele>105.284485</ele>
        <time>2011-02-18 14:12:10Z</time>
      </trkpt>
      <trkpt lat="43.4426" lon="6.86">
        <ele>106.284492</ele>
        <time>2011-02-18 14:12:14Z</time>
      </trkpt>
      <trkpt lat="43.44257" lon="6.86009">
        <ele>108.2845</ele>
        <time>2011-02-18 14:12:18Z</time>
      </trkpt>
      <trkpt lat="43.44254" lon="6.86015">
        <ele>109.284515</ele>
        <time>2011-02-18 14:12:22Z</time>
      </trkpt>
      <trkpt lat="43.44254" lon="6.86015">
        <ele>109.284515</ele>
        <time>2011-02-18 14:12:26Z</time>
      </trkpt>
      <trkpt lat="43.44252" lon="6.86026">
        <ele>110.284531</ele>
        <time>2011-02-18 14:12:30Z</time>
      </trkpt>
      <trkpt lat="43.44251" lon="6.8603">
        <ele>110.284538</ele>
        <time>2011-02-18 14:12:34Z</time>
      </trkpt>
      <trkpt lat="43.4425" lon="6.86034">
        <ele>111.284546</ele>
        <time>2011-02-18 14:12:38Z</time>
      </trkpt>
      <trkpt lat="43.44249" lon="6.86038">
        <ele>111.284561</ele>
        <time>2011-02-18 14:12:42Z</time>
      </trkpt>
      <trkpt lat="43.44249" lon="6.86043">
        <ele>112.284569</ele>
        <time>2011-02-18 14:12:46Z</time>
      </trkpt>
      <trkpt lat="43.44249" lon="6.86043">
        <ele>112.284569</ele>
        <time>2011-02-18 14:12:50Z</time>
      </trkpt>
      <trkpt lat="43.44248" lon="6.86052">
        <ele>113.284592</ele>
        <time>2011-02-18 14:12:54Z</time>
      </trkpt>
      <trkpt lat="43.44247" lon="6.86056">
        <ele>114.284592</ele>
        <time>2011-02-18 14:12:58Z</time>
      </trkpt>
      <trkpt lat="43.44246" lon="6.8606">
        <ele>114.284607</ele>
        <time>2011-02-18 14:13:02Z</time>
      </trkpt>
      <trkpt lat="43.44245" lon="6.86064">
        <ele>113.284607</ele>
        <time>2011-02-18 14:13:06Z</time>
      </trkpt>
      <trkpt lat="43.44245" lon="6.86068">
        <ele>113.284622</ele>
        <time>2011-02-18 14:13:10Z</time>
      </trkpt>
      <trkpt lat="43.44244" lon="6.86075">
        <ele>113.284637</ele>
        <time>2011-02-18 14:13:14Z</time>
      </trkpt>
      <trkpt lat="43.44244" lon="6.86075">
        <ele>113.284637</ele>
        <time>2011-02-18 14:13:18Z</time>
      </trkpt>
      <trkpt lat="43.44242" lon="6.86093">
        <ele>114.284668</ele>
        <time>2011-02-18 14:13:22Z</time>
      </trkpt>
      <trkpt lat="43.44242" lon="6.861">
        <ele>114.284683</ele>
        <time>2011-02-18 14:13:26Z</time>
      </trkpt>
      <trkpt lat="43.44241" lon="6.86105">
        <ele>113.284698</ele>
        <time>2011-02-18 14:13:30Z</time>
      </trkpt>
      <trkpt lat="43.44239" lon="6.8611">
        <ele>113.284706</ele>
        <time>2011-02-18 14:13:34Z</time>
      </trkpt>
      <trkpt lat="43.44238" lon="6.86115">
        <ele>112.284714</ele>
        <time>2011-02-18 14:13:38Z</time>
      </trkpt>
      <trkpt lat="43.44236" lon="6.86123">
        <ele>112.284729</ele>
        <time>2011-02-18 14:13:42Z</time>
      </trkpt>
      <trkpt lat="43.44235" lon="6.86129">
        <ele>112.284744</ele>
        <time>2011-02-18 14:13:46Z</time>
      </trkpt>
      <trkpt lat="43.44234" lon="6.86131">
        <ele>112.284744</ele>
        <time>2011-02-18 14:13:50Z</time>
      </trkpt>
      <trkpt lat="43.44233" lon="6.86137">
        <ele>113.28476</ele>
        <time>2011-02-18 14:13:54Z</time>
      </trkpt>
      <trkpt lat="43.44233" lon="6.86145">
        <ele>114.284775</ele>
        <time>2011-02-18 14:13:58Z</time>
      </trkpt>
      <trkpt lat="43.44233" lon="6.86152">
        <ele>115.28479</ele>
        <time>2011-02-18 14:14:02Z</time>
      </trkpt>
      <trkpt lat="43.44233" lon="6.86162">
        <ele>117.284821</ele>
        <time>2011-02-18 14:14:06Z</time>
      </trkpt>
      <trkpt lat="43.44233" lon="6.86168">
        <ele>117.284828</ele>
        <time>2011-02-18 14:14:10Z</time>
      </trkpt>
      <trkpt lat="43.44232" lon="6.86174">
        <ele>117.284843</ele>
        <time>2011-02-18 14:14:14Z</time>
      </trkpt>
      <trkpt lat="43.44231" lon="6.86183">
        <ele>115.284859</ele>
        <time>2011-02-18 14:14:18Z</time>
      </trkpt>
      <trkpt lat="43.44231" lon="6.86186">
        <ele>116.284866</ele>
        <time>2011-02-18 14:14:22Z</time>
      </trkpt>
      <trkpt lat="43.4423" lon="6.86191">
        <ele>116.284882</ele>
        <time>2011-02-18 14:14:26Z</time>
      </trkpt>
      <trkpt lat="43.44228" lon="6.86197">
        <ele>115.284889</ele>
        <time>2011-02-18 14:14:30Z</time>
      </trkpt>
      <trkpt lat="43.44228" lon="6.86199">
        <ele>115.284897</ele>
        <time>2011-02-18 14:14:34Z</time>
      </trkpt>
      <trkpt lat="43.44228" lon="6.86205">
        <ele>115.284904</ele>
        <time>2011-02-18 14:14:38Z</time>
      </trkpt>
      <trkpt lat="43.44228" lon="6.86212">
        <ele>115.28492</ele>
        <time>2011-02-18 14:14:42Z</time>
      </trkpt>
      <trkpt lat="43.44227" lon="6.8622">
        <ele>116.284935</ele>
        <time>2011-02-18 14:14:46Z</time>
      </trkpt>
      <trkpt lat="43.44225" lon="6.86227">
        <ele>115.284958</ele>
        <time>2011-02-18 14:14:50Z</time>
      </trkpt>
      <trkpt lat="43.44225" lon="6.86232">
        <ele>115.284958</ele>
        <time>2011-02-18 14:14:54Z</time>
      </trkpt>
      <trkpt lat="43.44223" lon="6.86241">
        <ele>115.284981</ele>
        <time>2011-02-18 14:14:58Z</time>
      </trkpt>
      <trkpt lat="43.44222" lon="6.86248">
        <ele>115.284996</ele>
        <time>2011-02-18 14:15:02Z</time>
      </trkpt>
      <trkpt lat="43.44221" lon="6.86256">
        <ele>114.285011</ele>
        <time>2011-02-18 14:15:06Z</time>
      </trkpt>
      <trkpt lat="43.44221" lon="6.86256">
        <ele>114.285011</ele>
        <time>2011-02-18 14:15:10Z</time>
      </trkpt>
      <trkpt lat="43.4422" lon="6.86268">
        <ele>113.285034</ele>
        <time>2011-02-18 14:15:14Z</time>
      </trkpt>
      <trkpt lat="43.4422" lon="6.86271">
        <ele>112.285042</ele>
        <time>2011-02-18 14:15:18Z</time>
      </trkpt>
      <trkpt lat="43.4422" lon="6.86271">
        <ele>112.285042</ele>
        <time>2011-02-18 14:15:22Z</time>
      </trkpt>
      <trkpt lat="43.44218" lon="6.86289">
        <ele>112.28508</ele>
        <time>2011-02-18 14:15:26Z</time>
      </trkpt>
      <trkpt lat="43.44217" lon="6.86294">
        <ele>115.285095</ele>
        <time>2011-02-18 14:15:30Z</time>
      </trkpt>
      <trkpt lat="43.44217" lon="6.86302">
        <ele>117.28511</ele>
        <time>2011-02-18 14:15:34Z</time>
      </trkpt>
      <trkpt lat="43.44217" lon="6.86307">
        <ele>117.285118</ele>
        <time>2011-02-18 14:15:38Z</time>
      </trkpt>
      <trkpt lat="43.44217" lon="6.86313">
        <ele>116.285141</ele>
        <time>2011-02-18 14:15:42Z</time>
      </trkpt>
      <trkpt lat="43.44218" lon="6.86317">
        <ele>116.285141</ele>
        <time>2011-02-18 14:15:46Z</time>
      </trkpt>
      <trkpt lat="43.44217" lon="6.86325">
        <ele>116.285164</ele>
        <time>2011-02-18 14:15:50Z</time>
      </trkpt>
      <trkpt lat="43.44215" lon="6.8633">
        <ele>116.285172</ele>
        <time>2011-02-18 14:15:54Z</time>
      </trkpt>
      <trkpt lat="43.44213" lon="6.86336">
        <ele>116.285179</ele>
        <time>2011-02-18 14:15:58Z</time>
      </trkpt>
      <trkpt lat="43.4421" lon="6.86343">
        <ele>115.285187</ele>
        <time>2011-02-18 14:16:02Z</time>
      </trkpt>
      <trkpt lat="43.44206" lon="6.8635">
        <ele>113.285202</ele>
        <time>2011-02-18 14:16:06Z</time>
      </trkpt>
      <trkpt lat="43.44204" lon="6.86356">
        <ele>112.28521</ele>
        <time>2011-02-18 14:16:10Z</time>
      </trkpt>
      <trkpt lat="43.44201" lon="6.8636">
        <ele>111.285217</ele>
        <time>2011-02-18 14:16:14Z</time>
      </trkpt>
      <trkpt lat="43.44199" lon="6.86363">
        <ele>111.285217</ele>
        <time>2011-02-18 14:16:18Z</time>
      </trkpt>
      <trkpt lat="43.44192" lon="6.86371">
        <ele>110.285225</ele>
        <time>2011-02-18 14:16:22Z</time>
      </trkpt>
      <trkpt lat="43.4419" lon="6.86376">
        <ele>110.285233</ele>
        <time>2011-02-18 14:16:26Z</time>
      </trkpt>
      <trkpt lat="43.44188" lon="6.86379">
        <ele>110.285233</ele>
        <time>2011-02-18 14:16:30Z</time>
      </trkpt>
      <trkpt lat="43.44188" lon="6.86379">
        <ele>110.285233</ele>
        <time>2011-02-18 14:16:34Z</time>
      </trkpt>
      <trkpt lat="43.44181" lon="6.86387">
        <ele>110.285248</ele>
        <time>2011-02-18 14:16:38Z</time>
      </trkpt>
      <trkpt lat="43.44178" lon="6.86392">
        <ele>110.285248</ele>
        <time>2011-02-18 14:16:42Z</time>
      </trkpt>
      <trkpt lat="43.44175" lon="6.86396">
        <ele>110.285255</ele>
        <time>2011-02-18 14:16:46Z</time>
      </trkpt>
      <trkpt lat="43.44173" lon="6.864">
        <ele>110.285263</ele>
        <time>2011-02-18 14:16:50Z</time>
      </trkpt>
      <trkpt lat="43.44171" lon="6.86404">
        <ele>109.285271</ele>
        <time>2011-02-18 14:16:54Z</time>
      </trkpt>
      <trkpt lat="43.44169" lon="6.86409">
        <ele>109.285278</ele>
        <time>2011-02-18 14:16:58Z</time>
      </trkpt>
      <trkpt lat="43.44165" lon="6.86415">
        <ele>109.285286</ele>
        <time>2011-02-18 14:17:02Z</time>
      </trkpt>
      <trkpt lat="43.44162" lon="6.86419">
        <ele>109.285286</ele>
        <time>2011-02-18 14:17:06Z</time>
      </trkpt>
      <trkpt lat="43.44159" lon="6.86425">
        <ele>109.285294</ele>
        <time>2011-02-18 14:17:10Z</time>
      </trkpt>
      <trkpt lat="43.44156" lon="6.8643">
        <ele>112.285309</ele>
        <time>2011-02-18 14:17:14Z</time>
      </trkpt>
      <trkpt lat="43.44155" lon="6.86437">
        <ele>113.285316</ele>
        <time>2011-02-18 14:17:18Z</time>
      </trkpt>
      <trkpt lat="43.44153" lon="6.86442">
        <ele>112.285324</ele>
        <time>2011-02-18 14:17:22Z</time>
      </trkpt>
      <trkpt lat="43.44152" lon="6.86449">
        <ele>112.285347</ele>
        <time>2011-02-18 14:17:26Z</time>
      </trkpt>
      <trkpt lat="43.44151" lon="6.86453">
        <ele>112.285347</ele>
        <time>2011-02-18 14:17:30Z</time>
      </trkpt>
      <trkpt lat="43.44151" lon="6.86453">
        <ele>112.285347</ele>
        <time>2011-02-18 14:17:34Z</time>
      </trkpt>
      <trkpt lat="43.44151" lon="6.86467">
        <ele>112.285385</ele>
        <time>2011-02-18 14:17:38Z</time>
      </trkpt>
      <trkpt lat="43.44151" lon="6.86474">
        <ele>112.2854</ele>
        <time>2011-02-18 14:17:42Z</time>
      </trkpt>
      <trkpt lat="43.4415" lon="6.86486">
        <ele>113.285423</ele>
        <time>2011-02-18 14:17:46Z</time>
      </trkpt>
      <trkpt lat="43.4415" lon="6.86493">
        <ele>113.285439</ele>
        <time>2011-02-18 14:17:50Z</time>
      </trkpt>
      <trkpt lat="43.44149" lon="6.865">
        <ele>114.285454</ele>
        <time>2011-02-18 14:17:54Z</time>
      </trkpt>
      <trkpt lat="43.44149" lon="6.86504">
        <ele>114.285461</ele>
        <time>2011-02-18 14:17:58Z</time>
      </trkpt>
      <trkpt lat="43.4415" lon="6.86508">
        <ele>114.285477</ele>
        <time>2011-02-18 14:18:02Z</time>
      </trkpt>
      <trkpt lat="43.4415" lon="6.86513">
        <ele>114.285484</ele>
        <time>2011-02-18 14:18:06Z</time>
      </trkpt>
      <trkpt lat="43.44151" lon="6.86519">
        <ele>115.2855</ele>
        <time>2011-02-18 14:18:10Z</time>
      </trkpt>
      <trkpt lat="43.44152" lon="6.86523">
        <ele>115.285515</ele>
        <time>2011-02-18 14:18:14Z</time>
      </trkpt>
      <trkpt lat="43.44154" lon="6.86529">
        <ele>115.28553</ele>
        <time>2011-02-18 14:18:18Z</time>
      </trkpt>
      <trkpt lat="43.44155" lon="6.86533">
        <ele>115.285538</ele>
        <time>2011-02-18 14:18:22Z</time>
      </trkpt>
      <trkpt lat="43.44155" lon="6.86533">
        <ele>115.285538</ele>
        <time>2011-02-18 14:18:26Z</time>
      </trkpt>
      <trkpt lat="43.44156" lon="6.86541">
        <ele>118.285553</ele>
        <time>2011-02-18 14:18:30Z</time>
      </trkpt>
      <trkpt lat="43.44156" lon="6.86547">
        <ele>120.285568</ele>
        <time>2011-02-18 14:18:34Z</time>
      </trkpt>
      <trkpt lat="43.44156" lon="6.86551">
        <ele>120.285583</ele>
        <time>2011-02-18 14:18:38Z</time>
      </trkpt>
      <trkpt lat="43.44156" lon="6.86551">
        <ele>120.285583</ele>
        <time>2011-02-18 14:18:42Z</time>
      </trkpt>
      <trkpt lat="43.44157" lon="6.8656">
        <ele>118.285599</ele>
        <time>2011-02-18 14:18:46Z</time>
      </trkpt>
      <trkpt lat="43.44157" lon="6.8656">
        <ele>118.285599</ele>
        <time>2011-02-18 14:18:50Z</time>
      </trkpt>
      <trkpt lat="43.44156" lon="6.86575">
        <ele>116.285637</ele>
        <time>2011-02-18 14:18:54Z</time>
      </trkpt>
      <trkpt lat="43.44156" lon="6.86577">
        <ele>116.285645</ele>
        <time>2011-02-18 14:18:58Z</time>
      </trkpt>
      <trkpt lat="43.44156" lon="6.86584">
        <ele>116.28566</ele>
        <time>2011-02-18 14:19:02Z</time>
      </trkpt>
      <trkpt lat="43.44156" lon="6.86584">
        <ele>116.28566</ele>
        <time>2011-02-18 14:19:06Z</time>
      </trkpt>
      <trkpt lat="43.44154" lon="6.86595">
        <ele>117.285675</ele>
        <time>2011-02-18 14:19:10Z</time>
      </trkpt>
      <trkpt lat="43.44153" lon="6.86598">
        <ele>118.285683</ele>
        <time>2011-02-18 14:19:14Z</time>
      </trkpt>
      <trkpt lat="43.44153" lon="6.86598">
        <ele>118.285683</ele>
        <time>2011-02-18 14:19:18Z</time>
      </trkpt>
      <trkpt lat="43.44153" lon="6.86598">
        <ele>118.285683</ele>
        <time>2011-02-18 14:19:22Z</time>
      </trkpt>
      <trkpt lat="43.4415" lon="6.86607">
        <ele>119.285698</ele>
        <time>2011-02-18 14:19:26Z</time>
      </trkpt>
      <trkpt lat="43.44151" lon="6.8661">
        <ele>117.285706</ele>
        <time>2011-02-18 14:19:30Z</time>
      </trkpt>
      <trkpt lat="43.44151" lon="6.8661">
        <ele>117.285706</ele>
        <time>2011-02-18 14:19:34Z</time>
      </trkpt>
      <trkpt lat="43.44151" lon="6.86613">
        <ele>117.285713</ele>
        <time>2011-02-18 14:19:38Z</time>
      </trkpt>
      <trkpt lat="43.44151" lon="6.86613">
        <ele>117.285713</ele>
        <time>2011-02-18 14:19:42Z</time>
      </trkpt>
      <trkpt lat="43.44152" lon="6.86622">
        <ele>117.285728</ele>
        <time>2011-02-18 14:19:46Z</time>
      </trkpt>
      <trkpt lat="43.44153" lon="6.86626">
        <ele>118.285751</ele>
        <time>2011-02-18 14:19:50Z</time>
      </trkpt>
      <trkpt lat="43.44154" lon="6.86631">
        <ele>118.285759</ele>
        <time>2011-02-18 14:19:54Z</time>
      </trkpt>
      <trkpt lat="43.44159" lon="6.86643">
        <ele>120.285797</ele>
        <time>2011-02-18 14:19:58Z</time>
      </trkpt>
      <trkpt lat="43.44162" lon="6.86649">
        <ele>121.285812</ele>
        <time>2011-02-18 14:20:02Z</time>
      </trkpt>
      <trkpt lat="43.44164" lon="6.86651">
        <ele>122.28582</ele>
        <time>2011-02-18 14:20:06Z</time>
      </trkpt>
      <trkpt lat="43.44164" lon="6.86651">
        <ele>122.28582</ele>
        <time>2011-02-18 14:20:10Z</time>
      </trkpt>
      <trkpt lat="43.44169" lon="6.86657">
        <ele>124.285843</ele>
        <time>2011-02-18 14:20:14Z</time>
      </trkpt>
      <trkpt lat="43.44171" lon="6.8666">
        <ele>125.285851</ele>
        <time>2011-02-18 14:20:18Z</time>
      </trkpt>
      <trkpt lat="43.44172" lon="6.86661">
        <ele>125.285858</ele>
        <time>2011-02-18 14:20:22Z</time>
      </trkpt>
      <trkpt lat="43.44175" lon="6.86665">
        <ele>126.285866</ele>
        <time>2011-02-18 14:20:26Z</time>
      </trkpt>
      <trkpt lat="43.44177" lon="6.86668">
        <ele>126.285881</ele>
        <time>2011-02-18 14:20:30Z</time>
      </trkpt>
      <trkpt lat="43.44179" lon="6.86672">
        <ele>126.285896</ele>
        <time>2011-02-18 14:20:34Z</time>
      </trkpt>
      <trkpt lat="43.44179" lon="6.86676">
        <ele>127.285904</ele>
        <time>2011-02-18 14:20:38Z</time>
      </trkpt>
      <trkpt lat="43.4418" lon="6.86678">
        <ele>128.285904</ele>
        <time>2011-02-18 14:20:42Z</time>
      </trkpt>
      <trkpt lat="43.44181" lon="6.86679">
        <ele>129.285919</ele>
        <time>2011-02-18 14:20:46Z</time>
      </trkpt>
      <trkpt lat="43.44181" lon="6.86679">
        <ele>129.285919</ele>
        <time>2011-02-18 14:20:50Z</time>
      </trkpt>
      <trkpt lat="43.4418" lon="6.86684">
        <ele>128.285919</ele>
        <time>2011-02-18 14:20:54Z</time>
      </trkpt>
      <trkpt lat="43.4418" lon="6.86686">
        <ele>128.285919</ele>
        <time>2011-02-18 14:20:58Z</time>
      </trkpt>
      <trkpt lat="43.44178" lon="6.86699">
        <ele>127.28595</ele>
        <time>2011-02-18 14:21:02Z</time>
      </trkpt>
      <trkpt lat="43.44176" lon="6.8671">
        <ele>127.285973</ele>
        <time>2011-02-18 14:21:06Z</time>
      </trkpt>
      <trkpt lat="43.44175" lon="6.86716">
        <ele>128.28598</ele>
        <time>2011-02-18 14:21:10Z</time>
      </trkpt>
      <trkpt lat="43.44175" lon="6.86716">
        <ele>128.28598</ele>
        <time>2011-02-18 14:21:14Z</time>
      </trkpt>
      <trkpt lat="43.44174" lon="6.86726">
        <ele>130.286011</ele>
        <time>2011-02-18 14:21:18Z</time>
      </trkpt>
      <trkpt lat="43.44173" lon="6.86728">
        <ele>130.286011</ele>
        <time>2011-02-18 14:21:22Z</time>
      </trkpt>
      <trkpt lat="43.44173" lon="6.86728">
        <ele>130.286011</ele>
        <time>2011-02-18 14:21:26Z</time>
      </trkpt>
      <trkpt lat="43.44173" lon="6.86739">
        <ele>131.286041</ele>
        <time>2011-02-18 14:21:30Z</time>
      </trkpt>
      <trkpt lat="43.44173" lon="6.8674">
        <ele>131.286041</ele>
        <time>2011-02-18 14:21:34Z</time>
      </trkpt>
      <trkpt lat="43.44171" lon="6.86748">
        <ele>131.286041</ele>
        <time>2011-02-18 14:21:38Z</time>
      </trkpt>
      <trkpt lat="43.4417" lon="6.8675">
        <ele>131.286057</ele>
        <time>2011-02-18 14:21:42Z</time>
      </trkpt>
      <trkpt lat="43.4417" lon="6.8675">
        <ele>131.286057</ele>
        <time>2011-02-18 14:21:46Z</time>
      </trkpt>
      <trkpt lat="43.4417" lon="6.86763">
        <ele>130.286087</ele>
        <time>2011-02-18 14:21:50Z</time>
      </trkpt>
      <trkpt lat="43.4417" lon="6.86769">
        <ele>130.286102</ele>
        <time>2011-02-18 14:21:54Z</time>
      </trkpt>
      <trkpt lat="43.44169" lon="6.86772">
        <ele>130.286102</ele>
        <time>2011-02-18 14:21:58Z</time>
      </trkpt>
      <trkpt lat="43.44169" lon="6.86776">
        <ele>130.286118</ele>
        <time>2011-02-18 14:22:02Z</time>
      </trkpt>
      <trkpt lat="43.44168" lon="6.86778">
        <ele>130.286118</ele>
        <time>2011-02-18 14:22:06Z</time>
      </trkpt>
      <trkpt lat="43.44167" lon="6.86788">
        <ele>130.286133</ele>
        <time>2011-02-18 14:22:10Z</time>
      </trkpt>
      <trkpt lat="43.44165" lon="6.86794">
        <ele>130.286148</ele>
        <time>2011-02-18 14:22:14Z</time>
      </trkpt>
      <trkpt lat="43.44165" lon="6.86796">
        <ele>130.286163</ele>
        <time>2011-02-18 14:22:18Z</time>
      </trkpt>
      <trkpt lat="43.44164" lon="6.868">
        <ele>130.286163</ele>
        <time>2011-02-18 14:22:22Z</time>
      </trkpt>
      <trkpt lat="43.44162" lon="6.86807">
        <ele>130.286163</ele>
        <time>2011-02-18 14:22:26Z</time>
      </trkpt>
      <trkpt lat="43.44158" lon="6.86814">
        <ele>131.286194</ele>
        <time>2011-02-18 14:22:30Z</time>
      </trkpt>
      <trkpt lat="43.44154" lon="6.86819">
        <ele>131.286194</ele>
        <time>2011-02-18 14:22:34Z</time>
      </trkpt>
      <trkpt lat="43.44153" lon="6.86823">
        <ele>130.286194</ele>
        <time>2011-02-18 14:22:38Z</time>
      </trkpt>
      <trkpt lat="43.44148" lon="6.8683">
        <ele>130.286209</ele>
        <time>2011-02-18 14:22:42Z</time>
      </trkpt>
      <trkpt lat="43.44144" lon="6.86835">
        <ele>131.286209</ele>
        <time>2011-02-18 14:22:46Z</time>
      </trkpt>
      <trkpt lat="43.44141" lon="6.86838">
        <ele>131.286209</ele>
        <time>2011-02-18 14:22:50Z</time>
      </trkpt>
      <trkpt lat="43.44138" lon="6.86841">
        <ele>131.286209</ele>
        <time>2011-02-18 14:22:54Z</time>
      </trkpt>
      <trkpt lat="43.44135" lon="6.86844">
        <ele>131.286224</ele>
        <time>2011-02-18 14:22:58Z</time>
      </trkpt>
      <trkpt lat="43.44134" lon="6.86847">
        <ele>131.286224</ele>
        <time>2011-02-18 14:23:02Z</time>
      </trkpt>
      <trkpt lat="43.44133" lon="6.86848">
        <ele>131.286224</ele>
        <time>2011-02-18 14:23:06Z</time>
      </trkpt>
      <trkpt lat="43.4413" lon="6.86854">
        <ele>129.286224</ele>
        <time>2011-02-18 14:23:10Z</time>
      </trkpt>
      <trkpt lat="43.4413" lon="6.86857">
        <ele>127.28624</ele>
        <time>2011-02-18 14:23:14Z</time>
      </trkpt>
      <trkpt lat="43.44131" lon="6.86859">
        <ele>126.28624</ele>
        <time>2011-02-18 14:23:18Z</time>
      </trkpt>
      <trkpt lat="43.44134" lon="6.8686">
        <ele>126.286247</ele>
        <time>2011-02-18 14:23:22Z</time>
      </trkpt>
      <trkpt lat="43.44136" lon="6.8686">
        <ele>126.286255</ele>
        <time>2011-02-18 14:23:26Z</time>
      </trkpt>
      <trkpt lat="43.44139" lon="6.8686">
        <ele>126.286255</ele>
        <time>2011-02-18 14:23:30Z</time>
      </trkpt>
      <trkpt lat="43.44141" lon="6.86859">
        <ele>126.286255</ele>
        <time>2011-02-18 14:23:34Z</time>
      </trkpt>
      <trkpt lat="43.44144" lon="6.86857">
        <ele>127.286255</ele>
        <time>2011-02-18 14:23:38Z</time>
      </trkpt>
      <trkpt lat="43.44147" lon="6.86856">
        <ele>126.286263</ele>
        <time>2011-02-18 14:23:42Z</time>
      </trkpt>
      <trkpt lat="43.44151" lon="6.86855">
        <ele>125.28627</ele>
        <time>2011-02-18 14:23:46Z</time>
      </trkpt>
      <trkpt lat="43.44153" lon="6.86854">
        <ele>125.286263</ele>
        <time>2011-02-18 14:23:50Z</time>
      </trkpt>
      <trkpt lat="43.44156" lon="6.86852">
        <ele>124.28627</ele>
        <time>2011-02-18 14:23:54Z</time>
      </trkpt>
      <trkpt lat="43.44159" lon="6.86851">
        <ele>124.28627</ele>
        <time>2011-02-18 14:23:58Z</time>
      </trkpt>
      <trkpt lat="43.44161" lon="6.8685">
        <ele>125.28627</ele>
        <time>2011-02-18 14:24:02Z</time>
      </trkpt>
      <trkpt lat="43.44161" lon="6.8685">
        <ele>125.28627</ele>
        <time>2011-02-18 14:24:06Z</time>
      </trkpt>
      <trkpt lat="43.44164" lon="6.86849">
        <ele>127.28627</ele>
        <time>2011-02-18 14:24:10Z</time>
      </trkpt>
      <trkpt lat="43.44169" lon="6.86848">
        <ele>128.286285</ele>
        <time>2011-02-18 14:24:14Z</time>
      </trkpt>
      <trkpt lat="43.44172" lon="6.86847">
        <ele>129.286285</ele>
        <time>2011-02-18 14:24:18Z</time>
      </trkpt>
      <trkpt lat="43.44176" lon="6.86847">
        <ele>130.286285</ele>
        <time>2011-02-18 14:24:22Z</time>
      </trkpt>
      <trkpt lat="43.4418" lon="6.86846">
        <ele>131.286285</ele>
        <time>2011-02-18 14:24:26Z</time>
      </trkpt>
      <trkpt lat="43.44183" lon="6.86846">
        <ele>132.286285</ele>
        <time>2011-02-18 14:24:30Z</time>
      </trkpt>
      <trkpt lat="43.44183" lon="6.86846">
        <ele>132.286285</ele>
        <time>2011-02-18 14:24:34Z</time>
      </trkpt>
      <trkpt lat="43.44183" lon="6.86846">
        <ele>132.286285</ele>
        <time>2011-02-18 14:24:38Z</time>
      </trkpt>
      <trkpt lat="43.4419" lon="6.86843">
        <ele>133.286301</ele>
        <time>2011-02-18 14:24:42Z</time>
      </trkpt>
      <trkpt lat="43.44193" lon="6.86842">
        <ele>134.286301</ele>
        <time>2011-02-18 14:24:46Z</time>
      </trkpt>
      <trkpt lat="43.44196" lon="6.86839">
        <ele>134.286301</ele>
        <time>2011-02-18 14:24:50Z</time>
      </trkpt>
      <trkpt lat="43.44199" lon="6.86837">
        <ele>135.286301</ele>
        <time>2011-02-18 14:24:54Z</time>
      </trkpt>
      <trkpt lat="43.44202" lon="6.86833">
        <ele>136.286285</ele>
        <time>2011-02-18 14:24:58Z</time>
      </trkpt>
      <trkpt lat="43.44205" lon="6.8683">
        <ele>136.286301</ele>
        <time>2011-02-18 14:25:02Z</time>
      </trkpt>
      <trkpt lat="43.44207" lon="6.86828">
        <ele>136.286285</ele>
        <time>2011-02-18 14:25:06Z</time>
      </trkpt>
      <trkpt lat="43.44209" lon="6.86823">
        <ele>137.286285</ele>
        <time>2011-02-18 14:25:10Z</time>
      </trkpt>
      <trkpt lat="43.4421" lon="6.8682">
        <ele>137.286285</ele>
        <time>2011-02-18 14:25:14Z</time>
      </trkpt>
      <trkpt lat="43.44212" lon="6.86817">
        <ele>137.286285</ele>
        <time>2011-02-18 14:25:18Z</time>
      </trkpt>
      <trkpt lat="43.44213" lon="6.86814">
        <ele>138.28627</ele>
        <time>2011-02-18 14:25:22Z</time>
      </trkpt>
      <trkpt lat="43.44214" lon="6.86811">
        <ele>138.286255</ele>
        <time>2011-02-18 14:25:26Z</time>
      </trkpt>
      <trkpt lat="43.44214" lon="6.86808">
        <ele>140.286255</ele>
        <time>2011-02-18 14:25:30Z</time>
      </trkpt>
      <trkpt lat="43.44214" lon="6.86807">
        <ele>140.286255</ele>
        <time>2011-02-18 14:25:34Z</time>
      </trkpt>
      <trkpt lat="43.44219" lon="6.86797">
        <ele>141.28624</ele>
        <time>2011-02-18 14:25:38Z</time>
      </trkpt>
      <trkpt lat="43.4422" lon="6.86795">
        <ele>141.286224</ele>
        <time>2011-02-18 14:25:42Z</time>
      </trkpt>
      <trkpt lat="43.4422" lon="6.86795">
        <ele>141.286224</ele>
        <time>2011-02-18 14:25:46Z</time>
      </trkpt>
      <trkpt lat="43.44223" lon="6.86785">
        <ele>143.286224</ele>
        <time>2011-02-18 14:25:50Z</time>
      </trkpt>
      <trkpt lat="43.44225" lon="6.86782">
        <ele>144.286224</ele>
        <time>2011-02-18 14:25:54Z</time>
      </trkpt>
      <trkpt lat="43.44226" lon="6.8678">
        <ele>145.286209</ele>
        <time>2011-02-18 14:25:58Z</time>
      </trkpt>
      <trkpt lat="43.44227" lon="6.86778">
        <ele>147.286209</ele>
        <time>2011-02-18 14:26:02Z</time>
      </trkpt>
      <trkpt lat="43.44227" lon="6.86777">
        <ele>147.286209</ele>
        <time>2011-02-18 14:26:06Z</time>
      </trkpt>
      <trkpt lat="43.44228" lon="6.86771">
        <ele>148.286194</ele>
        <time>2011-02-18 14:26:10Z</time>
      </trkpt>
      <trkpt lat="43.44228" lon="6.8677">
        <ele>148.286194</ele>
        <time>2011-02-18 14:26:14Z</time>
      </trkpt>
      <trkpt lat="43.44228" lon="6.8677">
        <ele>146.286194</ele>
        <time>2011-02-18 14:26:18Z</time>
      </trkpt>
      <trkpt lat="43.44229" lon="6.8677">
        <ele>146.286194</ele>
        <time>2011-02-18 14:26:22Z</time>
      </trkpt>
      <trkpt lat="43.44229" lon="6.86769">
        <ele>146.286194</ele>
        <time>2011-02-18 14:26:26Z</time>
      </trkpt>
      <trkpt lat="43.4423" lon="6.86765">
        <ele>148.286194</ele>
        <time>2011-02-18 14:26:30Z</time>
      </trkpt>
      <trkpt lat="43.44231" lon="6.86764">
        <ele>148.286179</ele>
        <time>2011-02-18 14:26:34Z</time>
      </trkpt>
      <trkpt lat="43.44232" lon="6.86762">
        <ele>149.286179</ele>
        <time>2011-02-18 14:26:38Z</time>
      </trkpt>
      <trkpt lat="43.44234" lon="6.86761">
        <ele>150.286179</ele>
        <time>2011-02-18 14:26:42Z</time>
      </trkpt>
      <trkpt lat="43.44235" lon="6.86759">
        <ele>151.286179</ele>
        <time>2011-02-18 14:26:46Z</time>
      </trkpt>
      <trkpt lat="43.44235" lon="6.86756">
        <ele>151.286163</ele>
        <time>2011-02-18 14:26:50Z</time>
      </trkpt>
      <trkpt lat="43.44236" lon="6.86752">
        <ele>152.286163</ele>
        <time>2011-02-18 14:26:54Z</time>
      </trkpt>
      <trkpt lat="43.44236" lon="6.8675">
        <ele>152.286163</ele>
        <time>2011-02-18 14:26:58Z</time>
      </trkpt>
      <trkpt lat="43.44237" lon="6.86748">
        <ele>151.286163</ele>
        <time>2011-02-18 14:27:02Z</time>
      </trkpt>
      <trkpt lat="43.44237" lon="6.86748">
        <ele>152.286163</ele>
        <time>2011-02-18 14:27:06Z</time>
      </trkpt>
      <trkpt lat="43.44238" lon="6.86747">
        <ele>152.286163</ele>
        <time>2011-02-18 14:27:10Z</time>
      </trkpt>
      <trkpt lat="43.44239" lon="6.86747">
        <ele>152.286163</ele>
        <time>2011-02-18 14:27:14Z</time>
      </trkpt>
      <trkpt lat="43.44241" lon="6.86747">
        <ele>153.286163</ele>
        <time>2011-02-18 14:27:18Z</time>
      </trkpt>
      <trkpt lat="43.44241" lon="6.86747">
        <ele>153.286163</ele>
        <time>2011-02-18 14:27:22Z</time>
      </trkpt>
      <trkpt lat="43.44241" lon="6.86747">
        <ele>153.286163</ele>
        <time>2011-02-18 14:27:26Z</time>
      </trkpt>
      <trkpt lat="43.4425" lon="6.86751">
        <ele>153.286179</ele>
        <time>2011-02-18 14:27:30Z</time>
      </trkpt>
      <trkpt lat="43.4425" lon="6.86751">
        <ele>153.286179</ele>
        <time>2011-02-18 14:27:34Z</time>
      </trkpt>
      <trkpt lat="43.4425" lon="6.86751">
        <ele>153.286179</ele>
        <time>2011-02-18 14:27:38Z</time>
      </trkpt>
      <trkpt lat="43.44254" lon="6.86761">
        <ele>155.286224</ele>
        <time>2011-02-18 14:27:42Z</time>
      </trkpt>
      <trkpt lat="43.44254" lon="6.86765">
        <ele>155.286224</ele>
        <time>2011-02-18 14:27:46Z</time>
      </trkpt>
      <trkpt lat="43.44254" lon="6.86768">
        <ele>155.286224</ele>
        <time>2011-02-18 14:27:50Z</time>
      </trkpt>
      <trkpt lat="43.44254" lon="6.86768">
        <ele>155.286224</ele>
        <time>2011-02-18 14:27:54Z</time>
      </trkpt>
      <trkpt lat="43.44254" lon="6.86777">
        <ele>154.286255</ele>
        <time>2011-02-18 14:27:58Z</time>
      </trkpt>
      <trkpt lat="43.44254" lon="6.86784">
        <ele>153.28627</ele>
        <time>2011-02-18 14:28:02Z</time>
      </trkpt>
      <trkpt lat="43.44254" lon="6.86789">
        <ele>153.28627</ele>
        <time>2011-02-18 14:28:06Z</time>
      </trkpt>
      <trkpt lat="43.44253" lon="6.86791">
        <ele>153.286285</ele>
        <time>2011-02-18 14:28:10Z</time>
      </trkpt>
      <trkpt lat="43.44253" lon="6.86798">
        <ele>152.286285</ele>
        <time>2011-02-18 14:28:14Z</time>
      </trkpt>
      <trkpt lat="43.44252" lon="6.86805">
        <ele>152.286316</ele>
        <time>2011-02-18 14:28:18Z</time>
      </trkpt>
      <trkpt lat="43.44252" lon="6.86811">
        <ele>152.286316</ele>
        <time>2011-02-18 14:28:22Z</time>
      </trkpt>
      <trkpt lat="43.44251" lon="6.86814">
        <ele>152.286331</ele>
        <time>2011-02-18 14:28:26Z</time>
      </trkpt>
      <trkpt lat="43.44251" lon="6.86821">
        <ele>152.286346</ele>
        <time>2011-02-18 14:28:30Z</time>
      </trkpt>
      <trkpt lat="43.44252" lon="6.86824">
        <ele>151.286346</ele>
        <time>2011-02-18 14:28:34Z</time>
      </trkpt>
      <trkpt lat="43.44252" lon="6.86828">
        <ele>151.286362</ele>
        <time>2011-02-18 14:28:38Z</time>
      </trkpt>
      <trkpt lat="43.44252" lon="6.86832">
        <ele>151.286377</ele>
        <time>2011-02-18 14:28:42Z</time>
      </trkpt>
      <trkpt lat="43.44253" lon="6.86836">
        <ele>151.286377</ele>
        <time>2011-02-18 14:28:46Z</time>
      </trkpt>
      <trkpt lat="43.44252" lon="6.86841">
        <ele>152.286392</ele>
        <time>2011-02-18 14:28:50Z</time>
      </trkpt>
      <trkpt lat="43.44251" lon="6.86847">
        <ele>152.286407</ele>
        <time>2011-02-18 14:28:54Z</time>
      </trkpt>
      <trkpt lat="43.4425" lon="6.8685">
        <ele>153.286407</ele>
        <time>2011-02-18 14:28:58Z</time>
      </trkpt>
      <trkpt lat="43.4425" lon="6.8685">
        <ele>153.286407</ele>
        <time>2011-02-18 14:29:02Z</time>
      </trkpt>
      <trkpt lat="43.44248" lon="6.86855">
        <ele>151.286423</ele>
        <time>2011-02-18 14:29:06Z</time>
      </trkpt>
      <trkpt lat="43.44247" lon="6.86859">
        <ele>150.286438</ele>
        <time>2011-02-18 14:29:10Z</time>
      </trkpt>
      <trkpt lat="43.44246" lon="6.86862">
        <ele>150.286438</ele>
        <time>2011-02-18 14:29:14Z</time>
      </trkpt>
      <trkpt lat="43.44245" lon="6.86865">
        <ele>150.286438</ele>
        <time>2011-02-18 14:29:18Z</time>
      </trkpt>
      <trkpt lat="43.44245" lon="6.86865">
        <ele>150.286438</ele>
        <time>2011-02-18 14:29:22Z</time>
      </trkpt>
      <trkpt lat="43.4424" lon="6.86872">
        <ele>151.286438</ele>
        <time>2011-02-18 14:29:26Z</time>
      </trkpt>
      <trkpt lat="43.44237" lon="6.86875">
        <ele>150.286438</ele>
        <time>2011-02-18 14:29:30Z</time>
      </trkpt>
      <trkpt lat="43.44235" lon="6.86877">
        <ele>149.286453</ele>
        <time>2011-02-18 14:29:34Z</time>
      </trkpt>
      <trkpt lat="43.44235" lon="6.86877">
        <ele>149.286453</ele>
        <time>2011-02-18 14:29:38Z</time>
      </trkpt>
      <trkpt lat="43.4423" lon="6.8688">
        <ele>147.286438</ele>
        <time>2011-02-18 14:29:42Z</time>
      </trkpt>
      <trkpt lat="43.44228" lon="6.8688">
        <ele>147.286438</ele>
        <time>2011-02-18 14:29:46Z</time>
      </trkpt>
      <trkpt lat="43.44225" lon="6.8688">
        <ele>147.286438</ele>
        <time>2011-02-18 14:29:50Z</time>
      </trkpt>
      <trkpt lat="43.44222" lon="6.86877">
        <ele>147.286423</ele>
        <time>2011-02-18 14:29:54Z</time>
      </trkpt>
      <trkpt lat="43.44221" lon="6.86877">
        <ele>148.286423</ele>
        <time>2011-02-18 14:29:58Z</time>
      </trkpt>
      <trkpt lat="43.4422" lon="6.86878">
        <ele>151.286423</ele>
        <time>2011-02-18 14:30:02Z</time>
      </trkpt>
      <trkpt lat="43.44219" lon="6.86879">
        <ele>152.286438</ele>
        <time>2011-02-18 14:30:06Z</time>
      </trkpt>
      <trkpt lat="43.44219" lon="6.86879">
        <ele>152.286438</ele>
        <time>2011-02-18 14:30:10Z</time>
      </trkpt>
      <trkpt lat="43.44217" lon="6.86881">
        <ele>153.286438</ele>
        <time>2011-02-18 14:30:14Z</time>
      </trkpt>
      <trkpt lat="43.44217" lon="6.86881">
        <ele>153.286438</ele>
        <time>2011-02-18 14:30:18Z</time>
      </trkpt>
      <trkpt lat="43.44217" lon="6.86881">
        <ele>153.286438</ele>
        <time>2011-02-18 14:30:22Z</time>
      </trkpt>
      <trkpt lat="43.44217" lon="6.86881">
        <ele>153.286438</ele>
        <time>2011-02-18 14:30:26Z</time>
      </trkpt>
      <trkpt lat="43.44217" lon="6.86881">
        <ele>153.286438</ele>
        <time>2011-02-18 14:30:30Z</time>
      </trkpt>
      <trkpt lat="43.44216" lon="6.86883">
        <ele>159.286438</ele>
        <time>2011-02-18 14:30:34Z</time>
      </trkpt>
      <trkpt lat="43.44216" lon="6.86883">
        <ele>159.286438</ele>
        <time>2011-02-18 14:30:38Z</time>
      </trkpt>
      <trkpt lat="43.44215" lon="6.86881">
        <ele>160.286438</ele>
        <time>2011-02-18 14:30:42Z</time>
      </trkpt>
      <trkpt lat="43.44215" lon="6.8688">
        <ele>160.286423</ele>
        <time>2011-02-18 14:30:46Z</time>
      </trkpt>
      <trkpt lat="43.44215" lon="6.8688">
        <ele>160.286423</ele>
        <time>2011-02-18 14:30:50Z</time>
      </trkpt>
      <trkpt lat="43.44215" lon="6.8688">
        <ele>160.286423</ele>
        <time>2011-02-18 14:30:54Z</time>
      </trkpt>
      <trkpt lat="43.44215" lon="6.8688">
        <ele>160.286423</ele>
        <time>2011-02-18 14:30:58Z</time>
      </trkpt>
      <trkpt lat="43.44214" lon="6.86878">
        <ele>165.286407</ele>
        <time>2011-02-18 14:31:02Z</time>
      </trkpt>
      <trkpt lat="43.44214" lon="6.86878">
        <ele>165.286407</ele>
        <time>2011-02-18 14:31:06Z</time>
      </trkpt>
      <trkpt lat="43.44213" lon="6.86878">
        <ele>166.286407</ele>
        <time>2011-02-18 14:31:10Z</time>
      </trkpt>
      <trkpt lat="43.44213" lon="6.86878">
        <ele>166.286407</ele>
        <time>2011-02-18 14:31:14Z</time>
      </trkpt>
      <trkpt lat="43.44212" lon="6.86879">
        <ele>166.286407</ele>
        <time>2011-02-18 14:31:18Z</time>
      </trkpt>
      <trkpt lat="43.44212" lon="6.8688">
        <ele>166.286407</ele>
        <time>2011-02-18 14:31:22Z</time>
      </trkpt>
      <trkpt lat="43.44212" lon="6.8688">
        <ele>166.286407</ele>
        <time>2011-02-18 14:31:26Z</time>
      </trkpt>
      <trkpt lat="43.44212" lon="6.8688">
        <ele>166.286423</ele>
        <time>2011-02-18 14:31:30Z</time>
      </trkpt>
      <trkpt lat="43.44212" lon="6.86879">
        <ele>167.286423</ele>
        <time>2011-02-18 14:31:34Z</time>
      </trkpt>
      <trkpt lat="43.44212" lon="6.86879">
        <ele>167.286423</ele>
        <time>2011-02-18 14:31:38Z</time>
      </trkpt>
      <trkpt lat="43.44212" lon="6.86879">
        <ele>169.286407</ele>
        <time>2011-02-18 14:31:42Z</time>
      </trkpt>
      <trkpt lat="43.44212" lon="6.86879">
        <ele>169.286407</ele>
        <time>2011-02-18 14:31:46Z</time>
      </trkpt>
      <trkpt lat="43.44213" lon="6.86879">
        <ele>171.286407</ele>
        <time>2011-02-18 14:31:50Z</time>
      </trkpt>
      <trkpt lat="43.44214" lon="6.86879">
        <ele>171.286407</ele>
        <time>2011-02-18 14:31:54Z</time>
      </trkpt>
      <trkpt lat="43.44214" lon="6.86879">
        <ele>171.286407</ele>
        <time>2011-02-18 14:31:58Z</time>
      </trkpt>
      <trkpt lat="43.44214" lon="6.86878">
        <ele>174.286407</ele>
        <time>2011-02-18 14:32:02Z</time>
      </trkpt>
      <trkpt lat="43.44214" lon="6.86878">
        <ele>174.286407</ele>
        <time>2011-02-18 14:32:06Z</time>
      </trkpt>
      <trkpt lat="43.44214" lon="6.86877">
        <ele>174.286407</ele>
        <time>2011-02-18 14:32:10Z</time>
      </trkpt>
      <trkpt lat="43.44214" lon="6.86877">
        <ele>174.286407</ele>
        <time>2011-02-18 14:32:14Z</time>
      </trkpt>
      <trkpt lat="43.44214" lon="6.86877">
        <ele>174.286407</ele>
        <time>2011-02-18 14:32:18Z</time>
      </trkpt>
      <trkpt lat="43.44214" lon="6.86877">
        <ele>176.286407</ele>
        <time>2011-02-18 14:32:22Z</time>
      </trkpt>
      <trkpt lat="43.44214" lon="6.86877">
        <ele>176.286407</ele>
        <time>2011-02-18 14:32:26Z</time>
      </trkpt>
      <trkpt lat="43.44213" lon="6.86877">
        <ele>176.286407</ele>
        <time>2011-02-18 14:32:30Z</time>
      </trkpt>
      <trkpt lat="43.44213" lon="6.86877">
        <ele>176.286407</ele>
        <time>2011-02-18 14:32:34Z</time>
      </trkpt>
      <trkpt lat="43.44212" lon="6.86876">
        <ele>176.286407</ele>
        <time>2011-02-18 14:32:38Z</time>
      </trkpt>
      <trkpt lat="43.44212" lon="6.86876">
        <ele>176.286407</ele>
        <time>2011-02-18 14:32:42Z</time>
      </trkpt>
      <trkpt lat="43.44211" lon="6.86876">
        <ele>177.286407</ele>
        <time>2011-02-18 14:32:46Z</time>
      </trkpt>
      <trkpt lat="43.4421" lon="6.86876">
        <ele>178.286407</ele>
        <time>2011-02-18 14:32:50Z</time>
      </trkpt>
      <trkpt lat="43.44209" lon="6.86875">
        <ele>178.286407</ele>
        <time>2011-02-18 14:32:54Z</time>
      </trkpt>
      <trkpt lat="43.44209" lon="6.86875">
        <ele>178.286407</ele>
        <time>2011-02-18 14:32:58Z</time>
      </trkpt>
      <trkpt lat="43.44208" lon="6.86878">
        <ele>181.286407</ele>
        <time>2011-02-18 14:33:02Z</time>
      </trkpt>
      <trkpt lat="43.44208" lon="6.86878">
        <ele>181.286407</ele>
        <time>2011-02-18 14:33:06Z</time>
      </trkpt>
      <trkpt lat="43.44208" lon="6.86879">
        <ele>182.286407</ele>
        <time>2011-02-18 14:33:10Z</time>
      </trkpt>
      <trkpt lat="43.44208" lon="6.86879">
        <ele>182.286407</ele>
        <time>2011-02-18 14:33:14Z</time>
      </trkpt>
      <trkpt lat="43.44208" lon="6.8688">
        <ele>183.286407</ele>
        <time>2011-02-18 14:33:18Z</time>
      </trkpt>
      <trkpt lat="43.44208" lon="6.8688">
        <ele>183.286407</ele>
        <time>2011-02-18 14:33:22Z</time>
      </trkpt>
      <trkpt lat="43.44208" lon="6.86879">
        <ele>183.286407</ele>
        <time>2011-02-18 14:33:26Z</time>
      </trkpt>
      <trkpt lat="43.44207" lon="6.86878">
        <ele>182.286407</ele>
        <time>2011-02-18 14:33:30Z</time>
      </trkpt>
      <trkpt lat="43.44207" lon="6.86878">
        <ele>182.286407</ele>
        <time>2011-02-18 14:33:34Z</time>
      </trkpt>
      <trkpt lat="43.44207" lon="6.86878">
        <ele>182.286407</ele>
        <time>2011-02-18 14:33:38Z</time>
      </trkpt>
      <trkpt lat="43.44207" lon="6.86878">
        <ele>182.286407</ele>
        <time>2011-02-18 14:33:42Z</time>
      </trkpt>
      <trkpt lat="43.44206" lon="6.86878">
        <ele>178.286407</ele>
        <time>2011-02-18 14:33:46Z</time>
      </trkpt>
      <trkpt lat="43.44206" lon="6.86878">
        <ele>178.286407</ele>
        <time>2011-02-18 14:33:50Z</time>
      </trkpt>
      <trkpt lat="43.44207" lon="6.86879">
        <ele>174.286407</ele>
        <time>2011-02-18 14:33:54Z</time>
      </trkpt>
      <trkpt lat="43.44207" lon="6.86879">
        <ele>174.286407</ele>
        <time>2011-02-18 14:33:58Z</time>
      </trkpt>
      <trkpt lat="43.44207" lon="6.86881">
        <ele>172.286407</ele>
        <time>2011-02-18 14:34:02Z</time>
      </trkpt>
      <trkpt lat="43.44207" lon="6.86882">
        <ele>172.286407</ele>
        <time>2011-02-18 14:34:06Z</time>
      </trkpt>
      <trkpt lat="43.44207" lon="6.86878">
        <ele>172.286407</ele>
        <time>2011-02-18 14:34:10Z</time>
      </trkpt>
      <trkpt lat="43.44207" lon="6.86878">
        <ele>172.286407</ele>
        <time>2011-02-18 14:34:14Z</time>
      </trkpt>
      <trkpt lat="43.44207" lon="6.86878">
        <ele>172.286407</ele>
        <time>2011-02-18 14:34:18Z</time>
      </trkpt>
      <trkpt lat="43.44208" lon="6.86879">
        <ele>171.286407</ele>
        <time>2011-02-18 14:34:22Z</time>
      </trkpt>
      <trkpt lat="43.44208" lon="6.86879">
        <ele>169.286407</ele>
        <time>2011-02-18 14:34:26Z</time>
      </trkpt>
      <trkpt lat="43.44208" lon="6.86879">
        <ele>168.286407</ele>
        <time>2011-02-18 14:34:30Z</time>
      </trkpt>
      <trkpt lat="43.44208" lon="6.86879">
        <ele>168.286407</ele>
        <time>2011-02-18 14:34:34Z</time>
      </trkpt>
      <trkpt lat="43.44209" lon="6.8688">
        <ele>166.286407</ele>
        <time>2011-02-18 14:34:38Z</time>
      </trkpt>
      <trkpt lat="43.44209" lon="6.86882">
        <ele>166.286423</ele>
        <time>2011-02-18 14:34:42Z</time>
      </trkpt>
      <trkpt lat="43.44212" lon="6.86886">
        <ele>166.286438</ele>
        <time>2011-02-18 14:34:46Z</time>
      </trkpt>
      <trkpt lat="43.44215" lon="6.86889">
        <ele>167.286438</ele>
        <time>2011-02-18 14:34:50Z</time>
      </trkpt>
      <trkpt lat="43.44218" lon="6.8689">
        <ele>168.286453</ele>
        <time>2011-02-18 14:34:54Z</time>
      </trkpt>
      <trkpt lat="43.44218" lon="6.8689">
        <ele>168.286453</ele>
        <time>2011-02-18 14:34:58Z</time>
      </trkpt>
      <trkpt lat="43.44218" lon="6.8689">
        <ele>168.286453</ele>
        <time>2011-02-18 14:35:02Z</time>
      </trkpt>
      <trkpt lat="43.44227" lon="6.86889">
        <ele>172.286469</ele>
        <time>2011-02-18 14:35:06Z</time>
      </trkpt>
      <trkpt lat="43.44231" lon="6.86888">
        <ele>173.286469</ele>
        <time>2011-02-18 14:35:10Z</time>
      </trkpt>
      <trkpt lat="43.44234" lon="6.86887">
        <ele>174.286469</ele>
        <time>2011-02-18 14:35:14Z</time>
      </trkpt>
      <trkpt lat="43.44239" lon="6.86886">
        <ele>174.286469</ele>
        <time>2011-02-18 14:35:18Z</time>
      </trkpt>
      <trkpt lat="43.44244" lon="6.86884">
        <ele>175.286469</ele>
        <time>2011-02-18 14:35:22Z</time>
      </trkpt>
      <trkpt lat="43.44251" lon="6.86881">
        <ele>175.286484</ele>
        <time>2011-02-18 14:35:26Z</time>
      </trkpt>
      <trkpt lat="43.44255" lon="6.86876">
        <ele>176.286484</ele>
        <time>2011-02-18 14:35:30Z</time>
      </trkpt>
      <trkpt lat="43.44259" lon="6.86873">
        <ele>176.286469</ele>
        <time>2011-02-18 14:35:34Z</time>
      </trkpt>
      <trkpt lat="43.44265" lon="6.86867">
        <ele>177.286469</ele>
        <time>2011-02-18 14:35:38Z</time>
      </trkpt>
      <trkpt lat="43.44268" lon="6.86864">
        <ele>176.286469</ele>
        <time>2011-02-18 14:35:42Z</time>
      </trkpt>
      <trkpt lat="43.4427" lon="6.86861">
        <ele>176.286469</ele>
        <time>2011-02-18 14:35:46Z</time>
      </trkpt>
      <trkpt lat="43.44273" lon="6.86857">
        <ele>176.286469</ele>
        <time>2011-02-18 14:35:50Z</time>
      </trkpt>
      <trkpt lat="43.44273" lon="6.86853">
        <ele>177.286453</ele>
        <time>2011-02-18 14:35:54Z</time>
      </trkpt>
      <trkpt lat="43.44274" lon="6.86851">
        <ele>177.286453</ele>
        <time>2011-02-18 14:35:58Z</time>
      </trkpt>
      <trkpt lat="43.44275" lon="6.86844">
        <ele>177.286438</ele>
        <time>2011-02-18 14:36:02Z</time>
      </trkpt>
      <trkpt lat="43.44277" lon="6.86838">
        <ele>177.286423</ele>
        <time>2011-02-18 14:36:06Z</time>
      </trkpt>
      <trkpt lat="43.44278" lon="6.86834">
        <ele>178.286407</ele>
        <time>2011-02-18 14:36:10Z</time>
      </trkpt>
      <trkpt lat="43.44278" lon="6.86828">
        <ele>177.286407</ele>
        <time>2011-02-18 14:36:14Z</time>
      </trkpt>
      <trkpt lat="43.44279" lon="6.86822">
        <ele>177.286392</ele>
        <time>2011-02-18 14:36:18Z</time>
      </trkpt>
      <trkpt lat="43.4428" lon="6.86821">
        <ele>177.286392</ele>
        <time>2011-02-18 14:36:22Z</time>
      </trkpt>
      <trkpt lat="43.44281" lon="6.86814">
        <ele>179.286377</ele>
        <time>2011-02-18 14:36:26Z</time>
      </trkpt>
      <trkpt lat="43.44281" lon="6.86811">
        <ele>178.286377</ele>
        <time>2011-02-18 14:36:30Z</time>
      </trkpt>
      <trkpt lat="43.44281" lon="6.86809">
        <ele>178.286377</ele>
        <time>2011-02-18 14:36:34Z</time>
      </trkpt>
      <trkpt lat="43.44282" lon="6.86803">
        <ele>178.286346</ele>
        <time>2011-02-18 14:36:38Z</time>
      </trkpt>
      <trkpt lat="43.44282" lon="6.86803">
        <ele>178.286346</ele>
        <time>2011-02-18 14:36:42Z</time>
      </trkpt>
      <trkpt lat="43.44282" lon="6.86797">
        <ele>177.286346</ele>
        <time>2011-02-18 14:36:46Z</time>
      </trkpt>
      <trkpt lat="43.44282" lon="6.86797">
        <ele>177.286346</ele>
        <time>2011-02-18 14:36:50Z</time>
      </trkpt>
      <trkpt lat="43.44282" lon="6.86797">
        <ele>177.286346</ele>
        <time>2011-02-18 14:36:54Z</time>
      </trkpt>
      <trkpt lat="43.44282" lon="6.86797">
        <ele>177.286346</ele>
        <time>2011-02-18 14:36:58Z</time>
      </trkpt>
      <trkpt lat="43.44287" lon="6.86785">
        <ele>178.286316</ele>
        <time>2011-02-18 14:37:02Z</time>
      </trkpt>
      <trkpt lat="43.44289" lon="6.86784">
        <ele>178.286316</ele>
        <time>2011-02-18 14:37:06Z</time>
      </trkpt>
      <trkpt lat="43.44292" lon="6.86785">
        <ele>178.286331</ele>
        <time>2011-02-18 14:37:10Z</time>
      </trkpt>
      <trkpt lat="43.44295" lon="6.86788">
        <ele>178.286346</ele>
        <time>2011-02-18 14:37:14Z</time>
      </trkpt>
      <trkpt lat="43.44297" lon="6.8679">
        <ele>177.286346</ele>
        <time>2011-02-18 14:37:18Z</time>
      </trkpt>
      <trkpt lat="43.44298" lon="6.86792">
        <ele>177.286346</ele>
        <time>2011-02-18 14:37:22Z</time>
      </trkpt>
      <trkpt lat="43.44298" lon="6.86792">
        <ele>177.286346</ele>
        <time>2011-02-18 14:37:26Z</time>
      </trkpt>
      <trkpt lat="43.44301" lon="6.86805">
        <ele>178.286377</ele>
        <time>2011-02-18 14:37:30Z</time>
      </trkpt>
      <trkpt lat="43.44302" lon="6.86809">
        <ele>178.286392</ele>
        <time>2011-02-18 14:37:34Z</time>
      </trkpt>
      <trkpt lat="43.44303" lon="6.86811">
        <ele>178.286407</ele>
        <time>2011-02-18 14:37:38Z</time>
      </trkpt>
      <trkpt lat="43.44304" lon="6.86817">
        <ele>178.286423</ele>
        <time>2011-02-18 14:37:42Z</time>
      </trkpt>
      <trkpt lat="43.44306" lon="6.86825">
        <ele>178.286438</ele>
        <time>2011-02-18 14:37:46Z</time>
      </trkpt>
      <trkpt lat="43.44307" lon="6.86828">
        <ele>178.286438</ele>
        <time>2011-02-18 14:37:50Z</time>
      </trkpt>
      <trkpt lat="43.44307" lon="6.86828">
        <ele>178.286438</ele>
        <time>2011-02-18 14:37:54Z</time>
      </trkpt>
      <trkpt lat="43.44309" lon="6.86834">
        <ele>178.286469</ele>
        <time>2011-02-18 14:37:58Z</time>
      </trkpt>
      <trkpt lat="43.44311" lon="6.8684">
        <ele>177.286484</ele>
        <time>2011-02-18 14:38:02Z</time>
      </trkpt>
      <trkpt lat="43.44311" lon="6.86841">
        <ele>177.286484</ele>
        <time>2011-02-18 14:38:06Z</time>
      </trkpt>
      <trkpt lat="43.44312" lon="6.86851">
        <ele>178.286499</ele>
        <time>2011-02-18 14:38:10Z</time>
      </trkpt>
      <trkpt lat="43.44312" lon="6.86854">
        <ele>178.286514</ele>
        <time>2011-02-18 14:38:14Z</time>
      </trkpt>
      <trkpt lat="43.44313" lon="6.86858">
        <ele>177.28653</ele>
        <time>2011-02-18 14:38:18Z</time>
      </trkpt>
      <trkpt lat="43.44312" lon="6.86859">
        <ele>177.28653</ele>
        <time>2011-02-18 14:38:22Z</time>
      </trkpt>
      <trkpt lat="43.44312" lon="6.86864">
        <ele>177.28653</ele>
        <time>2011-02-18 14:38:26Z</time>
      </trkpt>
      <trkpt lat="43.44311" lon="6.86869">
        <ele>177.286545</ele>
        <time>2011-02-18 14:38:30Z</time>
      </trkpt>
      <trkpt lat="43.44311" lon="6.86874">
        <ele>178.28656</ele>
        <time>2011-02-18 14:38:34Z</time>
      </trkpt>
      <trkpt lat="43.44311" lon="6.86876">
        <ele>178.28656</ele>
        <time>2011-02-18 14:38:38Z</time>
      </trkpt>
      <trkpt lat="43.44312" lon="6.86882">
        <ele>178.286575</ele>
        <time>2011-02-18 14:38:42Z</time>
      </trkpt>
      <trkpt lat="43.44313" lon="6.86885">
        <ele>179.286591</ele>
        <time>2011-02-18 14:38:46Z</time>
      </trkpt>
      <trkpt lat="43.44315" lon="6.86891">
        <ele>179.286606</ele>
        <time>2011-02-18 14:38:50Z</time>
      </trkpt>
      <trkpt lat="43.44315" lon="6.86891">
        <ele>179.286606</ele>
        <time>2011-02-18 14:38:54Z</time>
      </trkpt>
      <trkpt lat="43.44315" lon="6.86891">
        <ele>179.286606</ele>
        <time>2011-02-18 14:38:58Z</time>
      </trkpt>
      <trkpt lat="43.44327" lon="6.86896">
        <ele>180.286636</ele>
        <time>2011-02-18 14:39:02Z</time>
      </trkpt>
      <trkpt lat="43.44332" lon="6.86896">
        <ele>181.286636</ele>
        <time>2011-02-18 14:39:06Z</time>
      </trkpt>
      <trkpt lat="43.44334" lon="6.86896">
        <ele>183.286652</ele>
        <time>2011-02-18 14:39:10Z</time>
      </trkpt>
      <trkpt lat="43.44334" lon="6.86895">
        <ele>183.286652</ele>
        <time>2011-02-18 14:39:14Z</time>
      </trkpt>
      <trkpt lat="43.44332" lon="6.86894">
        <ele>185.286636</ele>
        <time>2011-02-18 14:39:18Z</time>
      </trkpt>
      <trkpt lat="43.44331" lon="6.86891">
        <ele>186.286621</ele>
        <time>2011-02-18 14:39:22Z</time>
      </trkpt>
      <trkpt lat="43.44331" lon="6.86891">
        <ele>186.286621</ele>
        <time>2011-02-18 14:39:26Z</time>
      </trkpt>
      <trkpt lat="43.4433" lon="6.86887">
        <ele>189.286621</ele>
        <time>2011-02-18 14:39:30Z</time>
      </trkpt>
      <trkpt lat="43.44331" lon="6.86884">
        <ele>190.286621</ele>
        <time>2011-02-18 14:39:34Z</time>
      </trkpt>
      <trkpt lat="43.44332" lon="6.86881">
        <ele>191.286606</ele>
        <time>2011-02-18 14:39:38Z</time>
      </trkpt>
      <trkpt lat="43.44334" lon="6.86872">
        <ele>193.286591</ele>
        <time>2011-02-18 14:39:42Z</time>
      </trkpt>
      <trkpt lat="43.44334" lon="6.86872">
        <ele>193.286591</ele>
        <time>2011-02-18 14:39:46Z</time>
      </trkpt>
      <trkpt lat="43.44334" lon="6.86872">
        <ele>193.286591</ele>
        <time>2011-02-18 14:39:50Z</time>
      </trkpt>
      <trkpt lat="43.44334" lon="6.86872">
        <ele>193.286591</ele>
        <time>2011-02-18 14:39:54Z</time>
      </trkpt>
      <trkpt lat="43.44334" lon="6.86872">
        <ele>193.286591</ele>
        <time>2011-02-18 14:39:58Z</time>
      </trkpt>
      <trkpt lat="43.44338" lon="6.86855">
        <ele>199.28656</ele>
        <time>2011-02-18 14:40:02Z</time>
      </trkpt>
      <trkpt lat="43.44339" lon="6.86849">
        <ele>202.286545</ele>
        <time>2011-02-18 14:40:06Z</time>
      </trkpt>
      <trkpt lat="43.44339" lon="6.86846">
        <ele>203.28653</ele>
        <time>2011-02-18 14:40:10Z</time>
      </trkpt>
      <trkpt lat="43.44339" lon="6.86846">
        <ele>203.28653</ele>
        <time>2011-02-18 14:40:14Z</time>
      </trkpt>
      <trkpt lat="43.44339" lon="6.86846">
        <ele>203.28653</ele>
        <time>2011-02-18 14:40:18Z</time>
      </trkpt>
      <trkpt lat="43.4434" lon="6.86829">
        <ele>205.286499</ele>
        <time>2011-02-18 14:40:22Z</time>
      </trkpt>
      <trkpt lat="43.4434" lon="6.86829">
        <ele>205.286499</ele>
        <time>2011-02-18 14:40:26Z</time>
      </trkpt>
      <trkpt lat="43.44341" lon="6.86822">
        <ele>209.286499</ele>
        <time>2011-02-18 14:40:30Z</time>
      </trkpt>
      <trkpt lat="43.44341" lon="6.86822">
        <ele>209.286484</ele>
        <time>2011-02-18 14:40:34Z</time>
      </trkpt>
      <trkpt lat="43.44341" lon="6.86816">
        <ele>210.286469</ele>
        <time>2011-02-18 14:40:38Z</time>
      </trkpt>
      <trkpt lat="43.44341" lon="6.86814">
        <ele>211.286469</ele>
        <time>2011-02-18 14:40:42Z</time>
      </trkpt>
      <trkpt lat="43.4434" lon="6.8681">
        <ele>214.286469</ele>
        <time>2011-02-18 14:40:46Z</time>
      </trkpt>
      <trkpt lat="43.44339" lon="6.86805">
        <ele>218.286438</ele>
        <time>2011-02-18 14:40:50Z</time>
      </trkpt>
      <trkpt lat="43.44338" lon="6.86802">
        <ele>222.286438</ele>
        <time>2011-02-18 14:40:54Z</time>
      </trkpt>
      <trkpt lat="43.44337" lon="6.86798">
        <ele>223.286423</ele>
        <time>2011-02-18 14:40:58Z</time>
      </trkpt>
      <trkpt lat="43.44335" lon="6.86796">
        <ele>222.286423</ele>
        <time>2011-02-18 14:41:02Z</time>
      </trkpt>
      <trkpt lat="43.44334" lon="6.86794">
        <ele>221.286407</ele>
        <time>2011-02-18 14:41:06Z</time>
      </trkpt>
      <trkpt lat="43.44333" lon="6.86792">
        <ele>221.286407</ele>
        <time>2011-02-18 14:41:10Z</time>
      </trkpt>
      <trkpt lat="43.4433" lon="6.86786">
        <ele>222.286392</ele>
        <time>2011-02-18 14:41:14Z</time>
      </trkpt>
      <trkpt lat="43.44328" lon="6.86785">
        <ele>224.286377</ele>
        <time>2011-02-18 14:41:18Z</time>
      </trkpt>
      <trkpt lat="43.44328" lon="6.86784">
        <ele>226.286377</ele>
        <time>2011-02-18 14:41:22Z</time>
      </trkpt>
      <trkpt lat="43.44328" lon="6.86784">
        <ele>226.286377</ele>
        <time>2011-02-18 14:41:26Z</time>
      </trkpt>
      <trkpt lat="43.44324" lon="6.86785">
        <ele>230.286377</ele>
        <time>2011-02-18 14:41:30Z</time>
      </trkpt>
      <trkpt lat="43.44323" lon="6.86786">
        <ele>232.286377</ele>
        <time>2011-02-18 14:41:34Z</time>
      </trkpt>
      <trkpt lat="43.44323" lon="6.86786">
        <ele>234.286377</ele>
        <time>2011-02-18 14:41:38Z</time>
      </trkpt>
      <trkpt lat="43.44353" lon="6.86752">
        <ele>253.286346</ele>
        <time>2011-02-18 14:46:14Z</time>
      </trkpt>
      <trkpt lat="43.44353" lon="6.86752">
        <ele>253.286346</ele>
        <time>2011-02-18 14:46:18Z</time>
      </trkpt>
      <trkpt lat="43.44353" lon="6.86752">
        <ele>253.286346</ele>
        <time>2011-02-18 14:46:22Z</time>
      </trkpt>
      <trkpt lat="43.44357" lon="6.86743">
        <ele>256.286316</ele>
        <time>2011-02-18 14:46:26Z</time>
      </trkpt>
      <trkpt lat="43.44357" lon="6.86741">
        <ele>256.286316</ele>
        <time>2011-02-18 14:46:30Z</time>
      </trkpt>
      <trkpt lat="43.44358" lon="6.86739">
        <ele>256.286316</ele>
        <time>2011-02-18 14:46:34Z</time>
      </trkpt>
      <trkpt lat="43.44359" lon="6.86738">
        <ele>256.286316</ele>
        <time>2011-02-18 14:46:38Z</time>
      </trkpt>
      <trkpt lat="43.44361" lon="6.86735">
        <ele>257.286316</ele>
        <time>2011-02-18 14:46:42Z</time>
      </trkpt>
      <trkpt lat="43.44362" lon="6.86734">
        <ele>257.286316</ele>
        <time>2011-02-18 14:46:46Z</time>
      </trkpt>
      <trkpt lat="43.44362" lon="6.86733">
        <ele>258.286316</ele>
        <time>2011-02-18 14:46:50Z</time>
      </trkpt>
      <trkpt lat="43.44363" lon="6.86731">
        <ele>258.286316</ele>
        <time>2011-02-18 14:46:54Z</time>
      </trkpt>
      <trkpt lat="43.44363" lon="6.86728">
        <ele>258.286316</ele>
        <time>2011-02-18 14:46:58Z</time>
      </trkpt>
      <trkpt lat="43.44363" lon="6.86727">
        <ele>258.286316</ele>
        <time>2011-02-18 14:47:02Z</time>
      </trkpt>
      <trkpt lat="43.44363" lon="6.86727">
        <ele>258.286316</ele>
        <time>2011-02-18 14:47:06Z</time>
      </trkpt>
      <trkpt lat="43.44363" lon="6.86724">
        <ele>258.286316</ele>
        <time>2011-02-18 14:47:10Z</time>
      </trkpt>
      <trkpt lat="43.44363" lon="6.86725">
        <ele>259.286316</ele>
        <time>2011-02-18 14:47:14Z</time>
      </trkpt>
      <trkpt lat="43.44363" lon="6.86725">
        <ele>259.286316</ele>
        <time>2011-02-18 14:47:18Z</time>
      </trkpt>
      <trkpt lat="43.44365" lon="6.86726">
        <ele>259.286316</ele>
        <time>2011-02-18 14:47:22Z</time>
      </trkpt>
      <trkpt lat="43.44366" lon="6.86726">
        <ele>260.286316</ele>
        <time>2011-02-18 14:47:26Z</time>
      </trkpt>
      <trkpt lat="43.44366" lon="6.86725">
        <ele>261.286316</ele>
        <time>2011-02-18 14:47:30Z</time>
      </trkpt>
      <trkpt lat="43.44364" lon="6.86722">
        <ele>261.286285</ele>
        <time>2011-02-18 14:47:34Z</time>
      </trkpt>
      <trkpt lat="43.44364" lon="6.86721">
        <ele>260.286285</ele>
        <time>2011-02-18 14:47:38Z</time>
      </trkpt>
      <trkpt lat="43.44362" lon="6.86717">
        <ele>259.286285</ele>
        <time>2011-02-18 14:47:42Z</time>
      </trkpt>
      <trkpt lat="43.4436" lon="6.86715">
        <ele>259.286285</ele>
        <time>2011-02-18 14:47:46Z</time>
      </trkpt>
      <trkpt lat="43.44359" lon="6.86713">
        <ele>259.286255</ele>
        <time>2011-02-18 14:47:50Z</time>
      </trkpt>
      <trkpt lat="43.44359" lon="6.86713">
        <ele>259.286255</ele>
        <time>2011-02-18 14:47:54Z</time>
      </trkpt>
      <trkpt lat="43.44359" lon="6.86703">
        <ele>257.286255</ele>
        <time>2011-02-18 14:47:58Z</time>
      </trkpt>
      <trkpt lat="43.44358" lon="6.867">
        <ele>257.286255</ele>
        <time>2011-02-18 14:48:02Z</time>
      </trkpt>
      <trkpt lat="43.44358" lon="6.867">
        <ele>257.286255</ele>
        <time>2011-02-18 14:48:06Z</time>
      </trkpt>
      <trkpt lat="43.44358" lon="6.867">
        <ele>257.286255</ele>
        <time>2011-02-18 14:48:10Z</time>
      </trkpt>
      <trkpt lat="43.44358" lon="6.867">
        <ele>257.286255</ele>
        <time>2011-02-18 14:48:14Z</time>
      </trkpt>
      <trkpt lat="43.44359" lon="6.86685">
        <ele>257.286194</ele>
        <time>2011-02-18 14:48:18Z</time>
      </trkpt>
      <trkpt lat="43.44359" lon="6.86684">
        <ele>258.286194</ele>
        <time>2011-02-18 14:48:22Z</time>
      </trkpt>
      <trkpt lat="43.44359" lon="6.86681">
        <ele>258.286194</ele>
        <time>2011-02-18 14:48:26Z</time>
      </trkpt>
      <trkpt lat="43.44359" lon="6.86679">
        <ele>258.286194</ele>
        <time>2011-02-18 14:48:30Z</time>
      </trkpt>
      <trkpt lat="43.44359" lon="6.86677">
        <ele>258.286194</ele>
        <time>2011-02-18 14:48:34Z</time>
      </trkpt>
      <trkpt lat="43.44359" lon="6.86677">
        <ele>258.286194</ele>
        <time>2011-02-18 14:48:38Z</time>
      </trkpt>
      <trkpt lat="43.44359" lon="6.86672">
        <ele>259.286163</ele>
        <time>2011-02-18 14:48:42Z</time>
      </trkpt>
      <trkpt lat="43.44359" lon="6.8667">
        <ele>260.286163</ele>
        <time>2011-02-18 14:48:46Z</time>
      </trkpt>
      <trkpt lat="43.44359" lon="6.86668">
        <ele>260.286163</ele>
        <time>2011-02-18 14:48:50Z</time>
      </trkpt>
      <trkpt lat="43.44359" lon="6.86667">
        <ele>260.286163</ele>
        <time>2011-02-18 14:48:54Z</time>
      </trkpt>
      <trkpt lat="43.44359" lon="6.86666">
        <ele>259.286163</ele>
        <time>2011-02-18 14:48:58Z</time>
      </trkpt>
      <trkpt lat="43.44359" lon="6.86665">
        <ele>259.286163</ele>
        <time>2011-02-18 14:49:02Z</time>
      </trkpt>
      <trkpt lat="43.44359" lon="6.86664">
        <ele>259.286163</ele>
        <time>2011-02-18 14:49:06Z</time>
      </trkpt>
      <trkpt lat="43.44359" lon="6.86663">
        <ele>259.286163</ele>
        <time>2011-02-18 14:49:10Z</time>
      </trkpt>
      <trkpt lat="43.44359" lon="6.86661">
        <ele>260.286133</ele>
        <time>2011-02-18 14:49:14Z</time>
      </trkpt>
      <trkpt lat="43.44359" lon="6.8666">
        <ele>261.286133</ele>
        <time>2011-02-18 14:49:18Z</time>
      </trkpt>
      <trkpt lat="43.44359" lon="6.86657">
        <ele>261.286133</ele>
        <time>2011-02-18 14:49:22Z</time>
      </trkpt>
      <trkpt lat="43.44359" lon="6.86656">
        <ele>260.286133</ele>
        <time>2011-02-18 14:49:26Z</time>
      </trkpt>
      <trkpt lat="43.44359" lon="6.86654">
        <ele>261.286133</ele>
        <time>2011-02-18 14:49:30Z</time>
      </trkpt>
      <trkpt lat="43.4436" lon="6.86651">
        <ele>260.286133</ele>
        <time>2011-02-18 14:49:34Z</time>
      </trkpt>
      <trkpt lat="43.4436" lon="6.86649">
        <ele>260.286133</ele>
        <time>2011-02-18 14:49:38Z</time>
      </trkpt>
      <trkpt lat="43.44361" lon="6.86646">
        <ele>260.286133</ele>
        <time>2011-02-18 14:49:42Z</time>
      </trkpt>
      <trkpt lat="43.44362" lon="6.86645">
        <ele>259.286133</ele>
        <time>2011-02-18 14:49:46Z</time>
      </trkpt>
      <trkpt lat="43.44364" lon="6.86637">
        <ele>258.286102</ele>
        <time>2011-02-18 14:49:50Z</time>
      </trkpt>
      <trkpt lat="43.44364" lon="6.86637">
        <ele>258.286102</ele>
        <time>2011-02-18 14:49:54Z</time>
      </trkpt>
      <trkpt lat="43.44365" lon="6.86632">
        <ele>257.286102</ele>
        <time>2011-02-18 14:49:58Z</time>
      </trkpt>
      <trkpt lat="43.44365" lon="6.86629">
        <ele>259.286072</ele>
        <time>2011-02-18 14:50:02Z</time>
      </trkpt>
      <trkpt lat="43.44365" lon="6.86629">
        <ele>259.286072</ele>
        <time>2011-02-18 14:50:06Z</time>
      </trkpt>
      <trkpt lat="43.44365" lon="6.86624">
        <ele>260.286072</ele>
        <time>2011-02-18 14:50:10Z</time>
      </trkpt>
      <trkpt lat="43.44364" lon="6.86622">
        <ele>260.286072</ele>
        <time>2011-02-18 14:50:14Z</time>
      </trkpt>
      <trkpt lat="43.44364" lon="6.86619">
        <ele>259.286072</ele>
        <time>2011-02-18 14:50:18Z</time>
      </trkpt>
      <trkpt lat="43.44364" lon="6.86619">
        <ele>259.286072</ele>
        <time>2011-02-18 14:50:22Z</time>
      </trkpt>
      <trkpt lat="43.44364" lon="6.86612">
        <ele>259.286041</ele>
        <time>2011-02-18 14:50:26Z</time>
      </trkpt>
      <trkpt lat="43.44363" lon="6.8661">
        <ele>259.286041</ele>
        <time>2011-02-18 14:50:30Z</time>
      </trkpt>
      <trkpt lat="43.44363" lon="6.86608">
        <ele>258.286041</ele>
        <time>2011-02-18 14:50:34Z</time>
      </trkpt>
      <trkpt lat="43.44363" lon="6.86607">
        <ele>257.286041</ele>
        <time>2011-02-18 14:50:38Z</time>
      </trkpt>
      <trkpt lat="43.44363" lon="6.86606">
        <ele>255.286026</ele>
        <time>2011-02-18 14:50:42Z</time>
      </trkpt>
      <trkpt lat="43.44362" lon="6.86605">
        <ele>254.286026</ele>
        <time>2011-02-18 14:50:46Z</time>
      </trkpt>
      <trkpt lat="43.44362" lon="6.86604">
        <ele>254.286026</ele>
        <time>2011-02-18 14:50:50Z</time>
      </trkpt>
      <trkpt lat="43.44362" lon="6.86603">
        <ele>254.286026</ele>
        <time>2011-02-18 14:50:54Z</time>
      </trkpt>
      <trkpt lat="43.44362" lon="6.86602">
        <ele>254.286011</ele>
        <time>2011-02-18 14:50:58Z</time>
      </trkpt>
      <trkpt lat="43.44362" lon="6.86602">
        <ele>254.286011</ele>
        <time>2011-02-18 14:51:02Z</time>
      </trkpt>
      <trkpt lat="43.44362" lon="6.86602">
        <ele>254.286011</ele>
        <time>2011-02-18 14:51:06Z</time>
      </trkpt>
      <trkpt lat="43.44362" lon="6.86601">
        <ele>254.286011</ele>
        <time>2011-02-18 14:51:10Z</time>
      </trkpt>
      <trkpt lat="43.44362" lon="6.86601">
        <ele>254.286011</ele>
        <time>2011-02-18 14:51:14Z</time>
      </trkpt>
      <trkpt lat="43.44362" lon="6.866">
        <ele>254.286011</ele>
        <time>2011-02-18 14:51:18Z</time>
      </trkpt>
      <trkpt lat="43.44362" lon="6.866">
        <ele>254.286011</ele>
        <time>2011-02-18 14:51:22Z</time>
      </trkpt>
      <trkpt lat="43.44362" lon="6.86599">
        <ele>255.286011</ele>
        <time>2011-02-18 14:51:26Z</time>
      </trkpt>
      <trkpt lat="43.44361" lon="6.86598">
        <ele>256.286011</ele>
        <time>2011-02-18 14:51:30Z</time>
      </trkpt>
      <trkpt lat="43.44361" lon="6.86596">
        <ele>257.286011</ele>
        <time>2011-02-18 14:51:34Z</time>
      </trkpt>
      <trkpt lat="43.44361" lon="6.86595">
        <ele>258.286011</ele>
        <time>2011-02-18 14:51:38Z</time>
      </trkpt>
      <trkpt lat="43.44361" lon="6.86594">
        <ele>258.286011</ele>
        <time>2011-02-18 14:51:42Z</time>
      </trkpt>
      <trkpt lat="43.4436" lon="6.86593">
        <ele>258.286011</ele>
        <time>2011-02-18 14:51:46Z</time>
      </trkpt>
      <trkpt lat="43.4436" lon="6.86592">
        <ele>258.286011</ele>
        <time>2011-02-18 14:51:50Z</time>
      </trkpt>
      <trkpt lat="43.4436" lon="6.86592">
        <ele>258.286011</ele>
        <time>2011-02-18 14:51:54Z</time>
      </trkpt>
      <trkpt lat="43.4436" lon="6.86592">
        <ele>258.286011</ele>
        <time>2011-02-18 14:51:58Z</time>
      </trkpt>
      <trkpt lat="43.4436" lon="6.86592">
        <ele>258.286011</ele>
        <time>2011-02-18 14:52:02Z</time>
      </trkpt>
      <trkpt lat="43.44357" lon="6.86587">
        <ele>259.28598</ele>
        <time>2011-02-18 14:52:06Z</time>
      </trkpt>
      <trkpt lat="43.44357" lon="6.86586">
        <ele>259.28598</ele>
        <time>2011-02-18 14:52:10Z</time>
      </trkpt>
      <trkpt lat="43.44357" lon="6.86585">
        <ele>259.28598</ele>
        <time>2011-02-18 14:52:14Z</time>
      </trkpt>
      <trkpt lat="43.44357" lon="6.86584">
        <ele>259.28598</ele>
        <time>2011-02-18 14:52:18Z</time>
      </trkpt>
      <trkpt lat="43.44357" lon="6.86584">
        <ele>259.28598</ele>
        <time>2011-02-18 14:52:22Z</time>
      </trkpt>
      <trkpt lat="43.44357" lon="6.86573">
        <ele>259.28595</ele>
        <time>2011-02-18 14:52:26Z</time>
      </trkpt>
      <trkpt lat="43.44357" lon="6.86569">
        <ele>258.28595</ele>
        <time>2011-02-18 14:52:30Z</time>
      </trkpt>
      <trkpt lat="43.44358" lon="6.86566">
        <ele>257.285919</ele>
        <time>2011-02-18 14:52:34Z</time>
      </trkpt>
      <trkpt lat="43.44358" lon="6.86563">
        <ele>257.285919</ele>
        <time>2011-02-18 14:52:38Z</time>
      </trkpt>
      <trkpt lat="43.44358" lon="6.86562">
        <ele>256.285919</ele>
        <time>2011-02-18 14:52:42Z</time>
      </trkpt>
      <trkpt lat="43.44358" lon="6.86562">
        <ele>256.285919</ele>
        <time>2011-02-18 14:52:46Z</time>
      </trkpt>
      <trkpt lat="43.44358" lon="6.86557">
        <ele>256.285919</ele>
        <time>2011-02-18 14:52:50Z</time>
      </trkpt>
      <trkpt lat="43.44358" lon="6.86557">
        <ele>256.285919</ele>
        <time>2011-02-18 14:52:54Z</time>
      </trkpt>
      <trkpt lat="43.44358" lon="6.86552">
        <ele>256.285889</ele>
        <time>2011-02-18 14:52:58Z</time>
      </trkpt>
      <trkpt lat="43.44358" lon="6.86549">
        <ele>256.285889</ele>
        <time>2011-02-18 14:53:02Z</time>
      </trkpt>
      <trkpt lat="43.44358" lon="6.86546">
        <ele>256.285889</ele>
        <time>2011-02-18 14:53:06Z</time>
      </trkpt>
      <trkpt lat="43.44358" lon="6.86545">
        <ele>255.285889</ele>
        <time>2011-02-18 14:53:10Z</time>
      </trkpt>
      <trkpt lat="43.44359" lon="6.86543">
        <ele>255.285889</ele>
        <time>2011-02-18 14:53:14Z</time>
      </trkpt>
      <trkpt lat="43.44359" lon="6.86542">
        <ele>255.285873</ele>
        <time>2011-02-18 14:53:18Z</time>
      </trkpt>
      <trkpt lat="43.44359" lon="6.86542">
        <ele>255.285873</ele>
        <time>2011-02-18 14:53:22Z</time>
      </trkpt>
      <trkpt lat="43.44359" lon="6.86542">
        <ele>255.285873</ele>
        <time>2011-02-18 14:53:26Z</time>
      </trkpt>
      <trkpt lat="43.44359" lon="6.86542">
        <ele>255.285873</ele>
        <time>2011-02-18 14:53:30Z</time>
      </trkpt>
      <trkpt lat="43.44359" lon="6.86542">
        <ele>255.285873</ele>
        <time>2011-02-18 14:53:34Z</time>
      </trkpt>
      <trkpt lat="43.44359" lon="6.86542">
        <ele>255.285873</ele>
        <time>2011-02-18 14:53:38Z</time>
      </trkpt>
      <trkpt lat="43.44359" lon="6.86542">
        <ele>255.285873</ele>
        <time>2011-02-18 14:53:42Z</time>
      </trkpt>
      <trkpt lat="43.44362" lon="6.86538">
        <ele>259.285889</ele>
        <time>2011-02-18 14:53:46Z</time>
      </trkpt>
      <trkpt lat="43.44363" lon="6.86538">
        <ele>260.285889</ele>
        <time>2011-02-18 14:53:50Z</time>
      </trkpt>
      <trkpt lat="43.44363" lon="6.86538">
        <ele>260.285889</ele>
        <time>2011-02-18 14:53:54Z</time>
      </trkpt>
      <trkpt lat="43.44362" lon="6.86538">
        <ele>261.285889</ele>
        <time>2011-02-18 14:53:58Z</time>
      </trkpt>
      <trkpt lat="43.44362" lon="6.86538">
        <ele>261.285889</ele>
        <time>2011-02-18 14:54:02Z</time>
      </trkpt>
      <trkpt lat="43.44364" lon="6.8654">
        <ele>261.285889</ele>
        <time>2011-02-18 14:54:06Z</time>
      </trkpt>
      <trkpt lat="43.44365" lon="6.86541">
        <ele>262.285889</ele>
        <time>2011-02-18 14:54:10Z</time>
      </trkpt>
      <trkpt lat="43.44367" lon="6.86542">
        <ele>262.285889</ele>
        <time>2011-02-18 14:54:14Z</time>
      </trkpt>
      <trkpt lat="43.44367" lon="6.86542">
        <ele>262.285889</ele>
        <time>2011-02-18 14:54:18Z</time>
      </trkpt>
      <trkpt lat="43.44367" lon="6.86542">
        <ele>262.285889</ele>
        <time>2011-02-18 14:54:22Z</time>
      </trkpt>
      <trkpt lat="43.44367" lon="6.86542">
        <ele>262.285889</ele>
        <time>2011-02-18 14:54:26Z</time>
      </trkpt>
      <trkpt lat="43.44367" lon="6.86542">
        <ele>262.285889</ele>
        <time>2011-02-18 14:54:30Z</time>
      </trkpt>
      <trkpt lat="43.44368" lon="6.86543">
        <ele>265.285889</ele>
        <time>2011-02-18 14:54:34Z</time>
      </trkpt>
      <trkpt lat="43.44369" lon="6.86542">
        <ele>265.285889</ele>
        <time>2011-02-18 14:54:38Z</time>
      </trkpt>
      <trkpt lat="43.4437" lon="6.86541">
        <ele>266.285889</ele>
        <time>2011-02-18 14:54:42Z</time>
      </trkpt>
      <trkpt lat="43.4437" lon="6.8654">
        <ele>267.285889</ele>
        <time>2011-02-18 14:54:46Z</time>
      </trkpt>
      <trkpt lat="43.44372" lon="6.86538">
        <ele>268.285889</ele>
        <time>2011-02-18 14:54:50Z</time>
      </trkpt>
      <trkpt lat="43.44372" lon="6.86538">
        <ele>268.285889</ele>
        <time>2011-02-18 14:54:54Z</time>
      </trkpt>
      <trkpt lat="43.44372" lon="6.86538">
        <ele>268.285889</ele>
        <time>2011-02-18 14:54:58Z</time>
      </trkpt>
      <trkpt lat="43.44377" lon="6.86536">
        <ele>267.285889</ele>
        <time>2011-02-18 14:55:02Z</time>
      </trkpt>
      <trkpt lat="43.44378" lon="6.86536">
        <ele>267.285889</ele>
        <time>2011-02-18 14:55:06Z</time>
      </trkpt>
      <trkpt lat="43.44381" lon="6.86534">
        <ele>269.285889</ele>
        <time>2011-02-18 14:55:10Z</time>
      </trkpt>
      <trkpt lat="43.44381" lon="6.86534">
        <ele>269.285889</ele>
        <time>2011-02-18 14:55:14Z</time>
      </trkpt>
      <trkpt lat="43.44381" lon="6.86534">
        <ele>269.285889</ele>
        <time>2011-02-18 14:55:18Z</time>
      </trkpt>
      <trkpt lat="43.44383" lon="6.86532">
        <ele>270.285889</ele>
        <time>2011-02-18 14:55:22Z</time>
      </trkpt>
      <trkpt lat="43.44384" lon="6.86531">
        <ele>270.285889</ele>
        <time>2011-02-18 14:55:26Z</time>
      </trkpt>
      <trkpt lat="43.44384" lon="6.8653">
        <ele>271.285889</ele>
        <time>2011-02-18 14:55:30Z</time>
      </trkpt>
      <trkpt lat="43.44384" lon="6.8653">
        <ele>271.285889</ele>
        <time>2011-02-18 14:55:34Z</time>
      </trkpt>
      <trkpt lat="43.44386" lon="6.86528">
        <ele>271.285889</ele>
        <time>2011-02-18 14:55:38Z</time>
      </trkpt>
      <trkpt lat="43.44387" lon="6.86525">
        <ele>271.285889</ele>
        <time>2011-02-18 14:55:42Z</time>
      </trkpt>
      <trkpt lat="43.44387" lon="6.86525">
        <ele>271.285889</ele>
        <time>2011-02-18 14:55:46Z</time>
      </trkpt>
      <trkpt lat="43.44389" lon="6.86522">
        <ele>271.285889</ele>
        <time>2011-02-18 14:55:50Z</time>
      </trkpt>
      <trkpt lat="43.4439" lon="6.86521">
        <ele>271.285889</ele>
        <time>2011-02-18 14:55:54Z</time>
      </trkpt>
      <trkpt lat="43.4439" lon="6.8652">
        <ele>271.285889</ele>
        <time>2011-02-18 14:55:58Z</time>
      </trkpt>
      <trkpt lat="43.44391" lon="6.86519">
        <ele>270.285858</ele>
        <time>2011-02-18 14:56:02Z</time>
      </trkpt>
      <trkpt lat="43.44391" lon="6.86516">
        <ele>267.285858</ele>
        <time>2011-02-18 14:56:06Z</time>
      </trkpt>
      <trkpt lat="43.4439" lon="6.86513">
        <ele>265.285858</ele>
        <time>2011-02-18 14:56:10Z</time>
      </trkpt>
      <trkpt lat="43.4439" lon="6.8651">
        <ele>262.285858</ele>
        <time>2011-02-18 14:56:14Z</time>
      </trkpt>
      <trkpt lat="43.44389" lon="6.86507">
        <ele>261.285828</ele>
        <time>2011-02-18 14:56:18Z</time>
      </trkpt>
      <trkpt lat="43.44388" lon="6.86504">
        <ele>260.285828</ele>
        <time>2011-02-18 14:56:22Z</time>
      </trkpt>
      <trkpt lat="43.44388" lon="6.86503">
        <ele>260.285828</ele>
        <time>2011-02-18 14:56:26Z</time>
      </trkpt>
      <trkpt lat="43.44384" lon="6.86498">
        <ele>259.285828</ele>
        <time>2011-02-18 14:56:30Z</time>
      </trkpt>
      <trkpt lat="43.44382" lon="6.86496">
        <ele>259.285828</ele>
        <time>2011-02-18 14:56:34Z</time>
      </trkpt>
      <trkpt lat="43.44382" lon="6.86496">
        <ele>259.285828</ele>
        <time>2011-02-18 14:56:38Z</time>
      </trkpt>
      <trkpt lat="43.4438" lon="6.86494">
        <ele>259.285797</ele>
        <time>2011-02-18 14:56:42Z</time>
      </trkpt>
      <trkpt lat="43.44379" lon="6.86493">
        <ele>261.285797</ele>
        <time>2011-02-18 14:56:46Z</time>
      </trkpt>
      <trkpt lat="43.44379" lon="6.86492">
        <ele>262.285797</ele>
        <time>2011-02-18 14:56:50Z</time>
      </trkpt>
      <trkpt lat="43.44379" lon="6.86491">
        <ele>264.285797</ele>
        <time>2011-02-18 14:56:54Z</time>
      </trkpt>
      <trkpt lat="43.44379" lon="6.86491">
        <ele>264.285797</ele>
        <time>2011-02-18 14:56:58Z</time>
      </trkpt>
      <trkpt lat="43.44379" lon="6.8649">
        <ele>265.285797</ele>
        <time>2011-02-18 14:57:02Z</time>
      </trkpt>
      <trkpt lat="43.44379" lon="6.86489">
        <ele>265.285797</ele>
        <time>2011-02-18 14:57:06Z</time>
      </trkpt>
      <trkpt lat="43.44379" lon="6.86489">
        <ele>266.285797</ele>
        <time>2011-02-18 14:57:10Z</time>
      </trkpt>
      <trkpt lat="43.44379" lon="6.86489">
        <ele>268.285797</ele>
        <time>2011-02-18 14:57:14Z</time>
      </trkpt>
      <trkpt lat="43.44379" lon="6.86489">
        <ele>269.285797</ele>
        <time>2011-02-18 14:57:18Z</time>
      </trkpt>
      <trkpt lat="43.44379" lon="6.86489">
        <ele>269.285797</ele>
        <time>2011-02-18 14:57:22Z</time>
      </trkpt>
      <trkpt lat="43.44379" lon="6.86489">
        <ele>269.285797</ele>
        <time>2011-02-18 14:57:26Z</time>
      </trkpt>
      <trkpt lat="43.44379" lon="6.86488">
        <ele>268.285797</ele>
        <time>2011-02-18 14:57:30Z</time>
      </trkpt>
      <trkpt lat="43.44378" lon="6.86488">
        <ele>268.285797</ele>
        <time>2011-02-18 14:57:34Z</time>
      </trkpt>
      <trkpt lat="43.44378" lon="6.86488">
        <ele>268.285797</ele>
        <time>2011-02-18 14:57:38Z</time>
      </trkpt>
      <trkpt lat="43.44378" lon="6.86488">
        <ele>267.285797</ele>
        <time>2011-02-18 14:57:42Z</time>
      </trkpt>
      <trkpt lat="43.44378" lon="6.86488">
        <ele>267.285797</ele>
        <time>2011-02-18 14:57:46Z</time>
      </trkpt>
      <trkpt lat="43.44378" lon="6.86488">
        <ele>267.285797</ele>
        <time>2011-02-18 14:57:50Z</time>
      </trkpt>
      <trkpt lat="43.44378" lon="6.86488">
        <ele>267.285797</ele>
        <time>2011-02-18 14:57:54Z</time>
      </trkpt>
      <trkpt lat="43.44378" lon="6.86488">
        <ele>267.285797</ele>
        <time>2011-02-18 14:57:58Z</time>
      </trkpt>
      <trkpt lat="43.44379" lon="6.86487">
        <ele>272.285797</ele>
        <time>2011-02-18 14:58:02Z</time>
      </trkpt>
      <trkpt lat="43.44379" lon="6.86487">
        <ele>273.285797</ele>
        <time>2011-02-18 14:58:06Z</time>
      </trkpt>
      <trkpt lat="43.44379" lon="6.86487">
        <ele>273.285797</ele>
        <time>2011-02-18 14:58:10Z</time>
      </trkpt>
      <trkpt lat="43.44378" lon="6.86486">
        <ele>273.285767</ele>
        <time>2011-02-18 14:58:14Z</time>
      </trkpt>
      <trkpt lat="43.44378" lon="6.86486">
        <ele>272.285767</ele>
        <time>2011-02-18 14:58:18Z</time>
      </trkpt>
      <trkpt lat="43.44378" lon="6.86485">
        <ele>271.285767</ele>
        <time>2011-02-18 14:58:22Z</time>
      </trkpt>
      <trkpt lat="43.44378" lon="6.86484">
        <ele>269.285767</ele>
        <time>2011-02-18 14:58:26Z</time>
      </trkpt>
      <trkpt lat="43.44378" lon="6.86483">
        <ele>269.285767</ele>
        <time>2011-02-18 14:58:30Z</time>
      </trkpt>
      <trkpt lat="43.44378" lon="6.86483">
        <ele>269.285767</ele>
        <time>2011-02-18 14:58:34Z</time>
      </trkpt>
      <trkpt lat="43.44378" lon="6.86483">
        <ele>270.285767</ele>
        <time>2011-02-18 14:58:38Z</time>
      </trkpt>
      <trkpt lat="43.44378" lon="6.86483">
        <ele>271.285767</ele>
        <time>2011-02-18 14:58:42Z</time>
      </trkpt>
      <trkpt lat="43.44378" lon="6.86483">
        <ele>270.285767</ele>
        <time>2011-02-18 14:58:46Z</time>
      </trkpt>
      <trkpt lat="43.44377" lon="6.86484">
        <ele>270.285767</ele>
        <time>2011-02-18 14:58:50Z</time>
      </trkpt>
      <trkpt lat="43.44378" lon="6.86486">
        <ele>270.285767</ele>
        <time>2011-02-18 14:58:54Z</time>
      </trkpt>
      <trkpt lat="43.44378" lon="6.86487">
        <ele>271.285767</ele>
        <time>2011-02-18 14:58:58Z</time>
      </trkpt>
      <trkpt lat="43.44378" lon="6.86488">
        <ele>271.285797</ele>
        <time>2011-02-18 14:59:02Z</time>
      </trkpt>
      <trkpt lat="43.44378" lon="6.86488">
        <ele>272.285797</ele>
        <time>2011-02-18 14:59:06Z</time>
      </trkpt>
      <trkpt lat="43.44385" lon="6.8653">
        <ele>268.285889</ele>
        <time>2011-02-18 15:20:50Z</time>
      </trkpt>
      <trkpt lat="43.44385" lon="6.8653">
        <ele>268.285889</ele>
        <time>2011-02-18 15:20:54Z</time>
      </trkpt>
      <trkpt lat="43.44385" lon="6.86532">
        <ele>270.285889</ele>
        <time>2011-02-18 15:20:58Z</time>
      </trkpt>
      <trkpt lat="43.44385" lon="6.86532">
        <ele>271.285889</ele>
        <time>2011-02-18 15:21:02Z</time>
      </trkpt>
      <trkpt lat="43.44384" lon="6.86531">
        <ele>271.285889</ele>
        <time>2011-02-18 15:21:06Z</time>
      </trkpt>
      <trkpt lat="43.44383" lon="6.8653">
        <ele>271.285889</ele>
        <time>2011-02-18 15:21:10Z</time>
      </trkpt>
      <trkpt lat="43.44382" lon="6.8653">
        <ele>270.285889</ele>
        <time>2011-02-18 15:21:14Z</time>
      </trkpt>
      <trkpt lat="43.4438" lon="6.86531">
        <ele>270.285889</ele>
        <time>2011-02-18 15:21:18Z</time>
      </trkpt>
      <trkpt lat="43.4438" lon="6.86531">
        <ele>271.285889</ele>
        <time>2011-02-18 15:21:22Z</time>
      </trkpt>
      <trkpt lat="43.4438" lon="6.86531">
        <ele>271.285889</ele>
        <time>2011-02-18 15:21:26Z</time>
      </trkpt>
      <trkpt lat="43.44379" lon="6.86531">
        <ele>272.285889</ele>
        <time>2011-02-18 15:21:30Z</time>
      </trkpt>
      <trkpt lat="43.44379" lon="6.86531">
        <ele>271.285889</ele>
        <time>2011-02-18 15:21:34Z</time>
      </trkpt>
      <trkpt lat="43.44379" lon="6.86531">
        <ele>271.285889</ele>
        <time>2011-02-18 15:21:38Z</time>
      </trkpt>
      <trkpt lat="43.44378" lon="6.86532">
        <ele>271.285889</ele>
        <time>2011-02-18 15:21:42Z</time>
      </trkpt>
      <trkpt lat="43.44378" lon="6.86532">
        <ele>271.285889</ele>
        <time>2011-02-18 15:21:46Z</time>
      </trkpt>
      <trkpt lat="43.44375" lon="6.86535">
        <ele>272.285889</ele>
        <time>2011-02-18 15:21:50Z</time>
      </trkpt>
      <trkpt lat="43.44374" lon="6.86535">
        <ele>272.285889</ele>
        <time>2011-02-18 15:21:54Z</time>
      </trkpt>
      <trkpt lat="43.44372" lon="6.86536">
        <ele>275.285889</ele>
        <time>2011-02-18 15:21:58Z</time>
      </trkpt>
      <trkpt lat="43.44372" lon="6.86536">
        <ele>275.285889</ele>
        <time>2011-02-18 15:22:02Z</time>
      </trkpt>
      <trkpt lat="43.44372" lon="6.86536">
        <ele>275.285889</ele>
        <time>2011-02-18 15:22:06Z</time>
      </trkpt>
      <trkpt lat="43.44365" lon="6.86544">
        <ele>290.285889</ele>
        <time>2011-02-18 15:22:10Z</time>
      </trkpt>
      <trkpt lat="43.44364" lon="6.86545">
        <ele>291.285889</ele>
        <time>2011-02-18 15:22:14Z</time>
      </trkpt>
      <trkpt lat="43.44364" lon="6.86545">
        <ele>291.285889</ele>
        <time>2011-02-18 15:22:18Z</time>
      </trkpt>
      <trkpt lat="43.44362" lon="6.86549">
        <ele>291.285889</ele>
        <time>2011-02-18 15:22:22Z</time>
      </trkpt>
      <trkpt lat="43.44362" lon="6.8655">
        <ele>291.285889</ele>
        <time>2011-02-18 15:22:26Z</time>
      </trkpt>
      <trkpt lat="43.44362" lon="6.8655">
        <ele>290.285889</ele>
        <time>2011-02-18 15:22:30Z</time>
      </trkpt>
      <trkpt lat="43.44361" lon="6.8655">
        <ele>289.285889</ele>
        <time>2011-02-18 15:22:34Z</time>
      </trkpt>
      <trkpt lat="43.44361" lon="6.8655">
        <ele>289.285889</ele>
        <time>2011-02-18 15:22:38Z</time>
      </trkpt>
      <trkpt lat="43.4436" lon="6.8655">
        <ele>287.285889</ele>
        <time>2011-02-18 15:22:42Z</time>
      </trkpt>
      <trkpt lat="43.44359" lon="6.86551">
        <ele>286.285889</ele>
        <time>2011-02-18 15:22:46Z</time>
      </trkpt>
      <trkpt lat="43.44358" lon="6.86552">
        <ele>285.285889</ele>
        <time>2011-02-18 15:22:50Z</time>
      </trkpt>
      <trkpt lat="43.44357" lon="6.86552">
        <ele>285.285889</ele>
        <time>2011-02-18 15:22:54Z</time>
      </trkpt>
      <trkpt lat="43.44356" lon="6.86557">
        <ele>281.285919</ele>
        <time>2011-02-18 15:22:58Z</time>
      </trkpt>
      <trkpt lat="43.44356" lon="6.86557">
        <ele>281.285919</ele>
        <time>2011-02-18 15:23:02Z</time>
      </trkpt>
      <trkpt lat="43.44357" lon="6.86565">
        <ele>277.285919</ele>
        <time>2011-02-18 15:23:06Z</time>
      </trkpt>
      <trkpt lat="43.44357" lon="6.86567">
        <ele>276.28595</ele>
        <time>2011-02-18 15:23:10Z</time>
      </trkpt>
      <trkpt lat="43.44357" lon="6.86567">
        <ele>276.28595</ele>
        <time>2011-02-18 15:23:14Z</time>
      </trkpt>
      <trkpt lat="43.44357" lon="6.86567">
        <ele>276.28595</ele>
        <time>2011-02-18 15:23:18Z</time>
      </trkpt>
      <trkpt lat="43.44359" lon="6.86574">
        <ele>272.28595</ele>
        <time>2011-02-18 15:23:22Z</time>
      </trkpt>
      <trkpt lat="43.44359" lon="6.86574">
        <ele>272.28595</ele>
        <time>2011-02-18 15:23:26Z</time>
      </trkpt>
      <trkpt lat="43.44361" lon="6.86578">
        <ele>269.28595</ele>
        <time>2011-02-18 15:23:30Z</time>
      </trkpt>
      <trkpt lat="43.44361" lon="6.86578">
        <ele>269.28595</ele>
        <time>2011-02-18 15:23:34Z</time>
      </trkpt>
      <trkpt lat="43.44361" lon="6.86583">
        <ele>264.28598</ele>
        <time>2011-02-18 15:23:38Z</time>
      </trkpt>
      <trkpt lat="43.44361" lon="6.86585">
        <ele>262.28598</ele>
        <time>2011-02-18 15:23:42Z</time>
      </trkpt>
      <trkpt lat="43.44361" lon="6.86587">
        <ele>264.28598</ele>
        <time>2011-02-18 15:23:46Z</time>
      </trkpt>
      <trkpt lat="43.44361" lon="6.86587">
        <ele>264.28598</ele>
        <time>2011-02-18 15:23:50Z</time>
      </trkpt>
      <trkpt lat="43.44361" lon="6.86587">
        <ele>264.28598</ele>
        <time>2011-02-18 15:23:54Z</time>
      </trkpt>
      <trkpt lat="43.44361" lon="6.86587">
        <ele>264.28598</ele>
        <time>2011-02-18 15:23:58Z</time>
      </trkpt>
      <trkpt lat="43.44362" lon="6.86594">
        <ele>271.286011</ele>
        <time>2011-02-18 15:24:02Z</time>
      </trkpt>
      <trkpt lat="43.44362" lon="6.86594">
        <ele>271.286011</ele>
        <time>2011-02-18 15:24:06Z</time>
      </trkpt>
      <trkpt lat="43.44362" lon="6.86594">
        <ele>271.286011</ele>
        <time>2011-02-18 15:24:10Z</time>
      </trkpt>
      <trkpt lat="43.44362" lon="6.86602">
        <ele>275.286011</ele>
        <time>2011-02-18 15:24:14Z</time>
      </trkpt>
      <trkpt lat="43.44363" lon="6.86603">
        <ele>277.286011</ele>
        <time>2011-02-18 15:24:18Z</time>
      </trkpt>
      <trkpt lat="43.44363" lon="6.86604">
        <ele>280.286011</ele>
        <time>2011-02-18 15:24:22Z</time>
      </trkpt>
      <trkpt lat="43.44363" lon="6.86604">
        <ele>280.286011</ele>
        <time>2011-02-18 15:24:26Z</time>
      </trkpt>
      <trkpt lat="43.44363" lon="6.86604">
        <ele>280.286011</ele>
        <time>2011-02-18 15:24:30Z</time>
      </trkpt>
      <trkpt lat="43.44363" lon="6.86604">
        <ele>282.286011</ele>
        <time>2011-02-18 15:24:34Z</time>
      </trkpt>
      <trkpt lat="43.44363" lon="6.86604">
        <ele>283.286011</ele>
        <time>2011-02-18 15:24:38Z</time>
      </trkpt>
      <trkpt lat="43.44362" lon="6.86602">
        <ele>283.286011</ele>
        <time>2011-02-18 15:24:42Z</time>
      </trkpt>
      <trkpt lat="43.44362" lon="6.86602">
        <ele>283.286011</ele>
        <time>2011-02-18 15:24:46Z</time>
      </trkpt>
      <trkpt lat="43.44362" lon="6.86601">
        <ele>284.286011</ele>
        <time>2011-02-18 15:24:50Z</time>
      </trkpt>
      <trkpt lat="43.44362" lon="6.86601">
        <ele>284.286011</ele>
        <time>2011-02-18 15:24:54Z</time>
      </trkpt>
      <trkpt lat="43.44362" lon="6.866">
        <ele>284.286011</ele>
        <time>2011-02-18 15:24:58Z</time>
      </trkpt>
      <trkpt lat="43.44361" lon="6.866">
        <ele>282.286011</ele>
        <time>2011-02-18 15:25:02Z</time>
      </trkpt>
      <trkpt lat="43.44361" lon="6.86601">
        <ele>281.286011</ele>
        <time>2011-02-18 15:25:06Z</time>
      </trkpt>
      <trkpt lat="43.44361" lon="6.86601">
        <ele>281.286011</ele>
        <time>2011-02-18 15:25:10Z</time>
      </trkpt>
      <trkpt lat="43.44359" lon="6.86604">
        <ele>280.286011</ele>
        <time>2011-02-18 15:25:14Z</time>
      </trkpt>
      <trkpt lat="43.44359" lon="6.86604">
        <ele>279.286011</ele>
        <time>2011-02-18 15:25:18Z</time>
      </trkpt>
      <trkpt lat="43.44359" lon="6.86604">
        <ele>279.286011</ele>
        <time>2011-02-18 15:25:22Z</time>
      </trkpt>
      <trkpt lat="43.44359" lon="6.86604">
        <ele>279.286011</ele>
        <time>2011-02-18 15:25:26Z</time>
      </trkpt>
      <trkpt lat="43.44359" lon="6.86604">
        <ele>279.286011</ele>
        <time>2011-02-18 15:25:30Z</time>
      </trkpt>
      <trkpt lat="43.44358" lon="6.86603">
        <ele>276.286011</ele>
        <time>2011-02-18 15:25:34Z</time>
      </trkpt>
      <trkpt lat="43.44358" lon="6.86604">
        <ele>274.286011</ele>
        <time>2011-02-18 15:25:38Z</time>
      </trkpt>
      <trkpt lat="43.44358" lon="6.86604">
        <ele>274.286011</ele>
        <time>2011-02-18 15:25:42Z</time>
      </trkpt>
      <trkpt lat="43.44359" lon="6.86605">
        <ele>273.286011</ele>
        <time>2011-02-18 15:25:46Z</time>
      </trkpt>
      <trkpt lat="43.4436" lon="6.86606">
        <ele>273.286011</ele>
        <time>2011-02-18 15:25:50Z</time>
      </trkpt>
      <trkpt lat="43.44362" lon="6.86607">
        <ele>273.286041</ele>
        <time>2011-02-18 15:25:54Z</time>
      </trkpt>
      <trkpt lat="43.44363" lon="6.86608">
        <ele>273.286041</ele>
        <time>2011-02-18 15:25:58Z</time>
      </trkpt>
      <trkpt lat="43.44365" lon="6.86611">
        <ele>272.286041</ele>
        <time>2011-02-18 15:26:02Z</time>
      </trkpt>
      <trkpt lat="43.44365" lon="6.86612">
        <ele>271.286041</ele>
        <time>2011-02-18 15:26:06Z</time>
      </trkpt>
      <trkpt lat="43.44365" lon="6.86613">
        <ele>271.286041</ele>
        <time>2011-02-18 15:26:10Z</time>
      </trkpt>
      <trkpt lat="43.44365" lon="6.86613">
        <ele>271.286041</ele>
        <time>2011-02-18 15:26:14Z</time>
      </trkpt>
      <trkpt lat="43.44366" lon="6.86616">
        <ele>270.286072</ele>
        <time>2011-02-18 15:26:18Z</time>
      </trkpt>
      <trkpt lat="43.44366" lon="6.86617">
        <ele>267.286072</ele>
        <time>2011-02-18 15:26:22Z</time>
      </trkpt>
      <trkpt lat="43.44367" lon="6.86619">
        <ele>264.286072</ele>
        <time>2011-02-18 15:26:26Z</time>
      </trkpt>
      <trkpt lat="43.44367" lon="6.86622">
        <ele>263.286072</ele>
        <time>2011-02-18 15:26:30Z</time>
      </trkpt>
      <trkpt lat="43.44367" lon="6.86623">
        <ele>262.286072</ele>
        <time>2011-02-18 15:26:34Z</time>
      </trkpt>
      <trkpt lat="43.44365" lon="6.86628">
        <ele>259.286072</ele>
        <time>2011-02-18 15:26:38Z</time>
      </trkpt>
      <trkpt lat="43.44362" lon="6.86634">
        <ele>259.286102</ele>
        <time>2011-02-18 15:26:42Z</time>
      </trkpt>
      <trkpt lat="43.44361" lon="6.86638">
        <ele>258.286102</ele>
        <time>2011-02-18 15:26:46Z</time>
      </trkpt>
      <trkpt lat="43.44361" lon="6.86638">
        <ele>258.286102</ele>
        <time>2011-02-18 15:26:50Z</time>
      </trkpt>
      <trkpt lat="43.44361" lon="6.86643">
        <ele>256.286102</ele>
        <time>2011-02-18 15:26:54Z</time>
      </trkpt>
      <trkpt lat="43.44361" lon="6.86643">
        <ele>256.286102</ele>
        <time>2011-02-18 15:26:58Z</time>
      </trkpt>
      <trkpt lat="43.44362" lon="6.86652">
        <ele>253.286133</ele>
        <time>2011-02-18 15:27:02Z</time>
      </trkpt>
      <trkpt lat="43.44361" lon="6.86655">
        <ele>251.286133</ele>
        <time>2011-02-18 15:27:06Z</time>
      </trkpt>
      <trkpt lat="43.44361" lon="6.86656">
        <ele>251.286148</ele>
        <time>2011-02-18 15:27:10Z</time>
      </trkpt>
      <trkpt lat="43.44361" lon="6.86656">
        <ele>251.286148</ele>
        <time>2011-02-18 15:27:14Z</time>
      </trkpt>
      <trkpt lat="43.44362" lon="6.8666">
        <ele>248.286148</ele>
        <time>2011-02-18 15:27:18Z</time>
      </trkpt>
      <trkpt lat="43.44362" lon="6.86661">
        <ele>247.286163</ele>
        <time>2011-02-18 15:27:22Z</time>
      </trkpt>
      <trkpt lat="43.44363" lon="6.86663">
        <ele>246.286163</ele>
        <time>2011-02-18 15:27:26Z</time>
      </trkpt>
      <trkpt lat="43.44363" lon="6.86663">
        <ele>246.286163</ele>
        <time>2011-02-18 15:27:30Z</time>
      </trkpt>
      <trkpt lat="43.44363" lon="6.86668">
        <ele>245.286163</ele>
        <time>2011-02-18 15:27:34Z</time>
      </trkpt>
      <trkpt lat="43.44363" lon="6.86668">
        <ele>245.286163</ele>
        <time>2011-02-18 15:27:38Z</time>
      </trkpt>
      <trkpt lat="43.44363" lon="6.86671">
        <ele>245.286179</ele>
        <time>2011-02-18 15:27:42Z</time>
      </trkpt>
      <trkpt lat="43.44362" lon="6.86673">
        <ele>244.286179</ele>
        <time>2011-02-18 15:27:46Z</time>
      </trkpt>
      <trkpt lat="43.44362" lon="6.86677">
        <ele>243.286194</ele>
        <time>2011-02-18 15:27:50Z</time>
      </trkpt>
      <trkpt lat="43.44362" lon="6.8668">
        <ele>242.286194</ele>
        <time>2011-02-18 15:27:54Z</time>
      </trkpt>
      <trkpt lat="43.44363" lon="6.86683">
        <ele>241.286209</ele>
        <time>2011-02-18 15:27:58Z</time>
      </trkpt>
      <trkpt lat="43.44363" lon="6.86687">
        <ele>240.286224</ele>
        <time>2011-02-18 15:28:02Z</time>
      </trkpt>
      <trkpt lat="43.44363" lon="6.86687">
        <ele>240.286224</ele>
        <time>2011-02-18 15:28:06Z</time>
      </trkpt>
      <trkpt lat="43.44363" lon="6.86687">
        <ele>240.286224</ele>
        <time>2011-02-18 15:28:10Z</time>
      </trkpt>
      <trkpt lat="43.44365" lon="6.86699">
        <ele>235.286255</ele>
        <time>2011-02-18 15:28:14Z</time>
      </trkpt>
      <trkpt lat="43.44366" lon="6.867">
        <ele>234.286255</ele>
        <time>2011-02-18 15:28:18Z</time>
      </trkpt>
      <trkpt lat="43.4437" lon="6.86705">
        <ele>231.28627</ele>
        <time>2011-02-18 15:28:22Z</time>
      </trkpt>
      <trkpt lat="43.44369" lon="6.86708">
        <ele>230.28627</ele>
        <time>2011-02-18 15:28:26Z</time>
      </trkpt>
      <trkpt lat="43.44368" lon="6.86712">
        <ele>230.286285</ele>
        <time>2011-02-18 15:28:30Z</time>
      </trkpt>
      <trkpt lat="43.44368" lon="6.86718">
        <ele>229.286285</ele>
        <time>2011-02-18 15:28:34Z</time>
      </trkpt>
      <trkpt lat="43.44368" lon="6.86718">
        <ele>229.286285</ele>
        <time>2011-02-18 15:28:38Z</time>
      </trkpt>
      <trkpt lat="43.44365" lon="6.86728">
        <ele>231.286316</ele>
        <time>2011-02-18 15:28:42Z</time>
      </trkpt>
      <trkpt lat="43.44365" lon="6.86729">
        <ele>231.286316</ele>
        <time>2011-02-18 15:28:46Z</time>
      </trkpt>
      <trkpt lat="43.44365" lon="6.86729">
        <ele>231.286316</ele>
        <time>2011-02-18 15:28:50Z</time>
      </trkpt>
      <trkpt lat="43.44362" lon="6.86734">
        <ele>229.286316</ele>
        <time>2011-02-18 15:28:54Z</time>
      </trkpt>
      <trkpt lat="43.44357" lon="6.86739">
        <ele>231.286316</ele>
        <time>2011-02-18 15:28:58Z</time>
      </trkpt>
      <trkpt lat="43.44353" lon="6.86743">
        <ele>232.286316</ele>
        <time>2011-02-18 15:29:02Z</time>
      </trkpt>
      <trkpt lat="43.44351" lon="6.86746">
        <ele>233.286331</ele>
        <time>2011-02-18 15:29:06Z</time>
      </trkpt>
      <trkpt lat="43.44347" lon="6.86749">
        <ele>234.286331</ele>
        <time>2011-02-18 15:29:10Z</time>
      </trkpt>
      <trkpt lat="43.44346" lon="6.8675">
        <ele>234.286331</ele>
        <time>2011-02-18 15:29:14Z</time>
      </trkpt>
      <trkpt lat="43.44341" lon="6.86753">
        <ele>234.286331</ele>
        <time>2011-02-18 15:29:18Z</time>
      </trkpt>
      <trkpt lat="43.44341" lon="6.86753">
        <ele>234.286331</ele>
        <time>2011-02-18 15:29:22Z</time>
      </trkpt>
      <trkpt lat="43.44338" lon="6.86756">
        <ele>234.286331</ele>
        <time>2011-02-18 15:29:26Z</time>
      </trkpt>
      <trkpt lat="43.44336" lon="6.86757">
        <ele>233.286331</ele>
        <time>2011-02-18 15:29:30Z</time>
      </trkpt>
      <trkpt lat="43.44334" lon="6.86759">
        <ele>232.286346</ele>
        <time>2011-02-18 15:29:34Z</time>
      </trkpt>
      <trkpt lat="43.44332" lon="6.86762">
        <ele>232.286346</ele>
        <time>2011-02-18 15:29:38Z</time>
      </trkpt>
      <trkpt lat="43.4433" lon="6.86764">
        <ele>231.286346</ele>
        <time>2011-02-18 15:29:42Z</time>
      </trkpt>
      <trkpt lat="43.4433" lon="6.86765">
        <ele>231.286346</ele>
        <time>2011-02-18 15:29:46Z</time>
      </trkpt>
      <trkpt lat="43.44327" lon="6.8677">
        <ele>231.286346</ele>
        <time>2011-02-18 15:29:50Z</time>
      </trkpt>
      <trkpt lat="43.44326" lon="6.8677">
        <ele>231.286346</ele>
        <time>2011-02-18 15:29:54Z</time>
      </trkpt>
      <trkpt lat="43.44326" lon="6.8677">
        <ele>231.286346</ele>
        <time>2011-02-18 15:29:58Z</time>
      </trkpt>
      <trkpt lat="43.44325" lon="6.86774">
        <ele>231.286346</ele>
        <time>2011-02-18 15:30:02Z</time>
      </trkpt>
      <trkpt lat="43.44325" lon="6.86775">
        <ele>232.286346</ele>
        <time>2011-02-18 15:30:06Z</time>
      </trkpt>
      <trkpt lat="43.44324" lon="6.86776">
        <ele>232.286346</ele>
        <time>2011-02-18 15:30:10Z</time>
      </trkpt>
      <trkpt lat="43.44324" lon="6.86776">
        <ele>232.286346</ele>
        <time>2011-02-18 15:30:14Z</time>
      </trkpt>
      <trkpt lat="43.44323" lon="6.86777">
        <ele>233.286346</ele>
        <time>2011-02-18 15:30:18Z</time>
      </trkpt>
      <trkpt lat="43.44322" lon="6.86777">
        <ele>232.286346</ele>
        <time>2011-02-18 15:30:22Z</time>
      </trkpt>
      <trkpt lat="43.44322" lon="6.86777">
        <ele>232.286346</ele>
        <time>2011-02-18 15:30:26Z</time>
      </trkpt>
      <trkpt lat="43.44322" lon="6.86777">
        <ele>232.286346</ele>
        <time>2011-02-18 15:30:30Z</time>
      </trkpt>
      <trkpt lat="43.44322" lon="6.86777">
        <ele>232.286346</ele>
        <time>2011-02-18 15:30:34Z</time>
      </trkpt>
      <trkpt lat="43.44323" lon="6.86777">
        <ele>233.286346</ele>
        <time>2011-02-18 15:30:38Z</time>
      </trkpt>
      <trkpt lat="43.44323" lon="6.86777">
        <ele>234.286362</ele>
        <time>2011-02-18 15:30:42Z</time>
      </trkpt>
      <trkpt lat="43.44323" lon="6.86777">
        <ele>235.286362</ele>
        <time>2011-02-18 15:30:46Z</time>
      </trkpt>
      <trkpt lat="43.44323" lon="6.86777">
        <ele>236.286362</ele>
        <time>2011-02-18 15:30:50Z</time>
      </trkpt>
      <trkpt lat="43.44323" lon="6.86777">
        <ele>236.286362</ele>
        <time>2011-02-18 15:30:54Z</time>
      </trkpt>
      <trkpt lat="43.44323" lon="6.86778">
        <ele>236.286362</ele>
        <time>2011-02-18 15:30:58Z</time>
      </trkpt>
      <trkpt lat="43.44323" lon="6.86778">
        <ele>236.286362</ele>
        <time>2011-02-18 15:31:02Z</time>
      </trkpt>
      <trkpt lat="43.44323" lon="6.86778">
        <ele>236.286362</ele>
        <time>2011-02-18 15:31:06Z</time>
      </trkpt>
      <trkpt lat="43.44323" lon="6.86778">
        <ele>236.286362</ele>
        <time>2011-02-18 15:31:10Z</time>
      </trkpt>
      <trkpt lat="43.44323" lon="6.86778">
        <ele>238.286362</ele>
        <time>2011-02-18 15:31:14Z</time>
      </trkpt>
      <trkpt lat="43.44323" lon="6.86778">
        <ele>239.286362</ele>
        <time>2011-02-18 15:31:18Z</time>
      </trkpt>
      <trkpt lat="43.44321" lon="6.86781">
        <ele>243.286362</ele>
        <time>2011-02-18 15:31:22Z</time>
      </trkpt>
      <trkpt lat="43.44321" lon="6.86781">
        <ele>245.286362</ele>
        <time>2011-02-18 15:31:26Z</time>
      </trkpt>
      <trkpt lat="43.44321" lon="6.86781">
        <ele>246.286362</ele>
        <time>2011-02-18 15:31:30Z</time>
      </trkpt>
      <trkpt lat="43.44322" lon="6.86781">
        <ele>245.286362</ele>
        <time>2011-02-18 15:31:34Z</time>
      </trkpt>
      <trkpt lat="43.44322" lon="6.86782">
        <ele>245.286362</ele>
        <time>2011-02-18 15:31:38Z</time>
      </trkpt>
      <trkpt lat="43.44321" lon="6.86782">
        <ele>246.286377</ele>
        <time>2011-02-18 15:31:42Z</time>
      </trkpt>
      <trkpt lat="43.44321" lon="6.86784">
        <ele>246.286377</ele>
        <time>2011-02-18 15:31:46Z</time>
      </trkpt>
      <trkpt lat="43.44321" lon="6.86785">
        <ele>246.286377</ele>
        <time>2011-02-18 15:31:50Z</time>
      </trkpt>
      <trkpt lat="43.44321" lon="6.86787">
        <ele>245.286377</ele>
        <time>2011-02-18 15:31:54Z</time>
      </trkpt>
      <trkpt lat="43.44321" lon="6.86791">
        <ele>247.286377</ele>
        <time>2011-02-18 15:31:58Z</time>
      </trkpt>
      <trkpt lat="43.44321" lon="6.86794">
        <ele>246.286392</ele>
        <time>2011-02-18 15:32:02Z</time>
      </trkpt>
      <trkpt lat="43.44321" lon="6.86797">
        <ele>246.286407</ele>
        <time>2011-02-18 15:32:06Z</time>
      </trkpt>
      <trkpt lat="43.44322" lon="6.868">
        <ele>246.286407</ele>
        <time>2011-02-18 15:32:10Z</time>
      </trkpt>
      <trkpt lat="43.44322" lon="6.868">
        <ele>246.286407</ele>
        <time>2011-02-18 15:32:14Z</time>
      </trkpt>
      <trkpt lat="43.44323" lon="6.86807">
        <ele>245.286438</ele>
        <time>2011-02-18 15:32:18Z</time>
      </trkpt>
      <trkpt lat="43.44323" lon="6.8681">
        <ele>242.286438</ele>
        <time>2011-02-18 15:32:22Z</time>
      </trkpt>
      <trkpt lat="43.44323" lon="6.86812">
        <ele>241.286438</ele>
        <time>2011-02-18 15:32:26Z</time>
      </trkpt>
      <trkpt lat="43.44323" lon="6.86812">
        <ele>241.286438</ele>
        <time>2011-02-18 15:32:30Z</time>
      </trkpt>
      <trkpt lat="43.44324" lon="6.86817">
        <ele>239.286453</ele>
        <time>2011-02-18 15:32:34Z</time>
      </trkpt>
      <trkpt lat="43.44324" lon="6.86822">
        <ele>238.286469</ele>
        <time>2011-02-18 15:32:38Z</time>
      </trkpt>
      <trkpt lat="43.44324" lon="6.86826">
        <ele>237.286469</ele>
        <time>2011-02-18 15:32:42Z</time>
      </trkpt>
      <trkpt lat="43.44325" lon="6.86835">
        <ele>237.286499</ele>
        <time>2011-02-18 15:32:46Z</time>
      </trkpt>
      <trkpt lat="43.44325" lon="6.86838">
        <ele>236.286499</ele>
        <time>2011-02-18 15:32:50Z</time>
      </trkpt>
      <trkpt lat="43.44323" lon="6.86842">
        <ele>236.286499</ele>
        <time>2011-02-18 15:32:54Z</time>
      </trkpt>
      <trkpt lat="43.44322" lon="6.86847">
        <ele>235.286514</ele>
        <time>2011-02-18 15:32:58Z</time>
      </trkpt>
      <trkpt lat="43.44321" lon="6.86849">
        <ele>234.28653</ele>
        <time>2011-02-18 15:33:02Z</time>
      </trkpt>
      <trkpt lat="43.4432" lon="6.86853">
        <ele>232.28653</ele>
        <time>2011-02-18 15:33:06Z</time>
      </trkpt>
      <trkpt lat="43.4432" lon="6.86857">
        <ele>233.28653</ele>
        <time>2011-02-18 15:33:10Z</time>
      </trkpt>
      <trkpt lat="43.44319" lon="6.86862">
        <ele>233.286545</ele>
        <time>2011-02-18 15:33:14Z</time>
      </trkpt>
      <trkpt lat="43.44318" lon="6.86866">
        <ele>233.28656</ele>
        <time>2011-02-18 15:33:18Z</time>
      </trkpt>
      <trkpt lat="43.44317" lon="6.86871">
        <ele>232.28656</ele>
        <time>2011-02-18 15:33:22Z</time>
      </trkpt>
      <trkpt lat="43.44315" lon="6.86875">
        <ele>228.28656</ele>
        <time>2011-02-18 15:33:26Z</time>
      </trkpt>
      <trkpt lat="43.44315" lon="6.86877">
        <ele>226.286575</ele>
        <time>2011-02-18 15:33:30Z</time>
      </trkpt>
      <trkpt lat="43.44315" lon="6.86877">
        <ele>226.286575</ele>
        <time>2011-02-18 15:33:34Z</time>
      </trkpt>
      <trkpt lat="43.44311" lon="6.86886">
        <ele>224.286591</ele>
        <time>2011-02-18 15:33:38Z</time>
      </trkpt>
      <trkpt lat="43.44309" lon="6.86889">
        <ele>224.286591</ele>
        <time>2011-02-18 15:33:42Z</time>
      </trkpt>
      <trkpt lat="43.44307" lon="6.86891">
        <ele>223.286591</ele>
        <time>2011-02-18 15:33:46Z</time>
      </trkpt>
      <trkpt lat="43.44304" lon="6.86892">
        <ele>224.286591</ele>
        <time>2011-02-18 15:33:50Z</time>
      </trkpt>
      <trkpt lat="43.44302" lon="6.86892">
        <ele>224.286591</ele>
        <time>2011-02-18 15:33:54Z</time>
      </trkpt>
      <trkpt lat="43.44296" lon="6.8689">
        <ele>225.286575</ele>
        <time>2011-02-18 15:33:58Z</time>
      </trkpt>
      <trkpt lat="43.44292" lon="6.86888">
        <ele>225.28656</ele>
        <time>2011-02-18 15:34:02Z</time>
      </trkpt>
      <trkpt lat="43.44292" lon="6.86888">
        <ele>225.28656</ele>
        <time>2011-02-18 15:34:06Z</time>
      </trkpt>
      <trkpt lat="43.44289" lon="6.86881">
        <ele>225.28653</ele>
        <time>2011-02-18 15:34:10Z</time>
      </trkpt>
      <trkpt lat="43.44288" lon="6.86873">
        <ele>225.28653</ele>
        <time>2011-02-18 15:34:14Z</time>
      </trkpt>
      <trkpt lat="43.44288" lon="6.8687">
        <ele>225.286514</ele>
        <time>2011-02-18 15:34:18Z</time>
      </trkpt>
      <trkpt lat="43.44288" lon="6.8687">
        <ele>225.286514</ele>
        <time>2011-02-18 15:34:22Z</time>
      </trkpt>
      <trkpt lat="43.44289" lon="6.86865">
        <ele>225.286499</ele>
        <time>2011-02-18 15:34:26Z</time>
      </trkpt>
      <trkpt lat="43.44289" lon="6.86863">
        <ele>225.286499</ele>
        <time>2011-02-18 15:34:30Z</time>
      </trkpt>
      <trkpt lat="43.44289" lon="6.86863">
        <ele>225.286499</ele>
        <time>2011-02-18 15:34:34Z</time>
      </trkpt>
      <trkpt lat="43.44288" lon="6.86855">
        <ele>224.286484</ele>
        <time>2011-02-18 15:34:38Z</time>
      </trkpt>
      <trkpt lat="43.44287" lon="6.86849">
        <ele>222.286469</ele>
        <time>2011-02-18 15:34:42Z</time>
      </trkpt>
      <trkpt lat="43.44286" lon="6.86846">
        <ele>221.286453</ele>
        <time>2011-02-18 15:34:46Z</time>
      </trkpt>
      <trkpt lat="43.44284" lon="6.8684">
        <ele>221.286438</ele>
        <time>2011-02-18 15:34:50Z</time>
      </trkpt>
      <trkpt lat="43.44284" lon="6.86838">
        <ele>221.286438</ele>
        <time>2011-02-18 15:34:54Z</time>
      </trkpt>
      <trkpt lat="43.44283" lon="6.86833">
        <ele>221.286423</ele>
        <time>2011-02-18 15:34:58Z</time>
      </trkpt>
      <trkpt lat="43.44282" lon="6.8683">
        <ele>221.286407</ele>
        <time>2011-02-18 15:35:02Z</time>
      </trkpt>
      <trkpt lat="43.44281" lon="6.86824">
        <ele>222.286407</ele>
        <time>2011-02-18 15:35:06Z</time>
      </trkpt>
      <trkpt lat="43.4428" lon="6.86821">
        <ele>221.286392</ele>
        <time>2011-02-18 15:35:10Z</time>
      </trkpt>
      <trkpt lat="43.4428" lon="6.86819">
        <ele>221.286377</ele>
        <time>2011-02-18 15:35:14Z</time>
      </trkpt>
      <trkpt lat="43.4428" lon="6.86819">
        <ele>221.286377</ele>
        <time>2011-02-18 15:35:18Z</time>
      </trkpt>
      <trkpt lat="43.44278" lon="6.86808">
        <ele>218.286346</ele>
        <time>2011-02-18 15:35:22Z</time>
      </trkpt>
      <trkpt lat="43.44276" lon="6.86805">
        <ele>217.286346</ele>
        <time>2011-02-18 15:35:26Z</time>
      </trkpt>
      <trkpt lat="43.44274" lon="6.86801">
        <ele>217.286331</ele>
        <time>2011-02-18 15:35:30Z</time>
      </trkpt>
      <trkpt lat="43.44273" lon="6.86797">
        <ele>216.286316</ele>
        <time>2011-02-18 15:35:34Z</time>
      </trkpt>
      <trkpt lat="43.4427" lon="6.86792">
        <ele>215.286316</ele>
        <time>2011-02-18 15:35:38Z</time>
      </trkpt>
      <trkpt lat="43.44268" lon="6.86787">
        <ele>214.286285</ele>
        <time>2011-02-18 15:35:42Z</time>
      </trkpt>
      <trkpt lat="43.44265" lon="6.86784">
        <ele>214.286285</ele>
        <time>2011-02-18 15:35:46Z</time>
      </trkpt>
      <trkpt lat="43.4426" lon="6.86778">
        <ele>214.286255</ele>
        <time>2011-02-18 15:35:50Z</time>
      </trkpt>
      <trkpt lat="43.44257" lon="6.86777">
        <ele>213.286255</ele>
        <time>2011-02-18 15:35:54Z</time>
      </trkpt>
      <trkpt lat="43.44255" lon="6.86781">
        <ele>211.286255</ele>
        <time>2011-02-18 15:35:58Z</time>
      </trkpt>
      <trkpt lat="43.44255" lon="6.86781">
        <ele>211.286255</ele>
        <time>2011-02-18 15:36:02Z</time>
      </trkpt>
      <trkpt lat="43.44254" lon="6.86788">
        <ele>208.28627</ele>
        <time>2011-02-18 15:36:06Z</time>
      </trkpt>
      <trkpt lat="43.44253" lon="6.86792">
        <ele>206.286285</ele>
        <time>2011-02-18 15:36:10Z</time>
      </trkpt>
      <trkpt lat="43.44253" lon="6.86795">
        <ele>204.286285</ele>
        <time>2011-02-18 15:36:14Z</time>
      </trkpt>
      <trkpt lat="43.44254" lon="6.86801">
        <ele>202.286301</ele>
        <time>2011-02-18 15:36:18Z</time>
      </trkpt>
      <trkpt lat="43.44255" lon="6.86805">
        <ele>201.286316</ele>
        <time>2011-02-18 15:36:22Z</time>
      </trkpt>
      <trkpt lat="43.44255" lon="6.86809">
        <ele>200.286316</ele>
        <time>2011-02-18 15:36:26Z</time>
      </trkpt>
      <trkpt lat="43.44256" lon="6.86815">
        <ele>199.286346</ele>
        <time>2011-02-18 15:36:30Z</time>
      </trkpt>
      <trkpt lat="43.44256" lon="6.86818">
        <ele>198.286346</ele>
        <time>2011-02-18 15:36:34Z</time>
      </trkpt>
      <trkpt lat="43.44255" lon="6.86825">
        <ele>197.286362</ele>
        <time>2011-02-18 15:36:38Z</time>
      </trkpt>
      <trkpt lat="43.44254" lon="6.8683">
        <ele>197.286377</ele>
        <time>2011-02-18 15:36:42Z</time>
      </trkpt>
      <trkpt lat="43.44254" lon="6.86832">
        <ele>197.286377</ele>
        <time>2011-02-18 15:36:46Z</time>
      </trkpt>
      <trkpt lat="43.44252" lon="6.86839">
        <ele>197.286377</ele>
        <time>2011-02-18 15:36:50Z</time>
      </trkpt>
      <trkpt lat="43.4425" lon="6.86843">
        <ele>197.286392</ele>
        <time>2011-02-18 15:36:54Z</time>
      </trkpt>
      <trkpt lat="43.4425" lon="6.86844">
        <ele>197.286392</ele>
        <time>2011-02-18 15:36:58Z</time>
      </trkpt>
      <trkpt lat="43.44247" lon="6.86851">
        <ele>196.286407</ele>
        <time>2011-02-18 15:37:02Z</time>
      </trkpt>
      <trkpt lat="43.44245" lon="6.86855">
        <ele>195.286407</ele>
        <time>2011-02-18 15:37:06Z</time>
      </trkpt>
      <trkpt lat="43.44243" lon="6.86859">
        <ele>193.286407</ele>
        <time>2011-02-18 15:37:10Z</time>
      </trkpt>
      <trkpt lat="43.4424" lon="6.86862">
        <ele>192.286423</ele>
        <time>2011-02-18 15:37:14Z</time>
      </trkpt>
      <trkpt lat="43.4424" lon="6.86862">
        <ele>192.286423</ele>
        <time>2011-02-18 15:37:18Z</time>
      </trkpt>
      <trkpt lat="43.4424" lon="6.86862">
        <ele>192.286423</ele>
        <time>2011-02-18 15:37:22Z</time>
      </trkpt>
      <trkpt lat="43.4423" lon="6.86869">
        <ele>192.286423</ele>
        <time>2011-02-18 15:37:26Z</time>
      </trkpt>
      <trkpt lat="43.44225" lon="6.86873">
        <ele>192.286423</ele>
        <time>2011-02-18 15:37:30Z</time>
      </trkpt>
      <trkpt lat="43.4422" lon="6.86875">
        <ele>192.286407</ele>
        <time>2011-02-18 15:37:34Z</time>
      </trkpt>
      <trkpt lat="43.44213" lon="6.86878">
        <ele>191.286407</ele>
        <time>2011-02-18 15:37:38Z</time>
      </trkpt>
      <trkpt lat="43.44209" lon="6.86879">
        <ele>191.286407</ele>
        <time>2011-02-18 15:37:42Z</time>
      </trkpt>
      <trkpt lat="43.44202" lon="6.8688">
        <ele>191.286407</ele>
        <time>2011-02-18 15:37:46Z</time>
      </trkpt>
      <trkpt lat="43.44201" lon="6.8688">
        <ele>191.286407</ele>
        <time>2011-02-18 15:37:50Z</time>
      </trkpt>
      <trkpt lat="43.44201" lon="6.8688">
        <ele>191.286407</ele>
        <time>2011-02-18 15:37:54Z</time>
      </trkpt>
      <trkpt lat="43.44201" lon="6.8688">
        <ele>191.286407</ele>
        <time>2011-02-18 15:37:58Z</time>
      </trkpt>
      <trkpt lat="43.44199" lon="6.86877">
        <ele>186.286392</ele>
        <time>2011-02-18 15:38:02Z</time>
      </trkpt>
      <trkpt lat="43.44202" lon="6.86875">
        <ele>186.286392</ele>
        <time>2011-02-18 15:38:06Z</time>
      </trkpt>
      <trkpt lat="43.44202" lon="6.86875">
        <ele>186.286392</ele>
        <time>2011-02-18 15:38:10Z</time>
      </trkpt>
      <trkpt lat="43.44211" lon="6.86868">
        <ele>185.286392</ele>
        <time>2011-02-18 15:38:14Z</time>
      </trkpt>
      <trkpt lat="43.44215" lon="6.86867">
        <ele>185.286392</ele>
        <time>2011-02-18 15:38:18Z</time>
      </trkpt>
      <trkpt lat="43.44218" lon="6.86865">
        <ele>186.286392</ele>
        <time>2011-02-18 15:38:22Z</time>
      </trkpt>
      <trkpt lat="43.44219" lon="6.86863">
        <ele>186.286392</ele>
        <time>2011-02-18 15:38:26Z</time>
      </trkpt>
      <trkpt lat="43.44219" lon="6.86863">
        <ele>186.286392</ele>
        <time>2011-02-18 15:38:30Z</time>
      </trkpt>
      <trkpt lat="43.44225" lon="6.86856">
        <ele>189.286377</ele>
        <time>2011-02-18 15:38:34Z</time>
      </trkpt>
      <trkpt lat="43.44226" lon="6.86851">
        <ele>190.286377</ele>
        <time>2011-02-18 15:38:38Z</time>
      </trkpt>
      <trkpt lat="43.44227" lon="6.86847">
        <ele>190.286362</ele>
        <time>2011-02-18 15:38:42Z</time>
      </trkpt>
      <trkpt lat="43.44227" lon="6.86843">
        <ele>189.286362</ele>
        <time>2011-02-18 15:38:46Z</time>
      </trkpt>
      <trkpt lat="43.44228" lon="6.86839">
        <ele>189.286346</ele>
        <time>2011-02-18 15:38:50Z</time>
      </trkpt>
      <trkpt lat="43.44228" lon="6.86834">
        <ele>189.286346</ele>
        <time>2011-02-18 15:38:54Z</time>
      </trkpt>
      <trkpt lat="43.44229" lon="6.86827">
        <ele>189.286316</ele>
        <time>2011-02-18 15:38:58Z</time>
      </trkpt>
      <trkpt lat="43.44228" lon="6.86823">
        <ele>189.286316</ele>
        <time>2011-02-18 15:39:02Z</time>
      </trkpt>
      <trkpt lat="43.44228" lon="6.86817">
        <ele>188.286301</ele>
        <time>2011-02-18 15:39:06Z</time>
      </trkpt>
      <trkpt lat="43.44227" lon="6.86811">
        <ele>188.286285</ele>
        <time>2011-02-18 15:39:10Z</time>
      </trkpt>
      <trkpt lat="43.44226" lon="6.86802">
        <ele>188.286255</ele>
        <time>2011-02-18 15:39:14Z</time>
      </trkpt>
      <trkpt lat="43.44225" lon="6.86795">
        <ele>187.286255</ele>
        <time>2011-02-18 15:39:18Z</time>
      </trkpt>
      <trkpt lat="43.44224" lon="6.8679">
        <ele>187.286224</ele>
        <time>2011-02-18 15:39:22Z</time>
      </trkpt>
      <trkpt lat="43.44224" lon="6.86786">
        <ele>187.286224</ele>
        <time>2011-02-18 15:39:26Z</time>
      </trkpt>
      <trkpt lat="43.44224" lon="6.86786">
        <ele>187.286224</ele>
        <time>2011-02-18 15:39:30Z</time>
      </trkpt>
      <trkpt lat="43.44224" lon="6.86786">
        <ele>187.286224</ele>
        <time>2011-02-18 15:39:34Z</time>
      </trkpt>
      <trkpt lat="43.44227" lon="6.86777">
        <ele>188.286209</ele>
        <time>2011-02-18 15:39:38Z</time>
      </trkpt>
      <trkpt lat="43.44228" lon="6.86772">
        <ele>188.286194</ele>
        <time>2011-02-18 15:39:42Z</time>
      </trkpt>
      <trkpt lat="43.4423" lon="6.86766">
        <ele>189.286194</ele>
        <time>2011-02-18 15:39:46Z</time>
      </trkpt>
      <trkpt lat="43.4423" lon="6.86765">
        <ele>189.286179</ele>
        <time>2011-02-18 15:39:50Z</time>
      </trkpt>
      <trkpt lat="43.4423" lon="6.86765">
        <ele>189.286179</ele>
        <time>2011-02-18 15:39:54Z</time>
      </trkpt>
      <trkpt lat="43.4423" lon="6.86765">
        <ele>189.286179</ele>
        <time>2011-02-18 15:39:58Z</time>
      </trkpt>
      <trkpt lat="43.4423" lon="6.86765">
        <ele>189.286179</ele>
        <time>2011-02-18 15:40:02Z</time>
      </trkpt>
      <trkpt lat="43.4423" lon="6.86765">
        <ele>189.286179</ele>
        <time>2011-02-18 15:40:06Z</time>
      </trkpt>
      <trkpt lat="43.44221" lon="6.86745">
        <ele>188.286133</ele>
        <time>2011-02-18 15:40:10Z</time>
      </trkpt>
      <trkpt lat="43.44217" lon="6.86745">
        <ele>187.286118</ele>
        <time>2011-02-18 15:40:14Z</time>
      </trkpt>
      <trkpt lat="43.44216" lon="6.86746">
        <ele>187.286118</ele>
        <time>2011-02-18 15:40:18Z</time>
      </trkpt>
      <trkpt lat="43.4421" lon="6.86752">
        <ele>189.286133</ele>
        <time>2011-02-18 15:40:22Z</time>
      </trkpt>
      <trkpt lat="43.44206" lon="6.86758">
        <ele>193.286133</ele>
        <time>2011-02-18 15:40:26Z</time>
      </trkpt>
      <trkpt lat="43.44205" lon="6.8676">
        <ele>193.286133</ele>
        <time>2011-02-18 15:40:30Z</time>
      </trkpt>
      <trkpt lat="43.442" lon="6.8677">
        <ele>195.286148</ele>
        <time>2011-02-18 15:40:34Z</time>
      </trkpt>
      <trkpt lat="43.44199" lon="6.86775">
        <ele>195.286163</ele>
        <time>2011-02-18 15:40:38Z</time>
      </trkpt>
      <trkpt lat="43.44197" lon="6.8678">
        <ele>196.286163</ele>
        <time>2011-02-18 15:40:42Z</time>
      </trkpt>
      <trkpt lat="43.44196" lon="6.86783">
        <ele>197.286163</ele>
        <time>2011-02-18 15:40:46Z</time>
      </trkpt>
      <trkpt lat="43.44196" lon="6.86785">
        <ele>198.286179</ele>
        <time>2011-02-18 15:40:50Z</time>
      </trkpt>
      <trkpt lat="43.44195" lon="6.86788">
        <ele>200.286194</ele>
        <time>2011-02-18 15:40:54Z</time>
      </trkpt>
      <trkpt lat="43.44194" lon="6.8679">
        <ele>200.286194</ele>
        <time>2011-02-18 15:40:58Z</time>
      </trkpt>
      <trkpt lat="43.44193" lon="6.86791">
        <ele>200.286179</ele>
        <time>2011-02-18 15:41:02Z</time>
      </trkpt>
      <trkpt lat="43.44193" lon="6.86791">
        <ele>200.286179</ele>
        <time>2011-02-18 15:41:06Z</time>
      </trkpt>
      <trkpt lat="43.4419" lon="6.86799">
        <ele>199.286194</ele>
        <time>2011-02-18 15:41:10Z</time>
      </trkpt>
      <trkpt lat="43.44189" lon="6.86803">
        <ele>199.286209</ele>
        <time>2011-02-18 15:41:14Z</time>
      </trkpt>
      <trkpt lat="43.44189" lon="6.86804">
        <ele>200.286209</ele>
        <time>2011-02-18 15:41:18Z</time>
      </trkpt>
      <trkpt lat="43.44186" lon="6.8681">
        <ele>199.286224</ele>
        <time>2011-02-18 15:41:22Z</time>
      </trkpt>
      <trkpt lat="43.44185" lon="6.8681">
        <ele>198.286224</ele>
        <time>2011-02-18 15:41:26Z</time>
      </trkpt>
      <trkpt lat="43.4418" lon="6.86814">
        <ele>197.286224</ele>
        <time>2011-02-18 15:41:30Z</time>
      </trkpt>
      <trkpt lat="43.44174" lon="6.86815">
        <ele>196.286209</ele>
        <time>2011-02-18 15:41:34Z</time>
      </trkpt>
      <trkpt lat="43.44168" lon="6.86815">
        <ele>194.286194</ele>
        <time>2011-02-18 15:41:38Z</time>
      </trkpt>
      <trkpt lat="43.44164" lon="6.86817">
        <ele>192.286194</ele>
        <time>2011-02-18 15:41:42Z</time>
      </trkpt>
      <trkpt lat="43.44162" lon="6.86817">
        <ele>190.286194</ele>
        <time>2011-02-18 15:41:46Z</time>
      </trkpt>
      <trkpt lat="43.44159" lon="6.8682">
        <ele>186.286194</ele>
        <time>2011-02-18 15:41:50Z</time>
      </trkpt>
      <trkpt lat="43.44156" lon="6.86823">
        <ele>182.286194</ele>
        <time>2011-02-18 15:41:54Z</time>
      </trkpt>
      <trkpt lat="43.44155" lon="6.86824">
        <ele>182.286194</ele>
        <time>2011-02-18 15:41:58Z</time>
      </trkpt>
      <trkpt lat="43.4415" lon="6.86827">
        <ele>179.286194</ele>
        <time>2011-02-18 15:42:02Z</time>
      </trkpt>
      <trkpt lat="43.44148" lon="6.86827">
        <ele>178.286194</ele>
        <time>2011-02-18 15:42:06Z</time>
      </trkpt>
      <trkpt lat="43.44145" lon="6.86828">
        <ele>176.286194</ele>
        <time>2011-02-18 15:42:10Z</time>
      </trkpt>
      <trkpt lat="43.44144" lon="6.86829">
        <ele>175.286194</ele>
        <time>2011-02-18 15:42:14Z</time>
      </trkpt>
      <trkpt lat="43.44138" lon="6.86831">
        <ele>173.286194</ele>
        <time>2011-02-18 15:42:18Z</time>
      </trkpt>
      <trkpt lat="43.44133" lon="6.86833">
        <ele>171.286194</ele>
        <time>2011-02-18 15:42:22Z</time>
      </trkpt>
      <trkpt lat="43.44131" lon="6.86834">
        <ele>171.286194</ele>
        <time>2011-02-18 15:42:26Z</time>
      </trkpt>
      <trkpt lat="43.44128" lon="6.86835">
        <ele>170.286179</ele>
        <time>2011-02-18 15:42:30Z</time>
      </trkpt>
      <trkpt lat="43.44128" lon="6.86835">
        <ele>170.286179</ele>
        <time>2011-02-18 15:42:34Z</time>
      </trkpt>
      <trkpt lat="43.4412" lon="6.86841">
        <ele>167.286194</ele>
        <time>2011-02-18 15:42:38Z</time>
      </trkpt>
      <trkpt lat="43.4412" lon="6.86841">
        <ele>167.286194</ele>
        <time>2011-02-18 15:42:42Z</time>
      </trkpt>
      <trkpt lat="43.44114" lon="6.86847">
        <ele>164.286194</ele>
        <time>2011-02-18 15:42:46Z</time>
      </trkpt>
      <trkpt lat="43.44114" lon="6.86847">
        <ele>164.286194</ele>
        <time>2011-02-18 15:42:50Z</time>
      </trkpt>
      <trkpt lat="43.44112" lon="6.86846">
        <ele>158.286194</ele>
        <time>2011-02-18 15:42:54Z</time>
      </trkpt>
      <trkpt lat="43.44112" lon="6.86845">
        <ele>158.286179</ele>
        <time>2011-02-18 15:42:58Z</time>
      </trkpt>
      <trkpt lat="43.44112" lon="6.86845">
        <ele>158.286179</ele>
        <time>2011-02-18 15:43:02Z</time>
      </trkpt>
      <trkpt lat="43.44112" lon="6.86845">
        <ele>158.286179</ele>
        <time>2011-02-18 15:43:06Z</time>
      </trkpt>
      <trkpt lat="43.44117" lon="6.86836">
        <ele>155.286163</ele>
        <time>2011-02-18 15:43:10Z</time>
      </trkpt>
      <trkpt lat="43.44121" lon="6.8683">
        <ele>155.286163</ele>
        <time>2011-02-18 15:43:14Z</time>
      </trkpt>
      <trkpt lat="43.44125" lon="6.86825">
        <ele>155.286163</ele>
        <time>2011-02-18 15:43:18Z</time>
      </trkpt>
      <trkpt lat="43.4413" lon="6.86821">
        <ele>155.286163</ele>
        <time>2011-02-18 15:43:22Z</time>
      </trkpt>
      <trkpt lat="43.44131" lon="6.86817">
        <ele>155.286148</ele>
        <time>2011-02-18 15:43:26Z</time>
      </trkpt>
      <trkpt lat="43.44133" lon="6.86816">
        <ele>154.286148</ele>
        <time>2011-02-18 15:43:30Z</time>
      </trkpt>
      <trkpt lat="43.44137" lon="6.86811">
        <ele>154.286148</ele>
        <time>2011-02-18 15:43:34Z</time>
      </trkpt>
      <trkpt lat="43.4414" lon="6.86806">
        <ele>154.286133</ele>
        <time>2011-02-18 15:43:38Z</time>
      </trkpt>
      <trkpt lat="43.44141" lon="6.86801">
        <ele>154.286133</ele>
        <time>2011-02-18 15:43:42Z</time>
      </trkpt>
      <trkpt lat="43.44141" lon="6.86801">
        <ele>154.286133</ele>
        <time>2011-02-18 15:43:46Z</time>
      </trkpt>
      <trkpt lat="43.44145" lon="6.86789">
        <ele>155.286102</ele>
        <time>2011-02-18 15:43:50Z</time>
      </trkpt>
      <trkpt lat="43.44146" lon="6.86785">
        <ele>155.286102</ele>
        <time>2011-02-18 15:43:54Z</time>
      </trkpt>
      <trkpt lat="43.44146" lon="6.86784">
        <ele>155.286102</ele>
        <time>2011-02-18 15:43:58Z</time>
      </trkpt>
      <trkpt lat="43.44146" lon="6.86784">
        <ele>155.286102</ele>
        <time>2011-02-18 15:44:02Z</time>
      </trkpt>
      <trkpt lat="43.44148" lon="6.86771">
        <ele>156.286072</ele>
        <time>2011-02-18 15:44:06Z</time>
      </trkpt>
      <trkpt lat="43.44148" lon="6.86771">
        <ele>156.286072</ele>
        <time>2011-02-18 15:44:10Z</time>
      </trkpt>
      <trkpt lat="43.44149" lon="6.86761">
        <ele>156.286041</ele>
        <time>2011-02-18 15:44:14Z</time>
      </trkpt>
      <trkpt lat="43.4415" lon="6.86754">
        <ele>156.286041</ele>
        <time>2011-02-18 15:44:18Z</time>
      </trkpt>
      <trkpt lat="43.44151" lon="6.86747">
        <ele>156.286011</ele>
        <time>2011-02-18 15:44:22Z</time>
      </trkpt>
      <trkpt lat="43.44152" lon="6.86736">
        <ele>155.285995</ele>
        <time>2011-02-18 15:44:26Z</time>
      </trkpt>
      <trkpt lat="43.44153" lon="6.86731">
        <ele>155.28598</ele>
        <time>2011-02-18 15:44:30Z</time>
      </trkpt>
      <trkpt lat="43.44154" lon="6.86727">
        <ele>154.28598</ele>
        <time>2011-02-18 15:44:34Z</time>
      </trkpt>
      <trkpt lat="43.44156" lon="6.86723">
        <ele>154.28598</ele>
        <time>2011-02-18 15:44:38Z</time>
      </trkpt>
      <trkpt lat="43.44157" lon="6.8672">
        <ele>154.285965</ele>
        <time>2011-02-18 15:44:42Z</time>
      </trkpt>
      <trkpt lat="43.44159" lon="6.86714">
        <ele>155.28595</ele>
        <time>2011-02-18 15:44:46Z</time>
      </trkpt>
      <trkpt lat="43.44161" lon="6.86709">
        <ele>155.28595</ele>
        <time>2011-02-18 15:44:50Z</time>
      </trkpt>
      <trkpt lat="43.44161" lon="6.86709">
        <ele>155.28595</ele>
        <time>2011-02-18 15:44:54Z</time>
      </trkpt>
      <trkpt lat="43.44161" lon="6.86699">
        <ele>155.285919</ele>
        <time>2011-02-18 15:44:58Z</time>
      </trkpt>
      <trkpt lat="43.44161" lon="6.86695">
        <ele>155.285919</ele>
        <time>2011-02-18 15:45:02Z</time>
      </trkpt>
      <trkpt lat="43.4416" lon="6.86689">
        <ele>154.285904</ele>
        <time>2011-02-18 15:45:06Z</time>
      </trkpt>
      <trkpt lat="43.44159" lon="6.86687">
        <ele>154.285889</ele>
        <time>2011-02-18 15:45:10Z</time>
      </trkpt>
      <trkpt lat="43.44159" lon="6.86687">
        <ele>154.285889</ele>
        <time>2011-02-18 15:45:14Z</time>
      </trkpt>
      <trkpt lat="43.44156" lon="6.86675">
        <ele>151.285858</ele>
        <time>2011-02-18 15:45:18Z</time>
      </trkpt>
      <trkpt lat="43.44156" lon="6.86675">
        <ele>151.285858</ele>
        <time>2011-02-18 15:45:22Z</time>
      </trkpt>
      <trkpt lat="43.44153" lon="6.86664">
        <ele>150.285828</ele>
        <time>2011-02-18 15:45:26Z</time>
      </trkpt>
      <trkpt lat="43.44151" lon="6.8666">
        <ele>149.285828</ele>
        <time>2011-02-18 15:45:30Z</time>
      </trkpt>
      <trkpt lat="43.44149" lon="6.86656">
        <ele>149.285812</ele>
        <time>2011-02-18 15:45:34Z</time>
      </trkpt>
      <trkpt lat="43.44148" lon="6.86655">
        <ele>149.285797</ele>
        <time>2011-02-18 15:45:38Z</time>
      </trkpt>
      <trkpt lat="43.44148" lon="6.86655">
        <ele>149.285797</ele>
        <time>2011-02-18 15:45:42Z</time>
      </trkpt>
      <trkpt lat="43.44148" lon="6.86655">
        <ele>149.285797</ele>
        <time>2011-02-18 15:45:46Z</time>
      </trkpt>
      <trkpt lat="43.44143" lon="6.86642">
        <ele>144.285767</ele>
        <time>2011-02-18 15:45:50Z</time>
      </trkpt>
      <trkpt lat="43.44142" lon="6.86635">
        <ele>142.285751</ele>
        <time>2011-02-18 15:45:54Z</time>
      </trkpt>
      <trkpt lat="43.44141" lon="6.86627">
        <ele>141.285736</ele>
        <time>2011-02-18 15:45:58Z</time>
      </trkpt>
      <trkpt lat="43.44141" lon="6.86622">
        <ele>140.285721</ele>
        <time>2011-02-18 15:46:02Z</time>
      </trkpt>
      <trkpt lat="43.44141" lon="6.86612">
        <ele>138.28569</ele>
        <time>2011-02-18 15:46:06Z</time>
      </trkpt>
      <trkpt lat="43.44141" lon="6.86607">
        <ele>137.285675</ele>
        <time>2011-02-18 15:46:10Z</time>
      </trkpt>
      <trkpt lat="43.44141" lon="6.86599">
        <ele>136.28566</ele>
        <time>2011-02-18 15:46:14Z</time>
      </trkpt>
      <trkpt lat="43.44141" lon="6.86597">
        <ele>136.28566</ele>
        <time>2011-02-18 15:46:18Z</time>
      </trkpt>
      <trkpt lat="43.44141" lon="6.86597">
        <ele>136.28566</ele>
        <time>2011-02-18 15:46:22Z</time>
      </trkpt>
      <trkpt lat="43.44142" lon="6.86586">
        <ele>133.285645</ele>
        <time>2011-02-18 15:46:26Z</time>
      </trkpt>
      <trkpt lat="43.44143" lon="6.86582">
        <ele>133.285629</ele>
        <time>2011-02-18 15:46:30Z</time>
      </trkpt>
      <trkpt lat="43.44143" lon="6.86582">
        <ele>133.285629</ele>
        <time>2011-02-18 15:46:34Z</time>
      </trkpt>
      <trkpt lat="43.44144" lon="6.86577">
        <ele>132.285614</ele>
        <time>2011-02-18 15:46:38Z</time>
      </trkpt>
      <trkpt lat="43.44146" lon="6.86573">
        <ele>132.285614</ele>
        <time>2011-02-18 15:46:42Z</time>
      </trkpt>
      <trkpt lat="43.44146" lon="6.86571">
        <ele>132.285614</ele>
        <time>2011-02-18 15:46:46Z</time>
      </trkpt>
      <trkpt lat="43.44147" lon="6.86566">
        <ele>134.285599</ele>
        <time>2011-02-18 15:46:50Z</time>
      </trkpt>
      <trkpt lat="43.44147" lon="6.86564">
        <ele>135.285599</ele>
        <time>2011-02-18 15:46:54Z</time>
      </trkpt>
      <trkpt lat="43.44147" lon="6.86564">
        <ele>135.285599</ele>
        <time>2011-02-18 15:46:58Z</time>
      </trkpt>
      <trkpt lat="43.44147" lon="6.86562">
        <ele>134.285583</ele>
        <time>2011-02-18 15:47:02Z</time>
      </trkpt>
      <trkpt lat="43.44147" lon="6.86561">
        <ele>134.285583</ele>
        <time>2011-02-18 15:47:06Z</time>
      </trkpt>
      <trkpt lat="43.44148" lon="6.86558">
        <ele>131.285583</ele>
        <time>2011-02-18 15:47:10Z</time>
      </trkpt>
      <trkpt lat="43.44148" lon="6.86555">
        <ele>130.285583</ele>
        <time>2011-02-18 15:47:14Z</time>
      </trkpt>
      <trkpt lat="43.44149" lon="6.86553">
        <ele>130.285583</ele>
        <time>2011-02-18 15:47:18Z</time>
      </trkpt>
      <trkpt lat="43.4415" lon="6.86547">
        <ele>128.285553</ele>
        <time>2011-02-18 15:47:22Z</time>
      </trkpt>
      <trkpt lat="43.4415" lon="6.86543">
        <ele>127.285553</ele>
        <time>2011-02-18 15:47:26Z</time>
      </trkpt>
      <trkpt lat="43.4415" lon="6.86541">
        <ele>126.285545</ele>
        <time>2011-02-18 15:47:30Z</time>
      </trkpt>
      <trkpt lat="43.4415" lon="6.86541">
        <ele>126.285545</ele>
        <time>2011-02-18 15:47:34Z</time>
      </trkpt>
      <trkpt lat="43.44149" lon="6.86534">
        <ele>125.285538</ele>
        <time>2011-02-18 15:47:38Z</time>
      </trkpt>
      <trkpt lat="43.44149" lon="6.86532">
        <ele>125.285522</ele>
        <time>2011-02-18 15:47:42Z</time>
      </trkpt>
      <trkpt lat="43.44149" lon="6.86529">
        <ele>126.285522</ele>
        <time>2011-02-18 15:47:46Z</time>
      </trkpt>
      <trkpt lat="43.4415" lon="6.86528">
        <ele>126.285515</ele>
        <time>2011-02-18 15:47:50Z</time>
      </trkpt>
      <trkpt lat="43.44149" lon="6.86517">
        <ele>125.285492</ele>
        <time>2011-02-18 15:47:54Z</time>
      </trkpt>
      <trkpt lat="43.44148" lon="6.86509">
        <ele>126.285469</ele>
        <time>2011-02-18 15:47:58Z</time>
      </trkpt>
      <trkpt lat="43.44147" lon="6.86505">
        <ele>127.285461</ele>
        <time>2011-02-18 15:48:02Z</time>
      </trkpt>
      <trkpt lat="43.44145" lon="6.8649">
        <ele>127.285431</ele>
        <time>2011-02-18 15:48:06Z</time>
      </trkpt>
      <trkpt lat="43.44144" lon="6.86484">
        <ele>128.2854</ele>
        <time>2011-02-18 15:48:10Z</time>
      </trkpt>
      <trkpt lat="43.44144" lon="6.86477">
        <ele>128.2854</ele>
        <time>2011-02-18 15:48:14Z</time>
      </trkpt>
      <trkpt lat="43.44144" lon="6.86476">
        <ele>128.285385</ele>
        <time>2011-02-18 15:48:18Z</time>
      </trkpt>
      <trkpt lat="43.44143" lon="6.86466">
        <ele>128.28537</ele>
        <time>2011-02-18 15:48:22Z</time>
      </trkpt>
      <trkpt lat="43.44143" lon="6.86459">
        <ele>128.285339</ele>
        <time>2011-02-18 15:48:26Z</time>
      </trkpt>
      <trkpt lat="43.44142" lon="6.86457">
        <ele>128.285339</ele>
        <time>2011-02-18 15:48:30Z</time>
      </trkpt>
      <trkpt lat="43.44141" lon="6.86455">
        <ele>127.285339</ele>
        <time>2011-02-18 15:48:34Z</time>
      </trkpt>
      <trkpt lat="43.44139" lon="6.86452">
        <ele>127.285324</ele>
        <time>2011-02-18 15:48:38Z</time>
      </trkpt>
      <trkpt lat="43.44137" lon="6.86449">
        <ele>126.285316</ele>
        <time>2011-02-18 15:48:42Z</time>
      </trkpt>
      <trkpt lat="43.44136" lon="6.86449">
        <ele>126.285316</ele>
        <time>2011-02-18 15:48:46Z</time>
      </trkpt>
      <trkpt lat="43.44134" lon="6.86446">
        <ele>125.285309</ele>
        <time>2011-02-18 15:48:50Z</time>
      </trkpt>
      <trkpt lat="43.44132" lon="6.86443">
        <ele>123.285294</ele>
        <time>2011-02-18 15:48:54Z</time>
      </trkpt>
      <trkpt lat="43.4413" lon="6.8644">
        <ele>122.285286</ele>
        <time>2011-02-18 15:48:58Z</time>
      </trkpt>
      <trkpt lat="43.44129" lon="6.86438">
        <ele>122.285278</ele>
        <time>2011-02-18 15:49:02Z</time>
      </trkpt>
      <trkpt lat="43.44126" lon="6.86432">
        <ele>121.285263</ele>
        <time>2011-02-18 15:49:06Z</time>
      </trkpt>
      <trkpt lat="43.44123" lon="6.86428">
        <ele>119.285248</ele>
        <time>2011-02-18 15:49:10Z</time>
      </trkpt>
      <trkpt lat="43.4412" lon="6.86425">
        <ele>118.28524</ele>
        <time>2011-02-18 15:49:14Z</time>
      </trkpt>
      <trkpt lat="43.44117" lon="6.86424">
        <ele>117.285233</ele>
        <time>2011-02-18 15:49:18Z</time>
      </trkpt>
      <trkpt lat="43.44117" lon="6.86424">
        <ele>117.285233</ele>
        <time>2011-02-18 15:49:22Z</time>
      </trkpt>
      <trkpt lat="43.44114" lon="6.8642">
        <ele>114.285217</ele>
        <time>2011-02-18 15:49:26Z</time>
      </trkpt>
      <trkpt lat="43.4411" lon="6.86415">
        <ele>114.285202</ele>
        <time>2011-02-18 15:49:30Z</time>
      </trkpt>
      <trkpt lat="43.44107" lon="6.86412">
        <ele>113.285187</ele>
        <time>2011-02-18 15:49:34Z</time>
      </trkpt>
      <trkpt lat="43.44106" lon="6.8641">
        <ele>114.285179</ele>
        <time>2011-02-18 15:49:38Z</time>
      </trkpt>
      <trkpt lat="43.44101" lon="6.86407">
        <ele>114.285172</ele>
        <time>2011-02-18 15:49:42Z</time>
      </trkpt>
      <trkpt lat="43.44098" lon="6.86405">
        <ele>115.285156</ele>
        <time>2011-02-18 15:49:46Z</time>
      </trkpt>
      <trkpt lat="43.44096" lon="6.86404">
        <ele>115.285149</ele>
        <time>2011-02-18 15:49:50Z</time>
      </trkpt>
      <trkpt lat="43.44095" lon="6.86402">
        <ele>115.285141</ele>
        <time>2011-02-18 15:49:54Z</time>
      </trkpt>
      <trkpt lat="43.44095" lon="6.86402">
        <ele>115.285141</ele>
        <time>2011-02-18 15:49:58Z</time>
      </trkpt>
      <trkpt lat="43.44091" lon="6.86396">
        <ele>115.285126</ele>
        <time>2011-02-18 15:50:02Z</time>
      </trkpt>
      <trkpt lat="43.44088" lon="6.86393">
        <ele>115.28511</ele>
        <time>2011-02-18 15:50:06Z</time>
      </trkpt>
      <trkpt lat="43.44087" lon="6.86391">
        <ele>115.28511</ele>
        <time>2011-02-18 15:50:10Z</time>
      </trkpt>
      <trkpt lat="43.44085" lon="6.86389">
        <ele>116.285095</ele>
        <time>2011-02-18 15:50:14Z</time>
      </trkpt>
      <trkpt lat="43.44085" lon="6.86389">
        <ele>116.285095</ele>
        <time>2011-02-18 15:50:18Z</time>
      </trkpt>
      <trkpt lat="43.44078" lon="6.86382">
        <ele>117.285072</ele>
        <time>2011-02-18 15:50:22Z</time>
      </trkpt>
      <trkpt lat="43.44075" lon="6.86377">
        <ele>116.285057</ele>
        <time>2011-02-18 15:50:26Z</time>
      </trkpt>
      <trkpt lat="43.44074" lon="6.86374">
        <ele>116.285049</ele>
        <time>2011-02-18 15:50:30Z</time>
      </trkpt>
      <trkpt lat="43.44074" lon="6.86374">
        <ele>116.285049</ele>
        <time>2011-02-18 15:50:34Z</time>
      </trkpt>
      <trkpt lat="43.44068" lon="6.86368">
        <ele>115.285027</ele>
        <time>2011-02-18 15:50:38Z</time>
      </trkpt>
      <trkpt lat="43.44066" lon="6.86365">
        <ele>116.285019</ele>
        <time>2011-02-18 15:50:42Z</time>
      </trkpt>
      <trkpt lat="43.44065" lon="6.86363">
        <ele>116.285004</ele>
        <time>2011-02-18 15:50:46Z</time>
      </trkpt>
      <trkpt lat="43.44064" lon="6.86362">
        <ele>116.285004</ele>
        <time>2011-02-18 15:50:50Z</time>
      </trkpt>
      <trkpt lat="43.44063" lon="6.86361">
        <ele>115.285004</ele>
        <time>2011-02-18 15:50:54Z</time>
      </trkpt>
      <trkpt lat="43.44062" lon="6.86359">
        <ele>115.284996</ele>
        <time>2011-02-18 15:50:58Z</time>
      </trkpt>
      <trkpt lat="43.44061" lon="6.86357">
        <ele>115.284988</ele>
        <time>2011-02-18 15:51:02Z</time>
      </trkpt>
      <trkpt lat="43.4406" lon="6.86356">
        <ele>115.284988</ele>
        <time>2011-02-18 15:51:06Z</time>
      </trkpt>
      <trkpt lat="43.44059" lon="6.86353">
        <ele>115.284981</ele>
        <time>2011-02-18 15:51:10Z</time>
      </trkpt>
      <trkpt lat="43.44058" lon="6.8635">
        <ele>115.284966</ele>
        <time>2011-02-18 15:51:14Z</time>
      </trkpt>
      <trkpt lat="43.44056" lon="6.86347">
        <ele>115.284958</ele>
        <time>2011-02-18 15:51:18Z</time>
      </trkpt>
      <trkpt lat="43.44056" lon="6.86346">
        <ele>115.284958</ele>
        <time>2011-02-18 15:51:22Z</time>
      </trkpt>
      <trkpt lat="43.44055" lon="6.86346">
        <ele>114.284958</ele>
        <time>2011-02-18 15:51:26Z</time>
      </trkpt>
      <trkpt lat="43.44055" lon="6.86346">
        <ele>114.284958</ele>
        <time>2011-02-18 15:51:30Z</time>
      </trkpt>
      <trkpt lat="43.44055" lon="6.86346">
        <ele>114.284958</ele>
        <time>2011-02-18 15:51:34Z</time>
      </trkpt>
      <trkpt lat="43.44047" lon="6.86338">
        <ele>114.284927</ele>
        <time>2011-02-18 15:51:38Z</time>
      </trkpt>
      <trkpt lat="43.44043" lon="6.86334">
        <ele>113.284912</ele>
        <time>2011-02-18 15:51:42Z</time>
      </trkpt>
      <trkpt lat="43.4404" lon="6.86331">
        <ele>112.284897</ele>
        <time>2011-02-18 15:51:46Z</time>
      </trkpt>
      <trkpt lat="43.44039" lon="6.8633">
        <ele>112.284897</ele>
        <time>2011-02-18 15:51:50Z</time>
      </trkpt>
      <trkpt lat="43.44034" lon="6.86324">
        <ele>109.284866</ele>
        <time>2011-02-18 15:51:54Z</time>
      </trkpt>
      <trkpt lat="43.44031" lon="6.86321">
        <ele>108.284866</ele>
        <time>2011-02-18 15:51:58Z</time>
      </trkpt>
      <trkpt lat="43.44031" lon="6.86321">
        <ele>108.284866</ele>
        <time>2011-02-18 15:52:02Z</time>
      </trkpt>
      <trkpt lat="43.4403" lon="6.86315">
        <ele>107.284851</ele>
        <time>2011-02-18 15:52:06Z</time>
      </trkpt>
      <trkpt lat="43.44029" lon="6.86308">
        <ele>106.284828</ele>
        <time>2011-02-18 15:52:10Z</time>
      </trkpt>
      <trkpt lat="43.44028" lon="6.86303">
        <ele>105.284813</ele>
        <time>2011-02-18 15:52:14Z</time>
      </trkpt>
      <trkpt lat="43.44028" lon="6.863">
        <ele>105.284805</ele>
        <time>2011-02-18 15:52:18Z</time>
      </trkpt>
      <trkpt lat="43.44026" lon="6.86295">
        <ele>106.28479</ele>
        <time>2011-02-18 15:52:22Z</time>
      </trkpt>
      <trkpt lat="43.44026" lon="6.86293">
        <ele>106.28479</ele>
        <time>2011-02-18 15:52:26Z</time>
      </trkpt>
      <trkpt lat="43.44025" lon="6.86288">
        <ele>106.284775</ele>
        <time>2011-02-18 15:52:30Z</time>
      </trkpt>
      <trkpt lat="43.44025" lon="6.86287">
        <ele>107.284775</ele>
        <time>2011-02-18 15:52:34Z</time>
      </trkpt>
      <trkpt lat="43.44023" lon="6.86279">
        <ele>108.284752</ele>
        <time>2011-02-18 15:52:38Z</time>
      </trkpt>
      <trkpt lat="43.44022" lon="6.86274">
        <ele>108.284737</ele>
        <time>2011-02-18 15:52:42Z</time>
      </trkpt>
      <trkpt lat="43.44019" lon="6.86271">
        <ele>109.284729</ele>
        <time>2011-02-18 15:52:46Z</time>
      </trkpt>
      <trkpt lat="43.44016" lon="6.86266">
        <ele>109.284714</ele>
        <time>2011-02-18 15:52:50Z</time>
      </trkpt>
      <trkpt lat="43.44016" lon="6.86266">
        <ele>109.284714</ele>
        <time>2011-02-18 15:52:54Z</time>
      </trkpt>
      <trkpt lat="43.44016" lon="6.86266">
        <ele>109.284714</ele>
        <time>2011-02-18 15:52:58Z</time>
      </trkpt>
      <trkpt lat="43.44016" lon="6.86266">
        <ele>109.284714</ele>
        <time>2011-02-18 15:53:02Z</time>
      </trkpt>
      <trkpt lat="43.44009" lon="6.86261">
        <ele>107.284691</ele>
        <time>2011-02-18 15:53:06Z</time>
      </trkpt>
      <trkpt lat="43.44008" lon="6.86258">
        <ele>105.284683</ele>
        <time>2011-02-18 15:53:10Z</time>
      </trkpt>
      <trkpt lat="43.44006" lon="6.86256">
        <ele>106.284668</ele>
        <time>2011-02-18 15:53:14Z</time>
      </trkpt>
      <trkpt lat="43.44005" lon="6.86255">
        <ele>106.284668</ele>
        <time>2011-02-18 15:53:18Z</time>
      </trkpt>
      <trkpt lat="43.44001" lon="6.8625">
        <ele>107.284653</ele>
        <time>2011-02-18 15:53:22Z</time>
      </trkpt>
      <trkpt lat="43.43999" lon="6.86248">
        <ele>107.284637</ele>
        <time>2011-02-18 15:53:26Z</time>
      </trkpt>
      <trkpt lat="43.43998" lon="6.86247">
        <ele>106.284637</ele>
        <time>2011-02-18 15:53:30Z</time>
      </trkpt>
      <trkpt lat="43.43996" lon="6.86246">
        <ele>106.284637</ele>
        <time>2011-02-18 15:53:34Z</time>
      </trkpt>
      <trkpt lat="43.43995" lon="6.86246">
        <ele>105.284637</ele>
        <time>2011-02-18 15:53:38Z</time>
      </trkpt>
      <trkpt lat="43.43993" lon="6.86246">
        <ele>105.28463</ele>
        <time>2011-02-18 15:53:42Z</time>
      </trkpt>
      <trkpt lat="43.4399" lon="6.86247">
        <ele>103.284622</ele>
        <time>2011-02-18 15:53:46Z</time>
      </trkpt>
      <trkpt lat="43.43988" lon="6.86252">
        <ele>103.284637</ele>
        <time>2011-02-18 15:53:50Z</time>
      </trkpt>
      <trkpt lat="43.43987" lon="6.86257">
        <ele>103.284645</ele>
        <time>2011-02-18 15:53:54Z</time>
      </trkpt>
      <trkpt lat="43.43987" lon="6.86259">
        <ele>103.284645</ele>
        <time>2011-02-18 15:53:58Z</time>
      </trkpt>
      <trkpt lat="43.43985" lon="6.86266">
        <ele>100.28466</ele>
        <time>2011-02-18 15:54:02Z</time>
      </trkpt>
      <trkpt lat="43.43985" lon="6.8627">
        <ele>99.284668</ele>
        <time>2011-02-18 15:54:06Z</time>
      </trkpt>
      <trkpt lat="43.43985" lon="6.86273">
        <ele>98.284683</ele>
        <time>2011-02-18 15:54:10Z</time>
      </trkpt>
      <trkpt lat="43.43985" lon="6.86276">
        <ele>97.284683</ele>
        <time>2011-02-18 15:54:14Z</time>
      </trkpt>
      <trkpt lat="43.43984" lon="6.86282">
        <ele>96.284698</ele>
        <time>2011-02-18 15:54:18Z</time>
      </trkpt>
      <trkpt lat="43.43984" lon="6.86286">
        <ele>96.284706</ele>
        <time>2011-02-18 15:54:22Z</time>
      </trkpt>
      <trkpt lat="43.43983" lon="6.86293">
        <ele>95.284721</ele>
        <time>2011-02-18 15:54:26Z</time>
      </trkpt>
      <trkpt lat="43.43982" lon="6.86295">
        <ele>94.284729</ele>
        <time>2011-02-18 15:54:30Z</time>
      </trkpt>
      <trkpt lat="43.43982" lon="6.86295">
        <ele>94.284729</ele>
        <time>2011-02-18 15:54:34Z</time>
      </trkpt>
      <trkpt lat="43.43979" lon="6.86312">
        <ele>90.28476</ele>
        <time>2011-02-18 15:54:38Z</time>
      </trkpt>
      <trkpt lat="43.43977" lon="6.86317">
        <ele>89.284767</ele>
        <time>2011-02-18 15:54:42Z</time>
      </trkpt>
      <trkpt lat="43.43976" lon="6.86321">
        <ele>88.284775</ele>
        <time>2011-02-18 15:54:46Z</time>
      </trkpt>
      <trkpt lat="43.43976" lon="6.86321">
        <ele>88.284775</ele>
        <time>2011-02-18 15:54:50Z</time>
      </trkpt>
      <trkpt lat="43.43972" lon="6.86333">
        <ele>86.28479</ele>
        <time>2011-02-18 15:54:54Z</time>
      </trkpt>
      <trkpt lat="43.43971" lon="6.86337">
        <ele>85.284805</ele>
        <time>2011-02-18 15:54:58Z</time>
      </trkpt>
      <trkpt lat="43.43969" lon="6.86343">
        <ele>85.284813</ele>
        <time>2011-02-18 15:55:02Z</time>
      </trkpt>
      <trkpt lat="43.43969" lon="6.86343">
        <ele>85.284813</ele>
        <time>2011-02-18 15:55:06Z</time>
      </trkpt>
      <trkpt lat="43.43969" lon="6.86343">
        <ele>85.284813</ele>
        <time>2011-02-18 15:55:10Z</time>
      </trkpt>
      <trkpt lat="43.43969" lon="6.86343">
        <ele>85.284813</ele>
        <time>2011-02-18 15:55:14Z</time>
      </trkpt>
      <trkpt lat="43.43963" lon="6.86353">
        <ele>80.284828</ele>
        <time>2011-02-18 15:55:18Z</time>
      </trkpt>
      <trkpt lat="43.43958" lon="6.86359">
        <ele>78.284836</ele>
        <time>2011-02-18 15:55:22Z</time>
      </trkpt>
      <trkpt lat="43.43955" lon="6.86364">
        <ele>77.284836</ele>
        <time>2011-02-18 15:55:26Z</time>
      </trkpt>
      <trkpt lat="43.4395" lon="6.86371">
        <ele>78.284843</ele>
        <time>2011-02-18 15:55:30Z</time>
      </trkpt>
      <trkpt lat="43.43947" lon="6.86374">
        <ele>78.284851</ele>
        <time>2011-02-18 15:55:34Z</time>
      </trkpt>
      <trkpt lat="43.43943" lon="6.86381">
        <ele>75.284859</ele>
        <time>2011-02-18 15:55:38Z</time>
      </trkpt>
      <trkpt lat="43.43939" lon="6.86386">
        <ele>72.284866</ele>
        <time>2011-02-18 15:55:42Z</time>
      </trkpt>
      <trkpt lat="43.43938" lon="6.86389">
        <ele>72.284866</ele>
        <time>2011-02-18 15:55:46Z</time>
      </trkpt>
      <trkpt lat="43.43933" lon="6.864">
        <ele>73.284882</ele>
        <time>2011-02-18 15:55:50Z</time>
      </trkpt>
      <trkpt lat="43.4393" lon="6.86404">
        <ele>72.284889</ele>
        <time>2011-02-18 15:55:54Z</time>
      </trkpt>
      <trkpt lat="43.43926" lon="6.86412">
        <ele>75.284904</ele>
        <time>2011-02-18 15:55:58Z</time>
      </trkpt>
      <trkpt lat="43.43926" lon="6.86412">
        <ele>75.284904</ele>
        <time>2011-02-18 15:56:02Z</time>
      </trkpt>
      <trkpt lat="43.43926" lon="6.86412">
        <ele>75.284904</ele>
        <time>2011-02-18 15:56:06Z</time>
      </trkpt>
      <trkpt lat="43.43926" lon="6.86412">
        <ele>75.284904</ele>
        <time>2011-02-18 15:56:10Z</time>
      </trkpt>
      <trkpt lat="43.43925" lon="6.86425">
        <ele>73.284927</ele>
        <time>2011-02-18 15:56:14Z</time>
      </trkpt>
      <trkpt lat="43.43925" lon="6.86425">
        <ele>73.284927</ele>
        <time>2011-02-18 15:56:18Z</time>
      </trkpt>
      <trkpt lat="43.43925" lon="6.86425">
        <ele>73.284927</ele>
        <time>2011-02-18 15:56:22Z</time>
      </trkpt>
      <trkpt lat="43.4393" lon="6.86442">
        <ele>69.284981</ele>
        <time>2011-02-18 15:56:26Z</time>
      </trkpt>
      <trkpt lat="43.43933" lon="6.86448">
        <ele>69.284996</ele>
        <time>2011-02-18 15:56:30Z</time>
      </trkpt>
      <trkpt lat="43.43936" lon="6.86453">
        <ele>68.285011</ele>
        <time>2011-02-18 15:56:34Z</time>
      </trkpt>
      <trkpt lat="43.43936" lon="6.86453">
        <ele>68.285011</ele>
        <time>2011-02-18 15:56:38Z</time>
      </trkpt>
      <trkpt lat="43.43936" lon="6.86453">
        <ele>68.285011</ele>
        <time>2011-02-18 15:56:42Z</time>
      </trkpt>
      <trkpt lat="43.43945" lon="6.86462">
        <ele>66.285049</ele>
        <time>2011-02-18 15:56:46Z</time>
      </trkpt>
      <trkpt lat="43.43954" lon="6.8647">
        <ele>63.28508</ele>
        <time>2011-02-18 15:56:50Z</time>
      </trkpt>
      <trkpt lat="43.43954" lon="6.8647">
        <ele>63.28508</ele>
        <time>2011-02-18 15:56:54Z</time>
      </trkpt>
      <trkpt lat="43.43962" lon="6.86483">
        <ele>61.285122</ele>
        <time>2011-02-18 15:56:58Z</time>
      </trkpt>
      <trkpt lat="43.43966" lon="6.86488">
        <ele>62.285137</ele>
        <time>2011-02-18 15:57:02Z</time>
      </trkpt>
      <trkpt lat="43.43968" lon="6.8649">
        <ele>62.285145</ele>
        <time>2011-02-18 15:57:06Z</time>
      </trkpt>
      <trkpt lat="43.43974" lon="6.86495">
        <ele>60.285168</ele>
        <time>2011-02-18 15:57:10Z</time>
      </trkpt>
      <trkpt lat="43.43977" lon="6.86499">
        <ele>59.285179</ele>
        <time>2011-02-18 15:57:14Z</time>
      </trkpt>
      <trkpt lat="43.4398" lon="6.86501">
        <ele>58.285191</ele>
        <time>2011-02-18 15:57:18Z</time>
      </trkpt>
      <trkpt lat="43.43984" lon="6.86504">
        <ele>56.285206</ele>
        <time>2011-02-18 15:57:22Z</time>
      </trkpt>
      <trkpt lat="43.43988" lon="6.86506">
        <ele>54.285213</ele>
        <time>2011-02-18 15:57:26Z</time>
      </trkpt>
      <trkpt lat="43.43992" lon="6.86509">
        <ele>53.285225</ele>
        <time>2011-02-18 15:57:30Z</time>
      </trkpt>
      <trkpt lat="43.43995" lon="6.8651">
        <ele>52.285233</ele>
        <time>2011-02-18 15:57:34Z</time>
      </trkpt>
      <trkpt lat="43.43998" lon="6.86512">
        <ele>52.285248</ele>
        <time>2011-02-18 15:57:38Z</time>
      </trkpt>
      <trkpt lat="43.44002" lon="6.86513">
        <ele>51.285252</ele>
        <time>2011-02-18 15:57:42Z</time>
      </trkpt>
      <trkpt lat="43.44005" lon="6.86513">
        <ele>50.285263</ele>
        <time>2011-02-18 15:57:46Z</time>
      </trkpt>
      <trkpt lat="43.44008" lon="6.86515">
        <ele>49.285271</ele>
        <time>2011-02-18 15:57:50Z</time>
      </trkpt>
      <trkpt lat="43.44011" lon="6.8652">
        <ele>49.285278</ele>
        <time>2011-02-18 15:57:54Z</time>
      </trkpt>
      <trkpt lat="43.44013" lon="6.86522">
        <ele>48.285286</ele>
        <time>2011-02-18 15:57:58Z</time>
      </trkpt>
      <trkpt lat="43.44013" lon="6.86526">
        <ele>49.285297</ele>
        <time>2011-02-18 15:58:02Z</time>
      </trkpt>
      <trkpt lat="43.44011" lon="6.8653">
        <ele>50.285309</ele>
        <time>2011-02-18 15:58:06Z</time>
      </trkpt>
      <trkpt lat="43.44012" lon="6.86532">
        <ele>50.285309</ele>
        <time>2011-02-18 15:58:10Z</time>
      </trkpt>
      <trkpt lat="43.44011" lon="6.86537">
        <ele>51.28532</ele>
        <time>2011-02-18 15:58:14Z</time>
      </trkpt>
      <trkpt lat="43.44011" lon="6.86539">
        <ele>52.285324</ele>
        <time>2011-02-18 15:58:18Z</time>
      </trkpt>
      <trkpt lat="43.4401" lon="6.86546">
        <ele>52.285339</ele>
        <time>2011-02-18 15:58:22Z</time>
      </trkpt>
      <trkpt lat="43.4401" lon="6.8655">
        <ele>52.285347</ele>
        <time>2011-02-18 15:58:26Z</time>
      </trkpt>
      <trkpt lat="43.4401" lon="6.86559">
        <ele>53.285366</ele>
        <time>2011-02-18 15:58:30Z</time>
      </trkpt>
      <trkpt lat="43.4401" lon="6.86568">
        <ele>54.285389</ele>
        <time>2011-02-18 15:58:34Z</time>
      </trkpt>
      <trkpt lat="43.4401" lon="6.8657">
        <ele>54.285393</ele>
        <time>2011-02-18 15:58:38Z</time>
      </trkpt>
      <trkpt lat="43.44009" lon="6.86583">
        <ele>54.285423</ele>
        <time>2011-02-18 15:58:42Z</time>
      </trkpt>
      <trkpt lat="43.44009" lon="6.86589">
        <ele>53.285439</ele>
        <time>2011-02-18 15:58:46Z</time>
      </trkpt>
      <trkpt lat="43.44008" lon="6.86595">
        <ele>52.285446</ele>
        <time>2011-02-18 15:58:50Z</time>
      </trkpt>
      <trkpt lat="43.44008" lon="6.86605">
        <ele>51.285469</ele>
        <time>2011-02-18 15:58:54Z</time>
      </trkpt>
      <trkpt lat="43.44008" lon="6.86606">
        <ele>51.285477</ele>
        <time>2011-02-18 15:58:58Z</time>
      </trkpt>
      <trkpt lat="43.44008" lon="6.86606">
        <ele>51.285477</ele>
        <time>2011-02-18 15:59:02Z</time>
      </trkpt>
      <trkpt lat="43.44008" lon="6.86623">
        <ele>48.285511</ele>
        <time>2011-02-18 15:59:06Z</time>
      </trkpt>
      <trkpt lat="43.44008" lon="6.86628">
        <ele>49.285526</ele>
        <time>2011-02-18 15:59:10Z</time>
      </trkpt>
      <trkpt lat="43.44008" lon="6.86632">
        <ele>49.285534</ele>
        <time>2011-02-18 15:59:14Z</time>
      </trkpt>
      <trkpt lat="43.44008" lon="6.86638">
        <ele>50.285549</ele>
        <time>2011-02-18 15:59:18Z</time>
      </trkpt>
      <trkpt lat="43.44008" lon="6.86644">
        <ele>51.285561</ele>
        <time>2011-02-18 15:59:22Z</time>
      </trkpt>
      <trkpt lat="43.44007" lon="6.86651">
        <ele>52.285576</ele>
        <time>2011-02-18 15:59:26Z</time>
      </trkpt>
      <trkpt lat="43.44006" lon="6.86658">
        <ele>53.285587</ele>
        <time>2011-02-18 15:59:30Z</time>
      </trkpt>
      <trkpt lat="43.44005" lon="6.86663">
        <ele>57.285599</ele>
        <time>2011-02-18 15:59:34Z</time>
      </trkpt>
      <trkpt lat="43.44005" lon="6.86663">
        <ele>57.285599</ele>
        <time>2011-02-18 15:59:38Z</time>
      </trkpt>
      <trkpt lat="43.43999" lon="6.86677">
        <ele>59.285625</ele>
        <time>2011-02-18 15:59:42Z</time>
      </trkpt>
      <trkpt lat="43.43996" lon="6.86683">
        <ele>59.285633</ele>
        <time>2011-02-18 15:59:46Z</time>
      </trkpt>
      <trkpt lat="43.43995" lon="6.86686">
        <ele>59.285637</ele>
        <time>2011-02-18 15:59:50Z</time>
      </trkpt>
      <trkpt lat="43.43993" lon="6.86691">
        <ele>59.285645</ele>
        <time>2011-02-18 15:59:54Z</time>
      </trkpt>
      <trkpt lat="43.43992" lon="6.86692">
        <ele>59.285645</ele>
        <time>2011-02-18 15:59:58Z</time>
      </trkpt>
      <trkpt lat="43.43987" lon="6.86696">
        <ele>59.285652</ele>
        <time>2011-02-18 16:00:02Z</time>
      </trkpt>
      <trkpt lat="43.43985" lon="6.86698">
        <ele>59.285648</ele>
        <time>2011-02-18 16:00:06Z</time>
      </trkpt>
      <trkpt lat="43.4398" lon="6.867">
        <ele>59.285641</ele>
        <time>2011-02-18 16:00:10Z</time>
      </trkpt>
      <trkpt lat="43.43977" lon="6.86699">
        <ele>59.285637</ele>
        <time>2011-02-18 16:00:14Z</time>
      </trkpt>
      <trkpt lat="43.43974" lon="6.86699">
        <ele>59.285629</ele>
        <time>2011-02-18 16:00:18Z</time>
      </trkpt>
      <trkpt lat="43.43966" lon="6.86708">
        <ele>60.285641</ele>
        <time>2011-02-18 16:00:22Z</time>
      </trkpt>
      <trkpt lat="43.43966" lon="6.86708">
        <ele>60.285641</ele>
        <time>2011-02-18 16:00:26Z</time>
      </trkpt>
      <trkpt lat="43.43958" lon="6.86716">
        <ele>61.285648</ele>
        <time>2011-02-18 16:00:30Z</time>
      </trkpt>
      <trkpt lat="43.43954" lon="6.86721">
        <ele>62.285652</ele>
        <time>2011-02-18 16:00:34Z</time>
      </trkpt>
      <trkpt lat="43.4395" lon="6.86724">
        <ele>63.285652</ele>
        <time>2011-02-18 16:00:38Z</time>
      </trkpt>
      <trkpt lat="43.4395" lon="6.86724">
        <ele>63.285652</ele>
        <time>2011-02-18 16:00:42Z</time>
      </trkpt>
      <trkpt lat="43.43944" lon="6.86729">
        <ele>65.28566</ele>
        <time>2011-02-18 16:00:46Z</time>
      </trkpt>
      <trkpt lat="43.4394" lon="6.86731">
        <ele>66.285652</ele>
        <time>2011-02-18 16:00:50Z</time>
      </trkpt>
      <trkpt lat="43.4394" lon="6.86731">
        <ele>66.285652</ele>
        <time>2011-02-18 16:00:54Z</time>
      </trkpt>
      <trkpt lat="43.43934" lon="6.86733">
        <ele>67.285645</ele>
        <time>2011-02-18 16:00:58Z</time>
      </trkpt>
      <trkpt lat="43.43931" lon="6.86733">
        <ele>68.285645</ele>
        <time>2011-02-18 16:01:02Z</time>
      </trkpt>
      <trkpt lat="43.4393" lon="6.86733">
        <ele>68.285645</ele>
        <time>2011-02-18 16:01:06Z</time>
      </trkpt>
      <trkpt lat="43.4392" lon="6.86736">
        <ele>71.285629</ele>
        <time>2011-02-18 16:01:10Z</time>
      </trkpt>
      <trkpt lat="43.43914" lon="6.86738">
        <ele>73.285629</ele>
        <time>2011-02-18 16:01:14Z</time>
      </trkpt>
      <trkpt lat="43.43912" lon="6.86738">
        <ele>73.285629</ele>
        <time>2011-02-18 16:01:18Z</time>
      </trkpt>
      <trkpt lat="43.43904" lon="6.86739">
        <ele>73.285614</ele>
        <time>2011-02-18 16:01:22Z</time>
      </trkpt>
      <trkpt lat="43.43903" lon="6.86739">
        <ele>73.285614</ele>
        <time>2011-02-18 16:01:26Z</time>
      </trkpt>
      <trkpt lat="43.43895" lon="6.86738">
        <ele>71.285599</ele>
        <time>2011-02-18 16:01:30Z</time>
      </trkpt>
      <trkpt lat="43.43894" lon="6.86738">
        <ele>70.285599</ele>
        <time>2011-02-18 16:01:34Z</time>
      </trkpt>
      <trkpt lat="43.43887" lon="6.86737">
        <ele>70.285583</ele>
        <time>2011-02-18 16:01:38Z</time>
      </trkpt>
      <trkpt lat="43.43885" lon="6.86737">
        <ele>71.285583</ele>
        <time>2011-02-18 16:01:42Z</time>
      </trkpt>
      <trkpt lat="43.43885" lon="6.86737">
        <ele>71.285583</ele>
        <time>2011-02-18 16:01:46Z</time>
      </trkpt>
      <trkpt lat="43.43885" lon="6.86737">
        <ele>71.285583</ele>
        <time>2011-02-18 16:01:50Z</time>
      </trkpt>
      <trkpt lat="43.43875" lon="6.86733">
        <ele>69.285553</ele>
        <time>2011-02-18 16:01:54Z</time>
      </trkpt>
      <trkpt lat="43.43872" lon="6.8673">
        <ele>66.285545</ele>
        <time>2011-02-18 16:01:58Z</time>
      </trkpt>
      <trkpt lat="43.43872" lon="6.8673">
        <ele>66.285545</ele>
        <time>2011-02-18 16:02:02Z</time>
      </trkpt>
      <trkpt lat="43.43872" lon="6.8673">
        <ele>66.285545</ele>
        <time>2011-02-18 16:02:06Z</time>
      </trkpt>
      <trkpt lat="43.43872" lon="6.8673">
        <ele>66.285545</ele>
        <time>2011-02-18 16:02:10Z</time>
      </trkpt>
      <trkpt lat="43.43872" lon="6.8673">
        <ele>66.285545</ele>
        <time>2011-02-18 16:02:14Z</time>
      </trkpt>
      <trkpt lat="43.43856" lon="6.86721">
        <ele>66.2855</ele>
        <time>2011-02-18 16:02:18Z</time>
      </trkpt>
      <trkpt lat="43.43856" lon="6.86721">
        <ele>66.2855</ele>
        <time>2011-02-18 16:02:22Z</time>
      </trkpt>
      <trkpt lat="43.43856" lon="6.86721">
        <ele>66.2855</ele>
        <time>2011-02-18 16:02:26Z</time>
      </trkpt>
      <trkpt lat="43.43843" lon="6.86711">
        <ele>68.285454</ele>
        <time>2011-02-18 16:02:30Z</time>
      </trkpt>
      <trkpt lat="43.43842" lon="6.8671">
        <ele>68.285454</ele>
        <time>2011-02-18 16:02:34Z</time>
      </trkpt>
      <trkpt lat="43.43842" lon="6.8671">
        <ele>68.285454</ele>
        <time>2011-02-18 16:02:38Z</time>
      </trkpt>
      <trkpt lat="43.43842" lon="6.8671">
        <ele>68.285454</ele>
        <time>2011-02-18 16:02:42Z</time>
      </trkpt>
      <trkpt lat="43.43827" lon="6.867">
        <ele>66.285408</ele>
        <time>2011-02-18 16:02:46Z</time>
      </trkpt>
      <trkpt lat="43.43824" lon="6.86699">
        <ele>65.2854</ele>
        <time>2011-02-18 16:02:50Z</time>
      </trkpt>
      <trkpt lat="43.43824" lon="6.86699">
        <ele>65.2854</ele>
        <time>2011-02-18 16:02:54Z</time>
      </trkpt>
      <trkpt lat="43.43815" lon="6.86696">
        <ele>65.28537</ele>
        <time>2011-02-18 16:02:58Z</time>
      </trkpt>
      <trkpt lat="43.43811" lon="6.86695">
        <ele>66.28537</ele>
        <time>2011-02-18 16:03:02Z</time>
      </trkpt>
      <trkpt lat="43.43811" lon="6.86695">
        <ele>66.28537</ele>
        <time>2011-02-18 16:03:06Z</time>
      </trkpt>
      <trkpt lat="43.43803" lon="6.86693">
        <ele>65.285355</ele>
        <time>2011-02-18 16:03:10Z</time>
      </trkpt>
      <trkpt lat="43.43803" lon="6.86693">
        <ele>65.285355</ele>
        <time>2011-02-18 16:03:14Z</time>
      </trkpt>
      <trkpt lat="43.43792" lon="6.86694">
        <ele>64.285339</ele>
        <time>2011-02-18 16:03:18Z</time>
      </trkpt>
      <trkpt lat="43.43788" lon="6.86698">
        <ele>64.285339</ele>
        <time>2011-02-18 16:03:22Z</time>
      </trkpt>
      <trkpt lat="43.43785" lon="6.86702">
        <ele>64.285339</ele>
        <time>2011-02-18 16:03:26Z</time>
      </trkpt>
      <trkpt lat="43.43783" lon="6.86703">
        <ele>63.285343</ele>
        <time>2011-02-18 16:03:30Z</time>
      </trkpt>
      <trkpt lat="43.43778" lon="6.86704">
        <ele>64.285339</ele>
        <time>2011-02-18 16:03:34Z</time>
      </trkpt>
      <trkpt lat="43.43774" lon="6.86705">
        <ele>63.285332</ele>
        <time>2011-02-18 16:03:38Z</time>
      </trkpt>
      <trkpt lat="43.43772" lon="6.86706">
        <ele>62.285332</ele>
        <time>2011-02-18 16:03:42Z</time>
      </trkpt>
      <trkpt lat="43.43768" lon="6.8671">
        <ele>61.285339</ele>
        <time>2011-02-18 16:03:46Z</time>
      </trkpt>
      <trkpt lat="43.43766" lon="6.86713">
        <ele>61.285339</ele>
        <time>2011-02-18 16:03:50Z</time>
      </trkpt>
      <trkpt lat="43.43765" lon="6.86715">
        <ele>61.285339</ele>
        <time>2011-02-18 16:03:54Z</time>
      </trkpt>
      <trkpt lat="43.43761" lon="6.86718">
        <ele>60.285339</ele>
        <time>2011-02-18 16:03:58Z</time>
      </trkpt>
      <trkpt lat="43.43755" lon="6.86726">
        <ele>60.285347</ele>
        <time>2011-02-18 16:04:02Z</time>
      </trkpt>
      <trkpt lat="43.43753" lon="6.86735">
        <ele>59.28537</ele>
        <time>2011-02-18 16:04:06Z</time>
      </trkpt>
      <trkpt lat="43.4375" lon="6.8674">
        <ele>58.28537</ele>
        <time>2011-02-18 16:04:10Z</time>
      </trkpt>
      <trkpt lat="43.43747" lon="6.86746">
        <ele>57.285385</ele>
        <time>2011-02-18 16:04:14Z</time>
      </trkpt>
      <trkpt lat="43.43746" lon="6.86749">
        <ele>57.285385</ele>
        <time>2011-02-18 16:04:18Z</time>
      </trkpt>
      <trkpt lat="43.43743" lon="6.86755">
        <ele>55.2854</ele>
        <time>2011-02-18 16:04:22Z</time>
      </trkpt>
      <trkpt lat="43.43743" lon="6.86757">
        <ele>54.2854</ele>
        <time>2011-02-18 16:04:26Z</time>
      </trkpt>
      <trkpt lat="43.43739" lon="6.86765">
        <ele>54.285419</ele>
        <time>2011-02-18 16:04:30Z</time>
      </trkpt>
      <trkpt lat="43.43739" lon="6.8677">
        <ele>54.285431</ele>
        <time>2011-02-18 16:04:34Z</time>
      </trkpt>
      <trkpt lat="43.43737" lon="6.8678">
        <ele>54.28545</ele>
        <time>2011-02-18 16:04:38Z</time>
      </trkpt>
      <trkpt lat="43.43737" lon="6.86783">
        <ele>54.285454</ele>
        <time>2011-02-18 16:04:42Z</time>
      </trkpt>
      <trkpt lat="43.43736" lon="6.86792">
        <ele>55.285469</ele>
        <time>2011-02-18 16:04:46Z</time>
      </trkpt>
      <trkpt lat="43.43736" lon="6.86797">
        <ele>55.28548</ele>
        <time>2011-02-18 16:04:50Z</time>
      </trkpt>
      <trkpt lat="43.43736" lon="6.86798">
        <ele>55.285484</ele>
        <time>2011-02-18 16:04:54Z</time>
      </trkpt>
      <trkpt lat="43.43736" lon="6.86806">
        <ele>54.285507</ele>
        <time>2011-02-18 16:04:58Z</time>
      </trkpt>
      <trkpt lat="43.43735" lon="6.86808">
        <ele>54.285507</ele>
        <time>2011-02-18 16:05:02Z</time>
      </trkpt>
      <trkpt lat="43.43735" lon="6.86808">
        <ele>54.285507</ele>
        <time>2011-02-18 16:05:06Z</time>
      </trkpt>
      <trkpt lat="43.43735" lon="6.86808">
        <ele>54.285507</ele>
        <time>2011-02-18 16:05:10Z</time>
      </trkpt>
      <trkpt lat="43.43735" lon="6.86808">
        <ele>54.285507</ele>
        <time>2011-02-18 16:05:14Z</time>
      </trkpt>
      <trkpt lat="43.43731" lon="6.86821">
        <ele>49.28553</ele>
        <time>2011-02-18 16:05:18Z</time>
      </trkpt>
      <trkpt lat="43.43731" lon="6.86821">
        <ele>49.28553</ele>
        <time>2011-02-18 16:05:22Z</time>
      </trkpt>
      <trkpt lat="43.43726" lon="6.86825">
        <ele>49.28553</ele>
        <time>2011-02-18 16:05:26Z</time>
      </trkpt>
      <trkpt lat="43.43722" lon="6.86827">
        <ele>48.28553</ele>
        <time>2011-02-18 16:05:30Z</time>
      </trkpt>
      <trkpt lat="43.4372" lon="6.86828">
        <ele>48.285526</ele>
        <time>2011-02-18 16:05:34Z</time>
      </trkpt>
      <trkpt lat="43.43716" lon="6.86828">
        <ele>49.285526</ele>
        <time>2011-02-18 16:05:38Z</time>
      </trkpt>
      <trkpt lat="43.43713" lon="6.86828">
        <ele>49.285522</ele>
        <time>2011-02-18 16:05:42Z</time>
      </trkpt>
      <trkpt lat="43.43707" lon="6.86827">
        <ele>49.285507</ele>
        <time>2011-02-18 16:05:46Z</time>
      </trkpt>
      <trkpt lat="43.43705" lon="6.86825">
        <ele>49.2855</ele>
        <time>2011-02-18 16:05:50Z</time>
      </trkpt>
      <trkpt lat="43.43702" lon="6.86821">
        <ele>49.285484</ele>
        <time>2011-02-18 16:05:54Z</time>
      </trkpt>
      <trkpt lat="43.43701" lon="6.8682">
        <ele>49.28548</ele>
        <time>2011-02-18 16:05:58Z</time>
      </trkpt>
      <trkpt lat="43.43697" lon="6.86808">
        <ele>46.285446</ele>
        <time>2011-02-18 16:06:02Z</time>
      </trkpt>
      <trkpt lat="43.43697" lon="6.86808">
        <ele>46.285446</ele>
        <time>2011-02-18 16:06:06Z</time>
      </trkpt>
      <trkpt lat="43.43697" lon="6.86801">
        <ele>47.285427</ele>
        <time>2011-02-18 16:06:10Z</time>
      </trkpt>
      <trkpt lat="43.43696" lon="6.86798">
        <ele>47.285423</ele>
        <time>2011-02-18 16:06:14Z</time>
      </trkpt>
      <trkpt lat="43.43695" lon="6.86795">
        <ele>46.285416</ele>
        <time>2011-02-18 16:06:18Z</time>
      </trkpt>
      <trkpt lat="43.43696" lon="6.86795">
        <ele>46.285416</ele>
        <time>2011-02-18 16:06:22Z</time>
      </trkpt>
      <trkpt lat="43.43697" lon="6.86788">
        <ele>46.285404</ele>
        <time>2011-02-18 16:06:26Z</time>
      </trkpt>
      <trkpt lat="43.43697" lon="6.86786">
        <ele>47.285393</ele>
        <time>2011-02-18 16:06:30Z</time>
      </trkpt>
      <trkpt lat="43.43697" lon="6.8678">
        <ele>47.285385</ele>
        <time>2011-02-18 16:06:34Z</time>
      </trkpt>
      <trkpt lat="43.43697" lon="6.8678">
        <ele>47.285385</ele>
        <time>2011-02-18 16:06:38Z</time>
      </trkpt>
      <trkpt lat="43.43695" lon="6.86763">
        <ele>47.285347</ele>
        <time>2011-02-18 16:06:42Z</time>
      </trkpt>
      <trkpt lat="43.43694" lon="6.86752">
        <ele>48.285316</ele>
        <time>2011-02-18 16:06:46Z</time>
      </trkpt>
      <trkpt lat="43.43694" lon="6.86747">
        <ele>48.285301</ele>
        <time>2011-02-18 16:06:50Z</time>
      </trkpt>
      <trkpt lat="43.43693" lon="6.86741">
        <ele>47.28529</ele>
        <time>2011-02-18 16:06:54Z</time>
      </trkpt>
      <trkpt lat="43.43693" lon="6.86734">
        <ele>47.285271</ele>
        <time>2011-02-18 16:06:58Z</time>
      </trkpt>
      <trkpt lat="43.43692" lon="6.86723">
        <ele>48.285248</ele>
        <time>2011-02-18 16:07:02Z</time>
      </trkpt>
      <trkpt lat="43.43692" lon="6.86722">
        <ele>48.285244</ele>
        <time>2011-02-18 16:07:06Z</time>
      </trkpt>
      <trkpt lat="43.43692" lon="6.86716">
        <ele>48.285233</ele>
        <time>2011-02-18 16:07:10Z</time>
      </trkpt>
      <trkpt lat="43.43692" lon="6.86716">
        <ele>48.285233</ele>
        <time>2011-02-18 16:07:14Z</time>
      </trkpt>
      <trkpt lat="43.43692" lon="6.86708">
        <ele>47.28521</ele>
        <time>2011-02-18 16:07:18Z</time>
      </trkpt>
      <trkpt lat="43.43692" lon="6.86705">
        <ele>47.285202</ele>
        <time>2011-02-18 16:07:22Z</time>
      </trkpt>
      <trkpt lat="43.43692" lon="6.86705">
        <ele>47.285202</ele>
        <time>2011-02-18 16:07:26Z</time>
      </trkpt>
      <trkpt lat="43.43692" lon="6.86705">
        <ele>47.285202</ele>
        <time>2011-02-18 16:07:30Z</time>
      </trkpt>
      <trkpt lat="43.43696" lon="6.86693">
        <ele>46.285183</ele>
        <time>2011-02-18 16:07:34Z</time>
      </trkpt>
      <trkpt lat="43.43696" lon="6.86693">
        <ele>46.285183</ele>
        <time>2011-02-18 16:07:38Z</time>
      </trkpt>
      <trkpt lat="43.43696" lon="6.86693">
        <ele>46.285183</ele>
        <time>2011-02-18 16:07:42Z</time>
      </trkpt>
      <trkpt lat="43.43701" lon="6.86682">
        <ele>46.285168</ele>
        <time>2011-02-18 16:07:46Z</time>
      </trkpt>
      <trkpt lat="43.43701" lon="6.86682">
        <ele>46.285168</ele>
        <time>2011-02-18 16:07:50Z</time>
      </trkpt>
      <trkpt lat="43.43701" lon="6.86682">
        <ele>46.285168</ele>
        <time>2011-02-18 16:07:54Z</time>
      </trkpt>
      <trkpt lat="43.43701" lon="6.86682">
        <ele>46.285168</ele>
        <time>2011-02-18 16:07:58Z</time>
      </trkpt>
      <trkpt lat="43.43709" lon="6.86676">
        <ele>44.285168</ele>
        <time>2011-02-18 16:08:02Z</time>
      </trkpt>
      <trkpt lat="43.43709" lon="6.86676">
        <ele>44.285168</ele>
        <time>2011-02-18 16:08:06Z</time>
      </trkpt>
      <trkpt lat="43.43716" lon="6.86668">
        <ele>41.285156</ele>
        <time>2011-02-18 16:08:10Z</time>
      </trkpt>
      <trkpt lat="43.43716" lon="6.86668">
        <ele>41.285156</ele>
        <time>2011-02-18 16:08:14Z</time>
      </trkpt>
      <trkpt lat="43.43716" lon="6.86668">
        <ele>41.285156</ele>
        <time>2011-02-18 16:08:18Z</time>
      </trkpt>
      <trkpt lat="43.43724" lon="6.86659">
        <ele>39.285152</ele>
        <time>2011-02-18 16:08:22Z</time>
      </trkpt>
      <trkpt lat="43.43729" lon="6.86654">
        <ele>37.285149</ele>
        <time>2011-02-18 16:08:26Z</time>
      </trkpt>
      <trkpt lat="43.43729" lon="6.86654">
        <ele>37.285149</ele>
        <time>2011-02-18 16:08:30Z</time>
      </trkpt>
      <trkpt lat="43.43734" lon="6.8665">
        <ele>35.285145</ele>
        <time>2011-02-18 16:08:34Z</time>
      </trkpt>
      <trkpt lat="43.43736" lon="6.86649">
        <ele>35.285149</ele>
        <time>2011-02-18 16:08:38Z</time>
      </trkpt>
      <trkpt lat="43.43736" lon="6.86649">
        <ele>35.285149</ele>
        <time>2011-02-18 16:08:42Z</time>
      </trkpt>
      <trkpt lat="43.43744" lon="6.86643">
        <ele>34.285149</ele>
        <time>2011-02-18 16:08:46Z</time>
      </trkpt>
      <trkpt lat="43.43745" lon="6.86642">
        <ele>33.285141</ele>
        <time>2011-02-18 16:08:50Z</time>
      </trkpt>
      <trkpt lat="43.43752" lon="6.86633">
        <ele>32.285137</ele>
        <time>2011-02-18 16:08:54Z</time>
      </trkpt>
      <trkpt lat="43.43752" lon="6.86633">
        <ele>32.285137</ele>
        <time>2011-02-18 16:08:58Z</time>
      </trkpt>
      <trkpt lat="43.4376" lon="6.86622">
        <ele>32.285118</ele>
        <time>2011-02-18 16:09:02Z</time>
      </trkpt>
      <trkpt lat="43.43762" lon="6.86619">
        <ele>31.285118</ele>
        <time>2011-02-18 16:09:06Z</time>
      </trkpt>
      <trkpt lat="43.43762" lon="6.86619">
        <ele>31.285118</ele>
        <time>2011-02-18 16:09:10Z</time>
      </trkpt>
      <trkpt lat="43.43762" lon="6.86619">
        <ele>31.285118</ele>
        <time>2011-02-18 16:09:14Z</time>
      </trkpt>
      <trkpt lat="43.43768" lon="6.86607">
        <ele>34.285103</ele>
        <time>2011-02-18 16:09:18Z</time>
      </trkpt>
      <trkpt lat="43.43772" lon="6.86601">
        <ele>33.285095</ele>
        <time>2011-02-18 16:09:22Z</time>
      </trkpt>
      <trkpt lat="43.43774" lon="6.86599">
        <ele>32.285091</ele>
        <time>2011-02-18 16:09:26Z</time>
      </trkpt>
      <trkpt lat="43.43774" lon="6.86599">
        <ele>32.285091</ele>
        <time>2011-02-18 16:09:30Z</time>
      </trkpt>
      <trkpt lat="43.43782" lon="6.8659">
        <ele>32.285084</ele>
        <time>2011-02-18 16:09:34Z</time>
      </trkpt>
      <trkpt lat="43.43786" lon="6.86587">
        <ele>32.28508</ele>
        <time>2011-02-18 16:09:38Z</time>
      </trkpt>
      <trkpt lat="43.43787" lon="6.86585">
        <ele>32.28508</ele>
        <time>2011-02-18 16:09:42Z</time>
      </trkpt>
      <trkpt lat="43.43792" lon="6.8658">
        <ele>30.285076</ele>
        <time>2011-02-18 16:09:46Z</time>
      </trkpt>
      <trkpt lat="43.43795" lon="6.86578">
        <ele>29.28508</ele>
        <time>2011-02-18 16:09:50Z</time>
      </trkpt>
      <trkpt lat="43.43798" lon="6.86576">
        <ele>28.285076</ele>
        <time>2011-02-18 16:09:54Z</time>
      </trkpt>
      <trkpt lat="43.43802" lon="6.86572">
        <ele>28.28508</ele>
        <time>2011-02-18 16:09:58Z</time>
      </trkpt>
      <trkpt lat="43.43806" lon="6.8657">
        <ele>28.285072</ele>
        <time>2011-02-18 16:10:02Z</time>
      </trkpt>
      <trkpt lat="43.43813" lon="6.86566">
        <ele>27.28508</ele>
        <time>2011-02-18 16:10:06Z</time>
      </trkpt>
      <trkpt lat="43.43817" lon="6.86564">
        <ele>26.28508</ele>
        <time>2011-02-18 16:10:10Z</time>
      </trkpt>
      <trkpt lat="43.4382" lon="6.86561">
        <ele>26.285072</ele>
        <time>2011-02-18 16:10:14Z</time>
      </trkpt>
      <trkpt lat="43.43823" lon="6.86559">
        <ele>26.28508</ele>
        <time>2011-02-18 16:10:18Z</time>
      </trkpt>
      <trkpt lat="43.43827" lon="6.86558">
        <ele>27.28508</ele>
        <time>2011-02-18 16:10:22Z</time>
      </trkpt>
      <trkpt lat="43.43829" lon="6.86557">
        <ele>27.285084</ele>
        <time>2011-02-18 16:10:26Z</time>
      </trkpt>
      <trkpt lat="43.43835" lon="6.86554">
        <ele>26.285088</ele>
        <time>2011-02-18 16:10:30Z</time>
      </trkpt>
      <trkpt lat="43.43835" lon="6.86554">
        <ele>26.285088</ele>
        <time>2011-02-18 16:10:34Z</time>
      </trkpt>
      <trkpt lat="43.43841" lon="6.86555">
        <ele>28.285091</ele>
        <time>2011-02-18 16:10:38Z</time>
      </trkpt>
      <trkpt lat="43.43841" lon="6.86555">
        <ele>28.285091</ele>
        <time>2011-02-18 16:10:42Z</time>
      </trkpt>
      <trkpt lat="43.43845" lon="6.86558">
        <ele>28.28511</ele>
        <time>2011-02-18 16:10:46Z</time>
      </trkpt>
      <trkpt lat="43.43846" lon="6.86558">
        <ele>28.28511</ele>
        <time>2011-02-18 16:10:50Z</time>
      </trkpt>
      <trkpt lat="43.43846" lon="6.86558">
        <ele>28.28511</ele>
        <time>2011-02-18 16:10:54Z</time>
      </trkpt>
      <trkpt lat="43.43846" lon="6.86558">
        <ele>28.28511</ele>
        <time>2011-02-18 16:10:58Z</time>
      </trkpt>
      <trkpt lat="43.43846" lon="6.86558">
        <ele>28.28511</ele>
        <time>2011-02-18 16:11:02Z</time>
      </trkpt>
      <trkpt lat="43.43846" lon="6.86558">
        <ele>28.28511</ele>
        <time>2011-02-18 16:11:06Z</time>
      </trkpt>
      <trkpt lat="43.43846" lon="6.86558">
        <ele>28.28511</ele>
        <time>2011-02-18 16:11:10Z</time>
      </trkpt>
      <trkpt lat="43.43846" lon="6.86558">
        <ele>28.28511</ele>
        <time>2011-02-18 16:11:14Z</time>
      </trkpt>
      <trkpt lat="43.43844" lon="6.86553">
        <ele>28.285095</ele>
        <time>2011-02-18 16:11:18Z</time>
      </trkpt>
      <trkpt lat="43.43839" lon="6.86552">
        <ele>28.285088</ele>
        <time>2011-02-18 16:11:22Z</time>
      </trkpt>
      <trkpt lat="43.43832" lon="6.86552">
        <ele>29.285072</ele>
        <time>2011-02-18 16:11:26Z</time>
      </trkpt>
      <trkpt lat="43.43829" lon="6.86552">
        <ele>28.285072</ele>
        <time>2011-02-18 16:11:30Z</time>
      </trkpt>
      <trkpt lat="43.43829" lon="6.86552">
        <ele>28.285072</ele>
        <time>2011-02-18 16:11:34Z</time>
      </trkpt>
      <trkpt lat="43.43818" lon="6.86553">
        <ele>25.285053</ele>
        <time>2011-02-18 16:11:38Z</time>
      </trkpt>
      <trkpt lat="43.43818" lon="6.86553">
        <ele>25.285053</ele>
        <time>2011-02-18 16:11:42Z</time>
      </trkpt>
      <trkpt lat="43.43818" lon="6.86553">
        <ele>25.285053</ele>
        <time>2011-02-18 16:11:46Z</time>
      </trkpt>
      <trkpt lat="43.43811" lon="6.86553">
        <ele>23.285046</ele>
        <time>2011-02-18 16:11:50Z</time>
      </trkpt>
      <trkpt lat="43.43808" lon="6.86554">
        <ele>22.285042</ele>
        <time>2011-02-18 16:11:54Z</time>
      </trkpt>
      <trkpt lat="43.43806" lon="6.86554">
        <ele>21.285042</ele>
        <time>2011-02-18 16:11:58Z</time>
      </trkpt>
      <trkpt lat="43.43806" lon="6.86554">
        <ele>21.285042</ele>
        <time>2011-02-18 16:12:02Z</time>
      </trkpt>
      <trkpt lat="43.43801" lon="6.86555">
        <ele>17.285034</ele>
        <time>2011-02-18 16:12:06Z</time>
      </trkpt>
      <trkpt lat="43.43798" lon="6.86556">
        <ele>17.28503</ele>
        <time>2011-02-18 16:12:10Z</time>
      </trkpt>
      <trkpt lat="43.43791" lon="6.86558">
        <ele>16.285019</ele>
        <time>2011-02-18 16:12:14Z</time>
      </trkpt>
      <trkpt lat="43.43786" lon="6.86558">
        <ele>16.285019</ele>
        <time>2011-02-18 16:12:18Z</time>
      </trkpt>
      <trkpt lat="43.43785" lon="6.86558">
        <ele>16.285015</ele>
        <time>2011-02-18 16:12:22Z</time>
      </trkpt>
      <trkpt lat="43.43774" lon="6.86558">
        <ele>16.284996</ele>
        <time>2011-02-18 16:12:26Z</time>
      </trkpt>
      <trkpt lat="43.43769" lon="6.86559">
        <ele>16.284996</ele>
        <time>2011-02-18 16:12:30Z</time>
      </trkpt>
      <trkpt lat="43.43765" lon="6.8656">
        <ele>15.284988</ele>
        <time>2011-02-18 16:12:34Z</time>
      </trkpt>
      <trkpt lat="43.43758" lon="6.86561">
        <ele>15.284981</ele>
        <time>2011-02-18 16:12:38Z</time>
      </trkpt>
      <trkpt lat="43.43755" lon="6.86562">
        <ele>15.284981</ele>
        <time>2011-02-18 16:12:42Z</time>
      </trkpt>
      <trkpt lat="43.43755" lon="6.86562">
        <ele>15.284981</ele>
        <time>2011-02-18 16:12:46Z</time>
      </trkpt>
      <trkpt lat="43.43743" lon="6.86563">
        <ele>14.284966</ele>
        <time>2011-02-18 16:12:50Z</time>
      </trkpt>
      <trkpt lat="43.43743" lon="6.86563">
        <ele>14.284966</ele>
        <time>2011-02-18 16:12:54Z</time>
      </trkpt>
      <trkpt lat="43.43733" lon="6.86559">
        <ele>15.284935</ele>
        <time>2011-02-18 16:12:58Z</time>
      </trkpt>
      <trkpt lat="43.4373" lon="6.86558">
        <ele>16.284927</ele>
        <time>2011-02-18 16:13:02Z</time>
      </trkpt>
      <trkpt lat="43.4373" lon="6.86558">
        <ele>16.284927</ele>
        <time>2011-02-18 16:13:06Z</time>
      </trkpt>
      <trkpt lat="43.43723" lon="6.86558">
        <ele>16.28492</ele>
        <time>2011-02-18 16:13:10Z</time>
      </trkpt>
      <trkpt lat="43.43721" lon="6.86558">
        <ele>16.284916</ele>
        <time>2011-02-18 16:13:14Z</time>
      </trkpt>
      <trkpt lat="43.43721" lon="6.86558">
        <ele>16.284916</ele>
        <time>2011-02-18 16:13:18Z</time>
      </trkpt>
      <trkpt lat="43.43714" lon="6.86559">
        <ele>17.284912</ele>
        <time>2011-02-18 16:13:22Z</time>
      </trkpt>
      <trkpt lat="43.43709" lon="6.86559">
        <ele>16.284901</ele>
        <time>2011-02-18 16:13:26Z</time>
      </trkpt>
      <trkpt lat="43.43706" lon="6.86559">
        <ele>16.284897</ele>
        <time>2011-02-18 16:13:30Z</time>
      </trkpt>
      <trkpt lat="43.43702" lon="6.86559">
        <ele>15.284889</ele>
        <time>2011-02-18 16:13:34Z</time>
      </trkpt>
      <trkpt lat="43.43699" lon="6.86559">
        <ele>15.284885</ele>
        <time>2011-02-18 16:13:38Z</time>
      </trkpt>
      <trkpt lat="43.43694" lon="6.86558">
        <ele>16.284874</ele>
        <time>2011-02-18 16:13:42Z</time>
      </trkpt>
      <trkpt lat="43.4369" lon="6.86557">
        <ele>15.284866</ele>
        <time>2011-02-18 16:13:46Z</time>
      </trkpt>
      <trkpt lat="43.43686" lon="6.86557">
        <ele>15.284859</ele>
        <time>2011-02-18 16:13:50Z</time>
      </trkpt>
      <trkpt lat="43.43685" lon="6.86557">
        <ele>15.284859</ele>
        <time>2011-02-18 16:13:54Z</time>
      </trkpt>
      <trkpt lat="43.43679" lon="6.86558">
        <ele>15.284847</ele>
        <time>2011-02-18 16:13:58Z</time>
      </trkpt>
      <trkpt lat="43.43678" lon="6.86558">
        <ele>15.284847</ele>
        <time>2011-02-18 16:14:02Z</time>
      </trkpt>
      <trkpt lat="43.43673" lon="6.86557">
        <ele>14.284836</ele>
        <time>2011-02-18 16:14:06Z</time>
      </trkpt>
      <trkpt lat="43.4367" lon="6.86556">
        <ele>13.284828</ele>
        <time>2011-02-18 16:14:10Z</time>
      </trkpt>
      <trkpt lat="43.43667" lon="6.86555">
        <ele>13.284821</ele>
        <time>2011-02-18 16:14:14Z</time>
      </trkpt>
      <trkpt lat="43.43665" lon="6.86554">
        <ele>13.284821</ele>
        <time>2011-02-18 16:14:18Z</time>
      </trkpt>
      <trkpt lat="43.43662" lon="6.86553">
        <ele>12.284809</ele>
        <time>2011-02-18 16:14:22Z</time>
      </trkpt>
      <trkpt lat="43.43662" lon="6.86553">
        <ele>12.284809</ele>
        <time>2011-02-18 16:14:26Z</time>
      </trkpt>
      <trkpt lat="43.43654" lon="6.86551">
        <ele>13.284798</ele>
        <time>2011-02-18 16:14:30Z</time>
      </trkpt>
      <trkpt lat="43.43654" lon="6.86551">
        <ele>13.284798</ele>
        <time>2011-02-18 16:14:34Z</time>
      </trkpt>
      <trkpt lat="43.43642" lon="6.86548">
        <ele>11.284767</ele>
        <time>2011-02-18 16:14:38Z</time>
      </trkpt>
      <trkpt lat="43.43642" lon="6.86548">
        <ele>11.284767</ele>
        <time>2011-02-18 16:14:42Z</time>
      </trkpt>
      <trkpt lat="43.43634" lon="6.86545">
        <ele>9.284748</ele>
        <time>2011-02-18 16:14:46Z</time>
      </trkpt>
      <trkpt lat="43.43634" lon="6.86544">
        <ele>9.284744</ele>
        <time>2011-02-18 16:14:50Z</time>
      </trkpt>
      <trkpt lat="43.43634" lon="6.86544">
        <ele>9.284744</ele>
        <time>2011-02-18 16:14:54Z</time>
      </trkpt>
      <trkpt lat="43.43634" lon="6.86544">
        <ele>9.284744</ele>
        <time>2011-02-18 16:14:58Z</time>
      </trkpt>
      <trkpt lat="43.43625" lon="6.86528">
        <ele>5.284698</ele>
        <time>2011-02-18 16:15:02Z</time>
      </trkpt>
      <trkpt lat="43.43625" lon="6.86524">
        <ele>5.284683</ele>
        <time>2011-02-18 16:15:06Z</time>
      </trkpt>
      <trkpt lat="43.43625" lon="6.86523">
        <ele>5.284683</ele>
        <time>2011-02-18 16:15:10Z</time>
      </trkpt>
      <trkpt lat="43.43625" lon="6.86523">
        <ele>5.284683</ele>
        <time>2011-02-18 16:15:14Z</time>
      </trkpt>
      <trkpt lat="43.43623" lon="6.8651">
        <ele>6.284653</ele>
        <time>2011-02-18 16:15:18Z</time>
      </trkpt>
      <trkpt lat="43.43623" lon="6.8651">
        <ele>6.284653</ele>
        <time>2011-02-18 16:15:22Z</time>
      </trkpt>
      <trkpt lat="43.43623" lon="6.8651">
        <ele>6.284653</ele>
        <time>2011-02-18 16:15:26Z</time>
      </trkpt>
      <trkpt lat="43.43623" lon="6.8651">
        <ele>6.284653</ele>
        <time>2011-02-18 16:15:30Z</time>
      </trkpt>
      <trkpt lat="43.43623" lon="6.8651">
        <ele>6.284653</ele>
        <time>2011-02-18 16:15:34Z</time>
      </trkpt>
      <trkpt lat="43.43621" lon="6.86491">
        <ele>5.284607</ele>
        <time>2011-02-18 16:15:38Z</time>
      </trkpt>
      <trkpt lat="43.43619" lon="6.86481">
        <ele>5.28458</ele>
        <time>2011-02-18 16:15:42Z</time>
      </trkpt>
      <trkpt lat="43.43616" lon="6.86465">
        <ele>6.284538</ele>
        <time>2011-02-18 16:15:46Z</time>
      </trkpt>
      <trkpt lat="43.43616" lon="6.86462">
        <ele>6.284531</ele>
        <time>2011-02-18 16:15:50Z</time>
      </trkpt>
      <trkpt lat="43.43612" lon="6.86447">
        <ele>6.284492</ele>
        <time>2011-02-18 16:15:54Z</time>
      </trkpt>
      <trkpt lat="43.43609" lon="6.86439">
        <ele>5.28447</ele>
        <time>2011-02-18 16:15:58Z</time>
      </trkpt>
      <trkpt lat="43.43607" lon="6.86437">
        <ele>5.284462</ele>
        <time>2011-02-18 16:16:02Z</time>
      </trkpt>
      <trkpt lat="43.43604" lon="6.86431">
        <ele>5.284439</ele>
        <time>2011-02-18 16:16:06Z</time>
      </trkpt>
      <trkpt lat="43.43604" lon="6.86431">
        <ele>5.284439</ele>
        <time>2011-02-18 16:16:10Z</time>
      </trkpt>
      <trkpt lat="43.43594" lon="6.86425">
        <ele>4.284416</ele>
        <time>2011-02-18 16:16:14Z</time>
      </trkpt>
      <trkpt lat="43.43588" lon="6.86423">
        <ele>3.284401</ele>
        <time>2011-02-18 16:16:18Z</time>
      </trkpt>
      <trkpt lat="43.43588" lon="6.86423">
        <ele>3.284401</ele>
        <time>2011-02-18 16:16:22Z</time>
      </trkpt>
      <trkpt lat="43.43588" lon="6.86423">
        <ele>3.284401</ele>
        <time>2011-02-18 16:16:26Z</time>
      </trkpt>
      <trkpt lat="43.43576" lon="6.86419">
        <ele>-2.71563</ele>
        <time>2011-02-18 16:16:30Z</time>
      </trkpt>
      <trkpt lat="43.43574" lon="6.86419">
        <ele>-2.715633</ele>
        <time>2011-02-18 16:16:34Z</time>
      </trkpt>
      <trkpt lat="43.43573" lon="6.86419">
        <ele>-2.715637</ele>
        <time>2011-02-18 16:16:38Z</time>
      </trkpt>
      <trkpt lat="43.43566" lon="6.86417">
        <ele>-3.715652</ele>
        <time>2011-02-18 16:16:42Z</time>
      </trkpt>
      <trkpt lat="43.43561" lon="6.86417">
        <ele>-4.71566</ele>
        <time>2011-02-18 16:16:46Z</time>
      </trkpt>
      <trkpt lat="43.43557" lon="6.86418">
        <ele>-5.71566</ele>
        <time>2011-02-18 16:16:50Z</time>
      </trkpt>
      <trkpt lat="43.43556" lon="6.86418">
        <ele>-5.71566</ele>
        <time>2011-02-18 16:16:54Z</time>
      </trkpt>
      <trkpt lat="43.4355" lon="6.8642">
        <ele>-6.715668</ele>
        <time>2011-02-18 16:16:58Z</time>
      </trkpt>
      <trkpt lat="43.43545" lon="6.86422">
        <ele>-7.715675</ele>
        <time>2011-02-18 16:17:02Z</time>
      </trkpt>
      <trkpt lat="43.43541" lon="6.86424">
        <ele>-7.715672</ele>
        <time>2011-02-18 16:17:06Z</time>
      </trkpt>
      <trkpt lat="43.43539" lon="6.86427">
        <ele>-7.715672</ele>
        <time>2011-02-18 16:17:10Z</time>
      </trkpt>
      <trkpt lat="43.43536" lon="6.86431">
        <ele>-7.715668</ele>
        <time>2011-02-18 16:17:14Z</time>
      </trkpt>
      <trkpt lat="43.43534" lon="6.86438">
        <ele>-7.715652</ele>
        <time>2011-02-18 16:17:18Z</time>
      </trkpt>
      <trkpt lat="43.43532" lon="6.86444">
        <ele>-8.715641</ele>
        <time>2011-02-18 16:17:22Z</time>
      </trkpt>
      <trkpt lat="43.43532" lon="6.86444">
        <ele>-8.715641</ele>
        <time>2011-02-18 16:17:26Z</time>
      </trkpt>
      <trkpt lat="43.4353" lon="6.86454">
        <ele>-10.715622</ele>
        <time>2011-02-18 16:17:30Z</time>
      </trkpt>
      <trkpt lat="43.43531" lon="6.86458">
        <ele>-10.715607</ele>
        <time>2011-02-18 16:17:34Z</time>
      </trkpt>
      <trkpt lat="43.4353" lon="6.86462">
        <ele>-9.715599</ele>
        <time>2011-02-18 16:17:38Z</time>
      </trkpt>
      <trkpt lat="43.4353" lon="6.86465">
        <ele>-7.715599</ele>
        <time>2011-02-18 16:17:42Z</time>
      </trkpt>
      <trkpt lat="43.4353" lon="6.86469">
        <ele>-7.715588</ele>
        <time>2011-02-18 16:17:46Z</time>
      </trkpt>
      <trkpt lat="43.43528" lon="6.86472">
        <ele>-7.715584</ele>
        <time>2011-02-18 16:17:50Z</time>
      </trkpt>
      <trkpt lat="43.43527" lon="6.86473">
        <ele>-7.71558</ele>
        <time>2011-02-18 16:17:54Z</time>
      </trkpt>
      <trkpt lat="43.43526" lon="6.86474">
        <ele>-7.715584</ele>
        <time>2011-02-18 16:17:58Z</time>
      </trkpt>
      <trkpt lat="43.43523" lon="6.86476">
        <ele>-7.715584</ele>
        <time>2011-02-18 16:18:02Z</time>
      </trkpt>
      <trkpt lat="43.43519" lon="6.86478">
        <ele>-7.715584</ele>
        <time>2011-02-18 16:18:06Z</time>
      </trkpt>
      <trkpt lat="43.43515" lon="6.8648">
        <ele>-8.715591</ele>
        <time>2011-02-18 16:18:10Z</time>
      </trkpt>
      <trkpt lat="43.4351" lon="6.86483">
        <ele>-9.715584</ele>
        <time>2011-02-18 16:18:14Z</time>
      </trkpt>
      <trkpt lat="43.4351" lon="6.86483">
        <ele>-9.715584</ele>
        <time>2011-02-18 16:18:18Z</time>
      </trkpt>
      <trkpt lat="43.43502" lon="6.8649">
        <ele>-9.715584</ele>
        <time>2011-02-18 16:18:22Z</time>
      </trkpt>
      <trkpt lat="43.43499" lon="6.86492">
        <ele>-9.715584</ele>
        <time>2011-02-18 16:18:26Z</time>
      </trkpt>
      <trkpt lat="43.43497" lon="6.86494">
        <ele>-9.715584</ele>
        <time>2011-02-18 16:18:30Z</time>
      </trkpt>
      <trkpt lat="43.43494" lon="6.86502">
        <ele>-10.715569</ele>
        <time>2011-02-18 16:18:34Z</time>
      </trkpt>
      <trkpt lat="43.43494" lon="6.86503">
        <ele>-10.715569</ele>
        <time>2011-02-18 16:18:38Z</time>
      </trkpt>
      <trkpt lat="43.43494" lon="6.86503">
        <ele>-10.715569</ele>
        <time>2011-02-18 16:18:42Z</time>
      </trkpt>
      <trkpt lat="43.4349" lon="6.86517">
        <ele>-10.715542</ele>
        <time>2011-02-18 16:18:46Z</time>
      </trkpt>
      <trkpt lat="43.43488" lon="6.86521">
        <ele>-11.71553</ele>
        <time>2011-02-18 16:18:50Z</time>
      </trkpt>
      <trkpt lat="43.43487" lon="6.86523">
        <ele>-11.71553</ele>
        <time>2011-02-18 16:18:54Z</time>
      </trkpt>
      <trkpt lat="43.43485" lon="6.86527">
        <ele>-11.715527</ele>
        <time>2011-02-18 16:18:58Z</time>
      </trkpt>
      <trkpt lat="43.43482" lon="6.86531">
        <ele>-12.715523</ele>
        <time>2011-02-18 16:19:02Z</time>
      </trkpt>
      <trkpt lat="43.43481" lon="6.86532">
        <ele>-12.715523</ele>
        <time>2011-02-18 16:19:06Z</time>
      </trkpt>
      <trkpt lat="43.43475" lon="6.86534">
        <ele>-13.715523</ele>
        <time>2011-02-18 16:19:10Z</time>
      </trkpt>
      <trkpt lat="43.43473" lon="6.86535">
        <ele>-13.715523</ele>
        <time>2011-02-18 16:19:14Z</time>
      </trkpt>
      <trkpt lat="43.43473" lon="6.86535">
        <ele>-13.71553</ele>
        <time>2011-02-18 16:19:18Z</time>
      </trkpt>
      <trkpt lat="43.43473" lon="6.86535">
        <ele>-13.71553</ele>
        <time>2011-02-18 16:19:22Z</time>
      </trkpt>
      <trkpt lat="43.43473" lon="6.86535">
        <ele>-13.71553</ele>
        <time>2011-02-18 16:19:26Z</time>
      </trkpt>
      <trkpt lat="43.43466" lon="6.86538">
        <ele>-10.71553</ele>
        <time>2011-02-18 16:19:30Z</time>
      </trkpt>
      <trkpt lat="43.43465" lon="6.86537">
        <ele>-8.715534</ele>
        <time>2011-02-18 16:19:34Z</time>
      </trkpt>
      <trkpt lat="43.43464" lon="6.86534">
        <ele>-5.715542</ele>
        <time>2011-02-18 16:19:38Z</time>
      </trkpt>
      <trkpt lat="43.43465" lon="6.86528">
        <ele>-4.715557</ele>
        <time>2011-02-18 16:19:42Z</time>
      </trkpt>
      <trkpt lat="43.43465" lon="6.86524">
        <ele>-5.715561</ele>
        <time>2011-02-18 16:19:46Z</time>
      </trkpt>
      <trkpt lat="43.43466" lon="6.8652">
        <ele>-5.715572</ele>
        <time>2011-02-18 16:19:50Z</time>
      </trkpt>
      <trkpt lat="43.43467" lon="6.86512">
        <ele>-6.715588</ele>
        <time>2011-02-18 16:19:54Z</time>
      </trkpt>
      <trkpt lat="43.43468" lon="6.86505">
        <ele>-5.715607</ele>
        <time>2011-02-18 16:19:58Z</time>
      </trkpt>
      <trkpt lat="43.43469" lon="6.86502">
        <ele>-5.715607</ele>
        <time>2011-02-18 16:20:02Z</time>
      </trkpt>
      <trkpt lat="43.4347" lon="6.86493">
        <ele>-5.71563</ele>
        <time>2011-02-18 16:20:06Z</time>
      </trkpt>
      <trkpt lat="43.43472" lon="6.86487">
        <ele>-6.715637</ele>
        <time>2011-02-18 16:20:10Z</time>
      </trkpt>
      <trkpt lat="43.43472" lon="6.86482">
        <ele>-5.715649</ele>
        <time>2011-02-18 16:20:14Z</time>
      </trkpt>
      <trkpt lat="43.43473" lon="6.86479">
        <ele>-5.715652</ele>
        <time>2011-02-18 16:20:18Z</time>
      </trkpt>
      <trkpt lat="43.43475" lon="6.86475">
        <ele>-5.71566</ele>
        <time>2011-02-18 16:20:22Z</time>
      </trkpt>
      <trkpt lat="43.43475" lon="6.86475">
        <ele>-5.71566</ele>
        <time>2011-02-18 16:20:26Z</time>
      </trkpt>
      <trkpt lat="43.43477" lon="6.86467">
        <ele>-6.715675</ele>
        <time>2011-02-18 16:20:30Z</time>
      </trkpt>
      <trkpt lat="43.43477" lon="6.86466">
        <ele>-6.715675</ele>
        <time>2011-02-18 16:20:34Z</time>
      </trkpt>
      <trkpt lat="43.43478" lon="6.86458">
        <ele>-6.715698</ele>
        <time>2011-02-18 16:20:38Z</time>
      </trkpt>
      <trkpt lat="43.43478" lon="6.86452">
        <ele>-6.71571</ele>
        <time>2011-02-18 16:20:42Z</time>
      </trkpt>
      <trkpt lat="43.43478" lon="6.86444">
        <ele>-7.715725</ele>
        <time>2011-02-18 16:20:46Z</time>
      </trkpt>
      <trkpt lat="43.43478" lon="6.86438">
        <ele>-6.715744</ele>
        <time>2011-02-18 16:20:50Z</time>
      </trkpt>
      <trkpt lat="43.43478" lon="6.8643">
        <ele>-6.715759</ele>
        <time>2011-02-18 16:20:54Z</time>
      </trkpt>
      <trkpt lat="43.43478" lon="6.86422">
        <ele>-6.715775</ele>
        <time>2011-02-18 16:20:58Z</time>
      </trkpt>
      <trkpt lat="43.43478" lon="6.86419">
        <ele>-6.715782</ele>
        <time>2011-02-18 16:21:02Z</time>
      </trkpt>
      <trkpt lat="43.43476" lon="6.86412">
        <ele>-6.715805</ele>
        <time>2011-02-18 16:21:06Z</time>
      </trkpt>
      <trkpt lat="43.43476" lon="6.86412">
        <ele>-6.715805</ele>
        <time>2011-02-18 16:21:10Z</time>
      </trkpt>
      <trkpt lat="43.43474" lon="6.86407">
        <ele>-6.715816</ele>
        <time>2011-02-18 16:21:14Z</time>
      </trkpt>
      <trkpt lat="43.43472" lon="6.86405">
        <ele>-6.71582</ele>
        <time>2011-02-18 16:21:18Z</time>
      </trkpt>
      <trkpt lat="43.43469" lon="6.86404">
        <ele>-7.715832</ele>
        <time>2011-02-18 16:21:22Z</time>
      </trkpt>
      <trkpt lat="43.43466" lon="6.86403">
        <ele>-8.715836</ele>
        <time>2011-02-18 16:21:26Z</time>
      </trkpt>
      <trkpt lat="43.43464" lon="6.86402">
        <ele>-8.715843</ele>
        <time>2011-02-18 16:21:30Z</time>
      </trkpt>
      <trkpt lat="43.43463" lon="6.86401">
        <ele>-8.715843</ele>
        <time>2011-02-18 16:21:34Z</time>
      </trkpt>
      <trkpt lat="43.43461" lon="6.86393">
        <ele>-10.715866</ele>
        <time>2011-02-18 16:21:38Z</time>
      </trkpt>
      <trkpt lat="43.43461" lon="6.86388">
        <ele>-11.715881</ele>
        <time>2011-02-18 16:21:42Z</time>
      </trkpt>
      <trkpt lat="43.43459" lon="6.86382">
        <ele>-13.715897</ele>
        <time>2011-02-18 16:21:46Z</time>
      </trkpt>
      <trkpt lat="43.43459" lon="6.86379">
        <ele>-13.715904</ele>
        <time>2011-02-18 16:21:50Z</time>
      </trkpt>
      <trkpt lat="43.43458" lon="6.86378">
        <ele>-13.715904</ele>
        <time>2011-02-18 16:21:54Z</time>
      </trkpt>
      <trkpt lat="43.43455" lon="6.86371">
        <ele>-12.715927</ele>
        <time>2011-02-18 16:21:58Z</time>
      </trkpt>
      <trkpt lat="43.43455" lon="6.86371">
        <ele>-12.715927</ele>
        <time>2011-02-18 16:22:02Z</time>
      </trkpt>
      <trkpt lat="43.43454" lon="6.86367">
        <ele>-14.715939</ele>
        <time>2011-02-18 16:22:06Z</time>
      </trkpt>
      <trkpt lat="43.43454" lon="6.86367">
        <ele>-14.715939</ele>
        <time>2011-02-18 16:22:10Z</time>
      </trkpt>
      <trkpt lat="43.43451" lon="6.86357">
        <ele>-12.715969</ele>
        <time>2011-02-18 16:22:14Z</time>
      </trkpt>
      <trkpt lat="43.4345" lon="6.86351">
        <ele>-11.715981</ele>
        <time>2011-02-18 16:22:18Z</time>
      </trkpt>
      <trkpt lat="43.4345" lon="6.86351">
        <ele>-11.715981</ele>
        <time>2011-02-18 16:22:22Z</time>
      </trkpt>
      <trkpt lat="43.43448" lon="6.86334">
        <ele>-10.716026</ele>
        <time>2011-02-18 16:22:26Z</time>
      </trkpt>
      <trkpt lat="43.43448" lon="6.86332">
        <ele>-10.716026</ele>
        <time>2011-02-18 16:22:30Z</time>
      </trkpt>
      <trkpt lat="43.43449" lon="6.86324">
        <ele>-12.716042</ele>
        <time>2011-02-18 16:22:34Z</time>
      </trkpt>
      <trkpt lat="43.43449" lon="6.86322">
        <ele>-12.716045</ele>
        <time>2011-02-18 16:22:38Z</time>
      </trkpt>
      <trkpt lat="43.43449" lon="6.86321">
        <ele>-12.716053</ele>
        <time>2011-02-18 16:22:42Z</time>
      </trkpt>
      <trkpt lat="43.43449" lon="6.86321">
        <ele>-12.716053</ele>
        <time>2011-02-18 16:22:46Z</time>
      </trkpt>
      <trkpt lat="43.43449" lon="6.86321">
        <ele>-12.716053</ele>
        <time>2011-02-18 16:22:50Z</time>
      </trkpt>
      <trkpt lat="43.43448" lon="6.86303">
        <ele>-10.716095</ele>
        <time>2011-02-18 16:22:54Z</time>
      </trkpt>
      <trkpt lat="43.43447" lon="6.86296">
        <ele>-10.71611</ele>
        <time>2011-02-18 16:22:58Z</time>
      </trkpt>
      <trkpt lat="43.43444" lon="6.86288">
        <ele>-9.716133</ele>
        <time>2011-02-18 16:23:02Z</time>
      </trkpt>
      <trkpt lat="43.43441" lon="6.86283">
        <ele>-9.716152</ele>
        <time>2011-02-18 16:23:06Z</time>
      </trkpt>
      <trkpt lat="43.4344" lon="6.86278">
        <ele>-10.716164</ele>
        <time>2011-02-18 16:23:10Z</time>
      </trkpt>
      <trkpt lat="43.43439" lon="6.86274">
        <ele>-10.716179</ele>
        <time>2011-02-18 16:23:14Z</time>
      </trkpt>
      <trkpt lat="43.43439" lon="6.86274">
        <ele>-10.716179</ele>
        <time>2011-02-18 16:23:18Z</time>
      </trkpt>
      <trkpt lat="43.43439" lon="6.86274">
        <ele>-10.716179</ele>
        <time>2011-02-18 16:23:22Z</time>
      </trkpt>
      <trkpt lat="43.43436" lon="6.86265">
        <ele>-10.716202</ele>
        <time>2011-02-18 16:23:26Z</time>
      </trkpt>
      <trkpt lat="43.43437" lon="6.8626">
        <ele>-10.716209</ele>
        <time>2011-02-18 16:23:30Z</time>
      </trkpt>
      <trkpt lat="43.43437" lon="6.86258">
        <ele>-10.716217</ele>
        <time>2011-02-18 16:23:34Z</time>
      </trkpt>
      <trkpt lat="43.43436" lon="6.86249">
        <ele>-12.71624</ele>
        <time>2011-02-18 16:23:38Z</time>
      </trkpt>
      <trkpt lat="43.43435" lon="6.86244">
        <ele>-12.716248</ele>
        <time>2011-02-18 16:23:42Z</time>
      </trkpt>
      <trkpt lat="43.43435" lon="6.86243">
        <ele>-12.716255</ele>
        <time>2011-02-18 16:23:46Z</time>
      </trkpt>
      <trkpt lat="43.43432" lon="6.86236">
        <ele>-13.716274</ele>
        <time>2011-02-18 16:23:50Z</time>
      </trkpt>
      <trkpt lat="43.43432" lon="6.86235">
        <ele>-13.716274</ele>
        <time>2011-02-18 16:23:54Z</time>
      </trkpt>
      <trkpt lat="43.43431" lon="6.86226">
        <ele>-14.716301</ele>
        <time>2011-02-18 16:23:58Z</time>
      </trkpt>
      <trkpt lat="43.43431" lon="6.86223">
        <ele>-15.716305</ele>
        <time>2011-02-18 16:24:02Z</time>
      </trkpt>
      <trkpt lat="43.43431" lon="6.86223">
        <ele>-15.716305</ele>
        <time>2011-02-18 16:24:06Z</time>
      </trkpt>
      <trkpt lat="43.4343" lon="6.86208">
        <ele>-14.716339</ele>
        <time>2011-02-18 16:24:10Z</time>
      </trkpt>
      <trkpt lat="43.4343" lon="6.86208">
        <ele>-14.716339</ele>
        <time>2011-02-18 16:24:14Z</time>
      </trkpt>
      <trkpt lat="43.43428" lon="6.86193">
        <ele>-14.716377</ele>
        <time>2011-02-18 16:24:18Z</time>
      </trkpt>
      <trkpt lat="43.43428" lon="6.8619">
        <ele>-15.716385</ele>
        <time>2011-02-18 16:24:22Z</time>
      </trkpt>
      <trkpt lat="43.43427" lon="6.86185">
        <ele>-15.7164</ele>
        <time>2011-02-18 16:24:26Z</time>
      </trkpt>
      <trkpt lat="43.43427" lon="6.86183">
        <ele>-15.716408</ele>
        <time>2011-02-18 16:24:30Z</time>
      </trkpt>
      <trkpt lat="43.43425" lon="6.86179">
        <ele>-14.716415</ele>
        <time>2011-02-18 16:24:34Z</time>
      </trkpt>
      <trkpt lat="43.43425" lon="6.86169">
        <ele>-14.716434</ele>
        <time>2011-02-18 16:24:38Z</time>
      </trkpt>
      <trkpt lat="43.43425" lon="6.86161">
        <ele>-14.716454</ele>
        <time>2011-02-18 16:24:42Z</time>
      </trkpt>
      <trkpt lat="43.43424" lon="6.86155">
        <ele>-14.716469</ele>
        <time>2011-02-18 16:24:46Z</time>
      </trkpt>
      <trkpt lat="43.43424" lon="6.86149">
        <ele>-14.716484</ele>
        <time>2011-02-18 16:24:50Z</time>
      </trkpt>
      <trkpt lat="43.43423" lon="6.86138">
        <ele>-14.716511</ele>
        <time>2011-02-18 16:24:54Z</time>
      </trkpt>
      <trkpt lat="43.43422" lon="6.86135">
        <ele>-15.716518</ele>
        <time>2011-02-18 16:24:58Z</time>
      </trkpt>
      <trkpt lat="43.43422" lon="6.86127">
        <ele>-16.716537</ele>
        <time>2011-02-18 16:25:02Z</time>
      </trkpt>
      <trkpt lat="43.43422" lon="6.86125">
        <ele>-16.716545</ele>
        <time>2011-02-18 16:25:06Z</time>
      </trkpt>
      <trkpt lat="43.43422" lon="6.86125">
        <ele>-16.716545</ele>
        <time>2011-02-18 16:25:10Z</time>
      </trkpt>
      <trkpt lat="43.43422" lon="6.86125">
        <ele>-16.716545</ele>
        <time>2011-02-18 16:25:14Z</time>
      </trkpt>
      <trkpt lat="43.43422" lon="6.86117">
        <ele>-15.71656</ele>
        <time>2011-02-18 16:25:18Z</time>
      </trkpt>
      <trkpt lat="43.43422" lon="6.86115">
        <ele>-15.71656</ele>
        <time>2011-02-18 16:25:22Z</time>
      </trkpt>
      <trkpt lat="43.43422" lon="6.86115">
        <ele>-15.71656</ele>
        <time>2011-02-18 16:25:26Z</time>
      </trkpt>
      <trkpt lat="43.43422" lon="6.86115">
        <ele>-15.71656</ele>
        <time>2011-02-18 16:25:30Z</time>
      </trkpt>
      <trkpt lat="43.43421" lon="6.86102">
        <ele>-14.716599</ele>
        <time>2011-02-18 16:25:34Z</time>
      </trkpt>
      <trkpt lat="43.43421" lon="6.86102">
        <ele>-14.716599</ele>
        <time>2011-02-18 16:25:38Z</time>
      </trkpt>
      <trkpt lat="43.43421" lon="6.86102">
        <ele>-14.716599</ele>
        <time>2011-02-18 16:25:42Z</time>
      </trkpt>
      <trkpt lat="43.43417" lon="6.8608">
        <ele>-15.716652</ele>
        <time>2011-02-18 16:25:46Z</time>
      </trkpt>
      <trkpt lat="43.43414" lon="6.86065">
        <ele>-19.71669</ele>
        <time>2011-02-18 16:25:50Z</time>
      </trkpt>
      <trkpt lat="43.43412" lon="6.86053">
        <ele>-20.716724</ele>
        <time>2011-02-18 16:25:54Z</time>
      </trkpt>
      <trkpt lat="43.43409" lon="6.86043">
        <ele>-20.716751</ele>
        <time>2011-02-18 16:25:58Z</time>
      </trkpt>
      <trkpt lat="43.43406" lon="6.86035">
        <ele>-20.716774</ele>
        <time>2011-02-18 16:26:02Z</time>
      </trkpt>
      <trkpt lat="43.43406" lon="6.86033">
        <ele>-20.716774</ele>
        <time>2011-02-18 16:26:06Z</time>
      </trkpt>
      <trkpt lat="43.43406" lon="6.86033">
        <ele>-20.716774</ele>
        <time>2011-02-18 16:26:10Z</time>
      </trkpt>
      <trkpt lat="43.43402" lon="6.8602">
        <ele>-19.716812</ele>
        <time>2011-02-18 16:26:14Z</time>
      </trkpt>
      <trkpt lat="43.43402" lon="6.8602">
        <ele>-19.716812</ele>
        <time>2011-02-18 16:26:18Z</time>
      </trkpt>
      <trkpt lat="43.43398" lon="6.86007">
        <ele>-18.71685</ele>
        <time>2011-02-18 16:26:22Z</time>
      </trkpt>
      <trkpt lat="43.43395" lon="6.86">
        <ele>-19.716869</ele>
        <time>2011-02-18 16:26:26Z</time>
      </trkpt>
      <trkpt lat="43.43393" lon="6.85996">
        <ele>-19.716885</ele>
        <time>2011-02-18 16:26:30Z</time>
      </trkpt>
      <trkpt lat="43.4339" lon="6.85989">
        <ele>-21.716904</ele>
        <time>2011-02-18 16:26:34Z</time>
      </trkpt>
      <trkpt lat="43.4339" lon="6.85989">
        <ele>-21.716904</ele>
        <time>2011-02-18 16:26:38Z</time>
      </trkpt>
      <trkpt lat="43.4339" lon="6.85989">
        <ele>-21.716904</ele>
        <time>2011-02-18 16:26:42Z</time>
      </trkpt>
      <trkpt lat="43.43383" lon="6.85975">
        <ele>-22.716949</ele>
        <time>2011-02-18 16:26:46Z</time>
      </trkpt>
      <trkpt lat="43.43381" lon="6.8597">
        <ele>-22.716961</ele>
        <time>2011-02-18 16:26:50Z</time>
      </trkpt>
      <trkpt lat="43.43379" lon="6.85967">
        <ele>-22.716972</ele>
        <time>2011-02-18 16:26:54Z</time>
      </trkpt>
      <trkpt lat="43.43379" lon="6.85967">
        <ele>-22.716972</ele>
        <time>2011-02-18 16:26:58Z</time>
      </trkpt>
      <trkpt lat="43.43375" lon="6.85955">
        <ele>-22.717003</ele>
        <time>2011-02-18 16:27:02Z</time>
      </trkpt>
      <trkpt lat="43.43373" lon="6.85951">
        <ele>-22.717018</ele>
        <time>2011-02-18 16:27:06Z</time>
      </trkpt>
      <trkpt lat="43.43373" lon="6.85951">
        <ele>-22.717018</ele>
        <time>2011-02-18 16:27:10Z</time>
      </trkpt>
      <trkpt lat="43.43368" lon="6.85943">
        <ele>-23.717041</ele>
        <time>2011-02-18 16:27:14Z</time>
      </trkpt>
      <trkpt lat="43.43368" lon="6.8594">
        <ele>-23.717049</ele>
        <time>2011-02-18 16:27:18Z</time>
      </trkpt>
      <trkpt lat="43.43367" lon="6.85937">
        <ele>-23.717056</ele>
        <time>2011-02-18 16:27:22Z</time>
      </trkpt>
      <trkpt lat="43.43367" lon="6.85934">
        <ele>-24.717064</ele>
        <time>2011-02-18 16:27:26Z</time>
      </trkpt>
      <trkpt lat="43.43368" lon="6.85928">
        <ele>-24.717079</ele>
        <time>2011-02-18 16:27:30Z</time>
      </trkpt>
      <trkpt lat="43.43368" lon="6.85925">
        <ele>-24.717083</ele>
        <time>2011-02-18 16:27:34Z</time>
      </trkpt>
      <trkpt lat="43.43368" lon="6.85925">
        <ele>-24.717083</ele>
        <time>2011-02-18 16:27:38Z</time>
      </trkpt>
      <trkpt lat="43.43368" lon="6.85925">
        <ele>-24.717083</ele>
        <time>2011-02-18 16:27:42Z</time>
      </trkpt>
      <trkpt lat="43.43371" lon="6.85919">
        <ele>-24.717091</ele>
        <time>2011-02-18 16:27:46Z</time>
      </trkpt>
      <trkpt lat="43.43374" lon="6.85915">
        <ele>-24.717098</ele>
        <time>2011-02-18 16:27:50Z</time>
      </trkpt>
      <trkpt lat="43.43376" lon="6.85911">
        <ele>-25.717102</ele>
        <time>2011-02-18 16:27:54Z</time>
      </trkpt>
      <trkpt lat="43.43377" lon="6.85908">
        <ele>-26.71711</ele>
        <time>2011-02-18 16:27:58Z</time>
      </trkpt>
      <trkpt lat="43.43379" lon="6.85899">
        <ele>-25.717129</ele>
        <time>2011-02-18 16:28:02Z</time>
      </trkpt>
      <trkpt lat="43.43381" lon="6.85891">
        <ele>-25.71714</ele>
        <time>2011-02-18 16:28:06Z</time>
      </trkpt>
      <trkpt lat="43.43383" lon="6.85885">
        <ele>-24.717155</ele>
        <time>2011-02-18 16:28:10Z</time>
      </trkpt>
      <trkpt lat="43.43386" lon="6.85875">
        <ele>-23.717171</ele>
        <time>2011-02-18 16:28:14Z</time>
      </trkpt>
      <trkpt lat="43.43388" lon="6.85869">
        <ele>-23.717178</ele>
        <time>2011-02-18 16:28:18Z</time>
      </trkpt>
      <trkpt lat="43.43391" lon="6.85862">
        <ele>-23.717194</ele>
        <time>2011-02-18 16:28:22Z</time>
      </trkpt>
      <trkpt lat="43.43396" lon="6.85857">
        <ele>-23.717194</ele>
        <time>2011-02-18 16:28:26Z</time>
      </trkpt>
      <trkpt lat="43.43399" lon="6.85854">
        <ele>-23.717201</ele>
        <time>2011-02-18 16:28:30Z</time>
      </trkpt>
      <trkpt lat="43.43399" lon="6.85854">
        <ele>-23.717201</ele>
        <time>2011-02-18 16:28:34Z</time>
      </trkpt>
      <trkpt lat="43.43399" lon="6.85854">
        <ele>-23.717201</ele>
        <time>2011-02-18 16:28:38Z</time>
      </trkpt>
      <trkpt lat="43.43407" lon="6.85848">
        <ele>-23.717201</ele>
        <time>2011-02-18 16:28:42Z</time>
      </trkpt>
      <trkpt lat="43.43407" lon="6.85848">
        <ele>-23.717201</ele>
        <time>2011-02-18 16:28:46Z</time>
      </trkpt>
      <trkpt lat="43.43407" lon="6.85848">
        <ele>-23.717201</ele>
        <time>2011-02-18 16:28:50Z</time>
      </trkpt>
      <trkpt lat="43.43407" lon="6.85848">
        <ele>-23.717201</ele>
        <time>2011-02-18 16:28:54Z</time>
      </trkpt>
      <trkpt lat="43.43407" lon="6.85848">
        <ele>-23.717201</ele>
        <time>2011-02-18 16:28:58Z</time>
      </trkpt>
      <trkpt lat="43.43407" lon="6.85848">
        <ele>-23.717201</ele>
        <time>2011-02-18 16:29:02Z</time>
      </trkpt>
      <trkpt lat="43.43422" lon="6.85815">
        <ele>-21.717251</ele>
        <time>2011-02-18 16:29:06Z</time>
      </trkpt>
      <trkpt lat="43.43422" lon="6.85815">
        <ele>-21.717251</ele>
        <time>2011-02-18 16:29:10Z</time>
      </trkpt>
      <trkpt lat="43.43426" lon="6.85797">
        <ele>-22.717285</ele>
        <time>2011-02-18 16:29:14Z</time>
      </trkpt>
      <trkpt lat="43.43429" lon="6.85779">
        <ele>-21.717323</ele>
        <time>2011-02-18 16:29:18Z</time>
      </trkpt>
      <trkpt lat="43.4343" lon="6.85771">
        <ele>-20.717339</ele>
        <time>2011-02-18 16:29:22Z</time>
      </trkpt>
      <trkpt lat="43.43431" lon="6.85766">
        <ele>-20.717346</ele>
        <time>2011-02-18 16:29:26Z</time>
      </trkpt>
      <trkpt lat="43.43432" lon="6.85765">
        <ele>-20.717346</ele>
        <time>2011-02-18 16:29:30Z</time>
      </trkpt>
      <trkpt lat="43.43432" lon="6.85765">
        <ele>-20.717346</ele>
        <time>2011-02-18 16:29:34Z</time>
      </trkpt>
      <trkpt lat="43.43432" lon="6.85765">
        <ele>-20.717346</ele>
        <time>2011-02-18 16:29:38Z</time>
      </trkpt>
      <trkpt lat="43.43434" lon="6.8576">
        <ele>-19.717354</ele>
        <time>2011-02-18 16:29:42Z</time>
      </trkpt>
      <trkpt lat="43.43434" lon="6.85759">
        <ele>-19.717358</ele>
        <time>2011-02-18 16:29:46Z</time>
      </trkpt>
      <trkpt lat="43.43435" lon="6.85757">
        <ele>-19.717361</ele>
        <time>2011-02-18 16:29:50Z</time>
      </trkpt>
      <trkpt lat="43.43435" lon="6.85754">
        <ele>-19.717369</ele>
        <time>2011-02-18 16:29:54Z</time>
      </trkpt>
      <trkpt lat="43.43438" lon="6.85749">
        <ele>-20.717377</ele>
        <time>2011-02-18 16:29:58Z</time>
      </trkpt>
      <trkpt lat="43.43441" lon="6.85745">
        <ele>-20.717384</ele>
        <time>2011-02-18 16:30:02Z</time>
      </trkpt>
      <trkpt lat="43.43443" lon="6.85742">
        <ele>-20.717384</ele>
        <time>2011-02-18 16:30:06Z</time>
      </trkpt>
      <trkpt lat="43.43443" lon="6.85742">
        <ele>-20.717384</ele>
        <time>2011-02-18 16:30:10Z</time>
      </trkpt>
      <trkpt lat="43.43449" lon="6.85735">
        <ele>-21.717392</ele>
        <time>2011-02-18 16:30:14Z</time>
      </trkpt>
      <trkpt lat="43.43452" lon="6.85732">
        <ele>-22.717392</ele>
        <time>2011-02-18 16:30:18Z</time>
      </trkpt>
      <trkpt lat="43.43454" lon="6.85729">
        <ele>-22.717392</ele>
        <time>2011-02-18 16:30:22Z</time>
      </trkpt>
      <trkpt lat="43.43455" lon="6.85729">
        <ele>-22.717396</ele>
        <time>2011-02-18 16:30:26Z</time>
      </trkpt>
      <trkpt lat="43.43455" lon="6.85729">
        <ele>-22.717396</ele>
        <time>2011-02-18 16:30:30Z</time>
      </trkpt>
      <trkpt lat="43.43455" lon="6.85729">
        <ele>-22.717396</ele>
        <time>2011-02-18 16:30:34Z</time>
      </trkpt>
      <trkpt lat="43.43464" lon="6.85717">
        <ele>-22.717407</ele>
        <time>2011-02-18 16:30:38Z</time>
      </trkpt>
      <trkpt lat="43.43464" lon="6.85717">
        <ele>-22.717407</ele>
        <time>2011-02-18 16:30:42Z</time>
      </trkpt>
      <trkpt lat="43.43464" lon="6.85717">
        <ele>-22.717407</ele>
        <time>2011-02-18 16:30:46Z</time>
      </trkpt>
      <trkpt lat="43.43464" lon="6.85717">
        <ele>-22.717407</ele>
        <time>2011-02-18 16:30:50Z</time>
      </trkpt>
      <trkpt lat="43.4347" lon="6.85709">
        <ele>-24.717415</ele>
        <time>2011-02-18 16:30:54Z</time>
      </trkpt>
      <trkpt lat="43.43473" lon="6.85699">
        <ele>-23.717434</ele>
        <time>2011-02-18 16:30:58Z</time>
      </trkpt>
      <trkpt lat="43.43473" lon="6.85697">
        <ele>-24.717438</ele>
        <time>2011-02-18 16:31:02Z</time>
      </trkpt>
      <trkpt lat="43.43475" lon="6.85685">
        <ele>-24.717464</ele>
        <time>2011-02-18 16:31:06Z</time>
      </trkpt>
      <trkpt lat="43.43475" lon="6.85685">
        <ele>-24.717464</ele>
        <time>2011-02-18 16:31:10Z</time>
      </trkpt>
      <trkpt lat="43.43475" lon="6.85685">
        <ele>-24.717464</ele>
        <time>2011-02-18 16:31:14Z</time>
      </trkpt>
      <trkpt lat="43.43478" lon="6.85671">
        <ele>-24.717491</ele>
        <time>2011-02-18 16:31:18Z</time>
      </trkpt>
      <trkpt lat="43.43478" lon="6.85671">
        <ele>-24.717491</ele>
        <time>2011-02-18 16:31:22Z</time>
      </trkpt>
      <trkpt lat="43.43478" lon="6.85671">
        <ele>-24.717491</ele>
        <time>2011-02-18 16:31:26Z</time>
      </trkpt>
      <trkpt lat="43.43478" lon="6.85671">
        <ele>-24.717491</ele>
        <time>2011-02-18 16:31:30Z</time>
      </trkpt>
      <trkpt lat="43.43478" lon="6.85671">
        <ele>-24.717491</ele>
        <time>2011-02-18 16:31:34Z</time>
      </trkpt>
      <trkpt lat="43.43478" lon="6.85671">
        <ele>-24.717491</ele>
        <time>2011-02-18 16:31:38Z</time>
      </trkpt>
      <trkpt lat="43.43486" lon="6.85636">
        <ele>-27.717556</ele>
        <time>2011-02-18 16:31:42Z</time>
      </trkpt>
      <trkpt lat="43.43486" lon="6.85636">
        <ele>-27.717556</ele>
        <time>2011-02-18 16:31:46Z</time>
      </trkpt>
      <trkpt lat="43.43486" lon="6.85636">
        <ele>-27.717556</ele>
        <time>2011-02-18 16:31:50Z</time>
      </trkpt>
      <trkpt lat="43.43486" lon="6.85636">
        <ele>-27.717556</ele>
        <time>2011-02-18 16:31:54Z</time>
      </trkpt>
      <trkpt lat="43.43491" lon="6.85607">
        <ele>-23.717621</ele>
        <time>2011-02-18 16:31:58Z</time>
      </trkpt>
      <trkpt lat="43.43491" lon="6.85607">
        <ele>-23.717621</ele>
        <time>2011-02-18 16:32:02Z</time>
      </trkpt>
      <trkpt lat="43.43491" lon="6.85607">
        <ele>-23.717621</ele>
        <time>2011-02-18 16:32:06Z</time>
      </trkpt>
      <trkpt lat="43.4349" lon="6.85582">
        <ele>-20.717674</ele>
        <time>2011-02-18 16:32:10Z</time>
      </trkpt>
      <trkpt lat="43.4349" lon="6.85578">
        <ele>-20.71769</ele>
        <time>2011-02-18 16:32:14Z</time>
      </trkpt>
      <trkpt lat="43.4349" lon="6.85578">
        <ele>-20.71769</ele>
        <time>2011-02-18 16:32:18Z</time>
      </trkpt>
      <trkpt lat="43.4349" lon="6.85578">
        <ele>-20.71769</ele>
        <time>2011-02-18 16:32:22Z</time>
      </trkpt>
      <trkpt lat="43.4349" lon="6.85578">
        <ele>-20.71769</ele>
        <time>2011-02-18 16:32:26Z</time>
      </trkpt>
      <trkpt lat="43.43486" lon="6.85563">
        <ele>-20.717728</ele>
        <time>2011-02-18 16:32:30Z</time>
      </trkpt>
      <trkpt lat="43.43485" lon="6.85554">
        <ele>-20.717747</ele>
        <time>2011-02-18 16:32:34Z</time>
      </trkpt>
      <trkpt lat="43.43485" lon="6.85554">
        <ele>-20.717747</ele>
        <time>2011-02-18 16:32:38Z</time>
      </trkpt>
      <trkpt lat="43.43485" lon="6.85554">
        <ele>-20.717747</ele>
        <time>2011-02-18 16:32:42Z</time>
      </trkpt>
      <trkpt lat="43.43483" lon="6.85541">
        <ele>-22.717781</ele>
        <time>2011-02-18 16:32:46Z</time>
      </trkpt>
      <trkpt lat="43.43483" lon="6.85541">
        <ele>-22.717781</ele>
        <time>2011-02-18 16:32:50Z</time>
      </trkpt>
      <trkpt lat="43.43481" lon="6.85529">
        <ele>-21.717808</ele>
        <time>2011-02-18 16:32:54Z</time>
      </trkpt>
      <trkpt lat="43.43479" lon="6.85523">
        <ele>-21.717827</ele>
        <time>2011-02-18 16:32:58Z</time>
      </trkpt>
      <trkpt lat="43.43478" lon="6.8552">
        <ele>-21.717834</ele>
        <time>2011-02-18 16:33:02Z</time>
      </trkpt>
      <trkpt lat="43.43475" lon="6.8551">
        <ele>-22.717861</ele>
        <time>2011-02-18 16:33:06Z</time>
      </trkpt>
      <trkpt lat="43.43472" lon="6.85503">
        <ele>-21.71788</ele>
        <time>2011-02-18 16:33:10Z</time>
      </trkpt>
      <trkpt lat="43.43469" lon="6.85494">
        <ele>-21.717911</ele>
        <time>2011-02-18 16:33:14Z</time>
      </trkpt>
      <trkpt lat="43.43468" lon="6.85492">
        <ele>-21.717915</ele>
        <time>2011-02-18 16:33:18Z</time>
      </trkpt>
      <trkpt lat="43.43462" lon="6.85477">
        <ele>-19.717957</ele>
        <time>2011-02-18 16:33:22Z</time>
      </trkpt>
      <trkpt lat="43.43459" lon="6.85469">
        <ele>-18.717983</ele>
        <time>2011-02-18 16:33:26Z</time>
      </trkpt>
      <trkpt lat="43.43457" lon="6.85466">
        <ele>-17.717991</ele>
        <time>2011-02-18 16:33:30Z</time>
      </trkpt>
      <trkpt lat="43.43454" lon="6.85458">
        <ele>-17.718018</ele>
        <time>2011-02-18 16:33:34Z</time>
      </trkpt>
      <trkpt lat="43.43451" lon="6.85453">
        <ele>-17.718029</ele>
        <time>2011-02-18 16:33:38Z</time>
      </trkpt>
      <trkpt lat="43.43451" lon="6.85452">
        <ele>-17.718033</ele>
        <time>2011-02-18 16:33:42Z</time>
      </trkpt>
      <trkpt lat="43.43446" lon="6.85444">
        <ele>-18.718063</ele>
        <time>2011-02-18 16:33:46Z</time>
      </trkpt>
      <trkpt lat="43.43445" lon="6.85441">
        <ele>-18.718071</ele>
        <time>2011-02-18 16:33:50Z</time>
      </trkpt>
      <trkpt lat="43.43444" lon="6.85438">
        <ele>-19.718079</ele>
        <time>2011-02-18 16:33:54Z</time>
      </trkpt>
      <trkpt lat="43.43441" lon="6.85434">
        <ele>-20.718086</ele>
        <time>2011-02-18 16:33:58Z</time>
      </trkpt>
      <trkpt lat="43.4344" lon="6.85431">
        <ele>-20.718102</ele>
        <time>2011-02-18 16:34:02Z</time>
      </trkpt>
      <trkpt lat="43.43438" lon="6.85426">
        <ele>-20.718109</ele>
        <time>2011-02-18 16:34:06Z</time>
      </trkpt>
      <trkpt lat="43.43436" lon="6.85422">
        <ele>-20.718124</ele>
        <time>2011-02-18 16:34:10Z</time>
      </trkpt>
      <trkpt lat="43.43433" lon="6.85418">
        <ele>-20.71814</ele>
        <time>2011-02-18 16:34:14Z</time>
      </trkpt>
      <trkpt lat="43.4343" lon="6.85411">
        <ele>-20.718155</ele>
        <time>2011-02-18 16:34:18Z</time>
      </trkpt>
      <trkpt lat="43.43427" lon="6.85403">
        <ele>-20.718182</ele>
        <time>2011-02-18 16:34:22Z</time>
      </trkpt>
      <trkpt lat="43.43427" lon="6.85401">
        <ele>-20.718193</ele>
        <time>2011-02-18 16:34:26Z</time>
      </trkpt>
      <trkpt lat="43.43426" lon="6.85394">
        <ele>-21.718204</ele>
        <time>2011-02-18 16:34:30Z</time>
      </trkpt>
      <trkpt lat="43.43425" lon="6.85391">
        <ele>-21.718216</ele>
        <time>2011-02-18 16:34:34Z</time>
      </trkpt>
      <trkpt lat="43.43425" lon="6.85391">
        <ele>-21.718216</ele>
        <time>2011-02-18 16:34:38Z</time>
      </trkpt>
      <trkpt lat="43.43425" lon="6.85391">
        <ele>-21.718216</ele>
        <time>2011-02-18 16:34:42Z</time>
      </trkpt>
      <trkpt lat="43.43423" lon="6.85379">
        <ele>-21.718246</ele>
        <time>2011-02-18 16:34:46Z</time>
      </trkpt>
      <trkpt lat="43.43423" lon="6.85379">
        <ele>-21.718246</ele>
        <time>2011-02-18 16:34:50Z</time>
      </trkpt>
      <trkpt lat="43.43423" lon="6.85379">
        <ele>-21.718246</ele>
        <time>2011-02-18 16:34:54Z</time>
      </trkpt>
      <trkpt lat="43.4342" lon="6.85366">
        <ele>-17.718277</ele>
        <time>2011-02-18 16:34:58Z</time>
      </trkpt>
      <trkpt lat="43.43419" lon="6.85359">
        <ele>-16.718296</ele>
        <time>2011-02-18 16:35:02Z</time>
      </trkpt>
      <trkpt lat="43.43418" lon="6.85352">
        <ele>-15.718315</ele>
        <time>2011-02-18 16:35:06Z</time>
      </trkpt>
      <trkpt lat="43.43416" lon="6.85344">
        <ele>-15.718334</ele>
        <time>2011-02-18 16:35:10Z</time>
      </trkpt>
      <trkpt lat="43.43416" lon="6.85342">
        <ele>-15.718342</ele>
        <time>2011-02-18 16:35:14Z</time>
      </trkpt>
      <trkpt lat="43.43412" lon="6.85327">
        <ele>-14.718384</ele>
        <time>2011-02-18 16:35:18Z</time>
      </trkpt>
      <trkpt lat="43.43413" lon="6.85319">
        <ele>-14.718399</ele>
        <time>2011-02-18 16:35:22Z</time>
      </trkpt>
      <trkpt lat="43.43414" lon="6.85312">
        <ele>-14.718414</ele>
        <time>2011-02-18 16:35:26Z</time>
      </trkpt>
      <trkpt lat="43.43414" lon="6.8531">
        <ele>-13.718414</ele>
        <time>2011-02-18 16:35:30Z</time>
      </trkpt>
      <trkpt lat="43.43418" lon="6.853">
        <ele>-13.71843</ele>
        <time>2011-02-18 16:35:34Z</time>
      </trkpt>
      <trkpt lat="43.43419" lon="6.85298">
        <ele>-13.718437</ele>
        <time>2011-02-18 16:35:38Z</time>
      </trkpt>
      <trkpt lat="43.43419" lon="6.85298">
        <ele>-13.718437</ele>
        <time>2011-02-18 16:35:42Z</time>
      </trkpt>
      <trkpt lat="43.43424" lon="6.8529">
        <ele>-16.718445</ele>
        <time>2011-02-18 16:35:46Z</time>
      </trkpt>
      <trkpt lat="43.43424" lon="6.8529">
        <ele>-16.718445</ele>
        <time>2011-02-18 16:35:50Z</time>
      </trkpt>
      <trkpt lat="43.43431" lon="6.85289">
        <ele>-18.718437</ele>
        <time>2011-02-18 16:35:54Z</time>
      </trkpt>
      <trkpt lat="43.43431" lon="6.85289">
        <ele>-18.718437</ele>
        <time>2011-02-18 16:35:58Z</time>
      </trkpt>
      <trkpt lat="43.43431" lon="6.85289">
        <ele>-18.718437</ele>
        <time>2011-02-18 16:36:02Z</time>
      </trkpt>
      <trkpt lat="43.43442" lon="6.85292">
        <ele>-24.718407</ele>
        <time>2011-02-18 16:36:06Z</time>
      </trkpt>
      <trkpt lat="43.43445" lon="6.85294">
        <ele>-24.718403</ele>
        <time>2011-02-18 16:36:10Z</time>
      </trkpt>
      <trkpt lat="43.4345" lon="6.85296">
        <ele>-25.718391</ele>
        <time>2011-02-18 16:36:14Z</time>
      </trkpt>
      <trkpt lat="43.43452" lon="6.85297">
        <ele>-25.718384</ele>
        <time>2011-02-18 16:36:18Z</time>
      </trkpt>
      <trkpt lat="43.43461" lon="6.85301">
        <ele>-26.718361</ele>
        <time>2011-02-18 16:36:22Z</time>
      </trkpt>
      <trkpt lat="43.43461" lon="6.85301">
        <ele>-26.718361</ele>
        <time>2011-02-18 16:36:26Z</time>
      </trkpt>
      <trkpt lat="43.43469" lon="6.85305">
        <ele>-27.718338</ele>
        <time>2011-02-18 16:36:30Z</time>
      </trkpt>
      <trkpt lat="43.4347" lon="6.85306">
        <ele>-28.718334</ele>
        <time>2011-02-18 16:36:34Z</time>
      </trkpt>
      <trkpt lat="43.43478" lon="6.85311">
        <ele>-29.718315</ele>
        <time>2011-02-18 16:36:38Z</time>
      </trkpt>
      <trkpt lat="43.43479" lon="6.85311">
        <ele>-30.718315</ele>
        <time>2011-02-18 16:36:42Z</time>
      </trkpt>
      <trkpt lat="43.43485" lon="6.85316">
        <ele>-33.718292</ele>
        <time>2011-02-18 16:36:46Z</time>
      </trkpt>
      <trkpt lat="43.43485" lon="6.85316">
        <ele>-33.718292</ele>
        <time>2011-02-18 16:36:50Z</time>
      </trkpt>
      <trkpt lat="43.43491" lon="6.85321">
        <ele>-37.718269</ele>
        <time>2011-02-18 16:36:54Z</time>
      </trkpt>
      <trkpt lat="43.43491" lon="6.85321">
        <ele>-37.718269</ele>
        <time>2011-02-18 16:36:58Z</time>
      </trkpt>
      <trkpt lat="43.43498" lon="6.85324">
        <ele>-39.718254</ele>
        <time>2011-02-18 16:37:02Z</time>
      </trkpt>
      <trkpt lat="43.43499" lon="6.85325">
        <ele>-39.71825</ele>
        <time>2011-02-18 16:37:06Z</time>
      </trkpt>
      <trkpt lat="43.43507" lon="6.85325">
        <ele>-41.718231</ele>
        <time>2011-02-18 16:37:10Z</time>
      </trkpt>
      <trkpt lat="43.43512" lon="6.85325">
        <ele>-43.718227</ele>
        <time>2011-02-18 16:37:14Z</time>
      </trkpt>
      <trkpt lat="43.43515" lon="6.85325">
        <ele>-43.71822</ele>
        <time>2011-02-18 16:37:18Z</time>
      </trkpt>
      <trkpt lat="43.43515" lon="6.85325">
        <ele>-43.71822</ele>
        <time>2011-02-18 16:37:22Z</time>
      </trkpt>
      <trkpt lat="43.43528" lon="6.85322">
        <ele>-44.718208</ele>
        <time>2011-02-18 16:37:26Z</time>
      </trkpt>
      <trkpt lat="43.43529" lon="6.85322">
        <ele>-44.718208</ele>
        <time>2011-02-18 16:37:30Z</time>
      </trkpt>
      <trkpt lat="43.43535" lon="6.8532">
        <ele>-46.718201</ele>
        <time>2011-02-18 16:37:34Z</time>
      </trkpt>
      <trkpt lat="43.43536" lon="6.8532">
        <ele>-46.718201</ele>
        <time>2011-02-18 16:37:38Z</time>
      </trkpt>
      <trkpt lat="43.43542" lon="6.85319">
        <ele>-47.718197</ele>
        <time>2011-02-18 16:37:42Z</time>
      </trkpt>
      <trkpt lat="43.43542" lon="6.85319">
        <ele>-47.718197</ele>
        <time>2011-02-18 16:37:46Z</time>
      </trkpt>
      <trkpt lat="43.43542" lon="6.85319">
        <ele>-47.718197</ele>
        <time>2011-02-18 16:37:50Z</time>
      </trkpt>
      <trkpt lat="43.43542" lon="6.85319">
        <ele>-47.718197</ele>
        <time>2011-02-18 16:37:54Z</time>
      </trkpt>
      <trkpt lat="43.43542" lon="6.85319">
        <ele>-47.718197</ele>
        <time>2011-02-18 16:37:58Z</time>
      </trkpt>
      <trkpt lat="43.43542" lon="6.85319">
        <ele>-47.718197</ele>
        <time>2011-02-18 16:38:02Z</time>
      </trkpt>
      <trkpt lat="43.4357" lon="6.85317">
        <ele>-48.718155</ele>
        <time>2011-02-18 16:38:06Z</time>
      </trkpt>
      <trkpt lat="43.43578" lon="6.85316">
        <ele>-48.718143</ele>
        <time>2011-02-18 16:38:10Z</time>
      </trkpt>
      <trkpt lat="43.43583" lon="6.85315">
        <ele>-48.71814</ele>
        <time>2011-02-18 16:38:14Z</time>
      </trkpt>
      <trkpt lat="43.4359" lon="6.85315">
        <ele>-47.718128</ele>
        <time>2011-02-18 16:38:18Z</time>
      </trkpt>
      <trkpt lat="43.43595" lon="6.85315">
        <ele>-48.718124</ele>
        <time>2011-02-18 16:38:22Z</time>
      </trkpt>
      <trkpt lat="43.436" lon="6.85313">
        <ele>-48.718113</ele>
        <time>2011-02-18 16:38:26Z</time>
      </trkpt>
      <trkpt lat="43.436" lon="6.85313">
        <ele>-48.718113</ele>
        <time>2011-02-18 16:38:30Z</time>
      </trkpt>
      <trkpt lat="43.43607" lon="6.85314">
        <ele>-48.718102</ele>
        <time>2011-02-18 16:38:34Z</time>
      </trkpt>
      <trkpt lat="43.43613" lon="6.85312">
        <ele>-47.718098</ele>
        <time>2011-02-18 16:38:38Z</time>
      </trkpt>
      <trkpt lat="43.43618" lon="6.85311">
        <ele>-47.718094</ele>
        <time>2011-02-18 16:38:42Z</time>
      </trkpt>
      <trkpt lat="43.43622" lon="6.8531">
        <ele>-47.718086</ele>
        <time>2011-02-18 16:38:46Z</time>
      </trkpt>
      <trkpt lat="43.43627" lon="6.8531">
        <ele>-47.718079</ele>
        <time>2011-02-18 16:38:50Z</time>
      </trkpt>
      <trkpt lat="43.4363" lon="6.85309">
        <ele>-47.718079</ele>
        <time>2011-02-18 16:38:54Z</time>
      </trkpt>
      <trkpt lat="43.4364" lon="6.85308">
        <ele>-47.718063</ele>
        <time>2011-02-18 16:38:58Z</time>
      </trkpt>
      <trkpt lat="43.4364" lon="6.85308">
        <ele>-47.718063</ele>
        <time>2011-02-18 16:39:02Z</time>
      </trkpt>
      <trkpt lat="43.43647" lon="6.85308">
        <ele>-46.718052</ele>
        <time>2011-02-18 16:39:06Z</time>
      </trkpt>
      <trkpt lat="43.43647" lon="6.85308">
        <ele>-46.718052</ele>
        <time>2011-02-18 16:39:10Z</time>
      </trkpt>
      <trkpt lat="43.43655" lon="6.85306">
        <ele>-47.718044</ele>
        <time>2011-02-18 16:39:14Z</time>
      </trkpt>
      <trkpt lat="43.43658" lon="6.85305">
        <ele>-47.718048</ele>
        <time>2011-02-18 16:39:18Z</time>
      </trkpt>
      <trkpt lat="43.43658" lon="6.85305">
        <ele>-47.718048</ele>
        <time>2011-02-18 16:39:22Z</time>
      </trkpt>
      <trkpt lat="43.43664" lon="6.85301">
        <ele>-42.71804</ele>
        <time>2011-02-18 16:39:26Z</time>
      </trkpt>
      <trkpt lat="43.43668" lon="6.85299">
        <ele>-42.71804</ele>
        <time>2011-02-18 16:39:30Z</time>
      </trkpt>
      <trkpt lat="43.43671" lon="6.85297">
        <ele>-41.71804</ele>
        <time>2011-02-18 16:39:34Z</time>
      </trkpt>
      <trkpt lat="43.43677" lon="6.85292">
        <ele>-43.71804</ele>
        <time>2011-02-18 16:39:38Z</time>
      </trkpt>
      <trkpt lat="43.43678" lon="6.8529">
        <ele>-43.71804</ele>
        <time>2011-02-18 16:39:42Z</time>
      </trkpt>
      <trkpt lat="43.43686" lon="6.8528">
        <ele>-44.718056</ele>
        <time>2011-02-18 16:39:46Z</time>
      </trkpt>
      <trkpt lat="43.4369" lon="6.85274">
        <ele>-43.718063</ele>
        <time>2011-02-18 16:39:50Z</time>
      </trkpt>
      <trkpt lat="43.43695" lon="6.85265">
        <ele>-42.718079</ele>
        <time>2011-02-18 16:39:54Z</time>
      </trkpt>
      <trkpt lat="43.43695" lon="6.85265">
        <ele>-42.718079</ele>
        <time>2011-02-18 16:39:58Z</time>
      </trkpt>
      <trkpt lat="43.43702" lon="6.85256">
        <ele>-42.718086</ele>
        <time>2011-02-18 16:40:02Z</time>
      </trkpt>
      <trkpt lat="43.43708" lon="6.85252">
        <ele>-42.718086</ele>
        <time>2011-02-18 16:40:06Z</time>
      </trkpt>
      <trkpt lat="43.4371" lon="6.85251">
        <ele>-42.718082</ele>
        <time>2011-02-18 16:40:10Z</time>
      </trkpt>
      <trkpt lat="43.43716" lon="6.85246">
        <ele>-42.718086</ele>
        <time>2011-02-18 16:40:14Z</time>
      </trkpt>
      <trkpt lat="43.4372" lon="6.85243">
        <ele>-43.71809</ele>
        <time>2011-02-18 16:40:18Z</time>
      </trkpt>
      <trkpt lat="43.43723" lon="6.8524">
        <ele>-45.718086</ele>
        <time>2011-02-18 16:40:22Z</time>
      </trkpt>
      <trkpt lat="43.43725" lon="6.85237">
        <ele>-47.718094</ele>
        <time>2011-02-18 16:40:26Z</time>
      </trkpt>
      <trkpt lat="43.43728" lon="6.85233">
        <ele>-48.718102</ele>
        <time>2011-02-18 16:40:30Z</time>
      </trkpt>
      <trkpt lat="43.43728" lon="6.85232">
        <ele>-47.718102</ele>
        <time>2011-02-18 16:40:34Z</time>
      </trkpt>
      <trkpt lat="43.43732" lon="6.85228">
        <ele>-46.718102</ele>
        <time>2011-02-18 16:40:38Z</time>
      </trkpt>
      <trkpt lat="43.43735" lon="6.85225">
        <ele>-45.718105</ele>
        <time>2011-02-18 16:40:42Z</time>
      </trkpt>
      <trkpt lat="43.43737" lon="6.85222">
        <ele>-44.718109</ele>
        <time>2011-02-18 16:40:46Z</time>
      </trkpt>
      <trkpt lat="43.4374" lon="6.85219">
        <ele>-43.718109</ele>
        <time>2011-02-18 16:40:50Z</time>
      </trkpt>
      <trkpt lat="43.43742" lon="6.85218">
        <ele>-43.718109</ele>
        <time>2011-02-18 16:40:54Z</time>
      </trkpt>
      <trkpt lat="43.43742" lon="6.85218">
        <ele>-43.718109</ele>
        <time>2011-02-18 16:40:58Z</time>
      </trkpt>
      <trkpt lat="43.43742" lon="6.85218">
        <ele>-43.718109</ele>
        <time>2011-02-18 16:41:02Z</time>
      </trkpt>
      <trkpt lat="43.43753" lon="6.85214">
        <ele>-44.718105</ele>
        <time>2011-02-18 16:41:06Z</time>
      </trkpt>
      <trkpt lat="43.43753" lon="6.85214">
        <ele>-44.718105</ele>
        <time>2011-02-18 16:41:10Z</time>
      </trkpt>
      <trkpt lat="43.43763" lon="6.8521">
        <ele>-44.718094</ele>
        <time>2011-02-18 16:41:14Z</time>
      </trkpt>
      <trkpt lat="43.43768" lon="6.85207">
        <ele>-46.718094</ele>
        <time>2011-02-18 16:41:18Z</time>
      </trkpt>
      <trkpt lat="43.43769" lon="6.85206">
        <ele>-46.718094</ele>
        <time>2011-02-18 16:41:22Z</time>
      </trkpt>
      <trkpt lat="43.43769" lon="6.85206">
        <ele>-46.718094</ele>
        <time>2011-02-18 16:41:26Z</time>
      </trkpt>
      <trkpt lat="43.43778" lon="6.85201">
        <ele>-48.718086</ele>
        <time>2011-02-18 16:41:30Z</time>
      </trkpt>
      <trkpt lat="43.43782" lon="6.85199">
        <ele>-48.718086</ele>
        <time>2011-02-18 16:41:34Z</time>
      </trkpt>
      <trkpt lat="43.43782" lon="6.85199">
        <ele>-48.718086</ele>
        <time>2011-02-18 16:41:38Z</time>
      </trkpt>
      <trkpt lat="43.43782" lon="6.85199">
        <ele>-48.718086</ele>
        <time>2011-02-18 16:41:42Z</time>
      </trkpt>
      <trkpt lat="43.43782" lon="6.85199">
        <ele>-48.718086</ele>
        <time>2011-02-18 16:41:46Z</time>
      </trkpt>
      <trkpt lat="43.4379" lon="6.85191">
        <ele>-47.718094</ele>
        <time>2011-02-18 16:41:50Z</time>
      </trkpt>
      <trkpt lat="43.43791" lon="6.85189">
        <ele>-48.718102</ele>
        <time>2011-02-18 16:41:54Z</time>
      </trkpt>
      <trkpt lat="43.43791" lon="6.85189">
        <ele>-48.718102</ele>
        <time>2011-02-18 16:41:58Z</time>
      </trkpt>
      <trkpt lat="43.43796" lon="6.85184">
        <ele>-48.718102</ele>
        <time>2011-02-18 16:42:02Z</time>
      </trkpt>
      <trkpt lat="43.43798" lon="6.85182">
        <ele>-47.718102</ele>
        <time>2011-02-18 16:42:06Z</time>
      </trkpt>
      <trkpt lat="43.43801" lon="6.8518">
        <ele>-45.718102</ele>
        <time>2011-02-18 16:42:10Z</time>
      </trkpt>
      <trkpt lat="43.43801" lon="6.8518">
        <ele>-45.718102</ele>
        <time>2011-02-18 16:42:14Z</time>
      </trkpt>
      <trkpt lat="43.43801" lon="6.8518">
        <ele>-45.718102</ele>
        <time>2011-02-18 16:42:18Z</time>
      </trkpt>
      <trkpt lat="43.43801" lon="6.8518">
        <ele>-45.718102</ele>
        <time>2011-02-18 16:42:22Z</time>
      </trkpt>
      <trkpt lat="43.43816" lon="6.85168">
        <ele>-44.718109</ele>
        <time>2011-02-18 16:42:26Z</time>
      </trkpt>
      <trkpt lat="43.43821" lon="6.85163">
        <ele>-44.718109</ele>
        <time>2011-02-18 16:42:30Z</time>
      </trkpt>
      <trkpt lat="43.43822" lon="6.85162">
        <ele>-44.718109</ele>
        <time>2011-02-18 16:42:34Z</time>
      </trkpt>
      <trkpt lat="43.43829" lon="6.85156">
        <ele>-43.718113</ele>
        <time>2011-02-18 16:42:38Z</time>
      </trkpt>
      <trkpt lat="43.43831" lon="6.85155">
        <ele>-43.718117</ele>
        <time>2011-02-18 16:42:42Z</time>
      </trkpt>
      <trkpt lat="43.43834" lon="6.85153">
        <ele>-42.718113</ele>
        <time>2011-02-18 16:42:46Z</time>
      </trkpt>
      <trkpt lat="43.43837" lon="6.85151">
        <ele>-42.718117</ele>
        <time>2011-02-18 16:42:50Z</time>
      </trkpt>
      <trkpt lat="43.4384" lon="6.85146">
        <ele>-42.718117</ele>
        <time>2011-02-18 16:42:54Z</time>
      </trkpt>
      <trkpt lat="43.43841" lon="6.85144">
        <ele>-42.718117</ele>
        <time>2011-02-18 16:42:58Z</time>
      </trkpt>
      <trkpt lat="43.43845" lon="6.8514">
        <ele>-40.718128</ele>
        <time>2011-02-18 16:43:02Z</time>
      </trkpt>
      <trkpt lat="43.4385" lon="6.85134">
        <ele>-40.718132</ele>
        <time>2011-02-18 16:43:06Z</time>
      </trkpt>
      <trkpt lat="43.43853" lon="6.85128">
        <ele>-40.718136</ele>
        <time>2011-02-18 16:43:10Z</time>
      </trkpt>
      <trkpt lat="43.43858" lon="6.85123">
        <ele>-40.71814</ele>
        <time>2011-02-18 16:43:14Z</time>
      </trkpt>
      <trkpt lat="43.43862" lon="6.85118">
        <ele>-41.718147</ele>
        <time>2011-02-18 16:43:18Z</time>
      </trkpt>
      <trkpt lat="43.43864" lon="6.85117">
        <ele>-41.718147</ele>
        <time>2011-02-18 16:43:22Z</time>
      </trkpt>
      <trkpt lat="43.43864" lon="6.85117">
        <ele>-41.718147</ele>
        <time>2011-02-18 16:43:26Z</time>
      </trkpt>
      <trkpt lat="43.43874" lon="6.8511">
        <ele>-42.718147</ele>
        <time>2011-02-18 16:43:30Z</time>
      </trkpt>
      <trkpt lat="43.43874" lon="6.8511">
        <ele>-42.718147</ele>
        <time>2011-02-18 16:43:34Z</time>
      </trkpt>
      <trkpt lat="43.4388" lon="6.85102">
        <ele>-41.718155</ele>
        <time>2011-02-18 16:43:38Z</time>
      </trkpt>
      <trkpt lat="43.43884" lon="6.85098">
        <ele>-41.718163</ele>
        <time>2011-02-18 16:43:42Z</time>
      </trkpt>
      <trkpt lat="43.43886" lon="6.85096">
        <ele>-41.718159</ele>
        <time>2011-02-18 16:43:46Z</time>
      </trkpt>
      <trkpt lat="43.43894" lon="6.8509">
        <ele>-43.718163</ele>
        <time>2011-02-18 16:43:50Z</time>
      </trkpt>
      <trkpt lat="43.43894" lon="6.8509">
        <ele>-43.718163</ele>
        <time>2011-02-18 16:43:54Z</time>
      </trkpt>
      <trkpt lat="43.43894" lon="6.8509">
        <ele>-43.718163</ele>
        <time>2011-02-18 16:43:58Z</time>
      </trkpt>
      <trkpt lat="43.43894" lon="6.8509">
        <ele>-43.718163</ele>
        <time>2011-02-18 16:44:02Z</time>
      </trkpt>
      <trkpt lat="43.43894" lon="6.8509">
        <ele>-43.718163</ele>
        <time>2011-02-18 16:44:06Z</time>
      </trkpt>
      <trkpt lat="43.43894" lon="6.8509">
        <ele>-43.718163</ele>
        <time>2011-02-18 16:44:10Z</time>
      </trkpt>
      <trkpt lat="43.43894" lon="6.8509">
        <ele>-43.718163</ele>
        <time>2011-02-18 16:44:14Z</time>
      </trkpt>
      <trkpt lat="43.43919" lon="6.85072">
        <ele>-45.718166</ele>
        <time>2011-02-18 16:44:18Z</time>
      </trkpt>
      <trkpt lat="43.43919" lon="6.85072">
        <ele>-45.718166</ele>
        <time>2011-02-18 16:44:22Z</time>
      </trkpt>
      <trkpt lat="43.43919" lon="6.85072">
        <ele>-45.718166</ele>
        <time>2011-02-18 16:44:26Z</time>
      </trkpt>
      <trkpt lat="43.43931" lon="6.85061">
        <ele>-43.71817</ele>
        <time>2011-02-18 16:44:30Z</time>
      </trkpt>
      <trkpt lat="43.43932" lon="6.85059">
        <ele>-43.718174</ele>
        <time>2011-02-18 16:44:34Z</time>
      </trkpt>
      <trkpt lat="43.43935" lon="6.85055">
        <ele>-41.718178</ele>
        <time>2011-02-18 16:44:38Z</time>
      </trkpt>
      <trkpt lat="43.43938" lon="6.8505">
        <ele>-42.718185</ele>
        <time>2011-02-18 16:44:42Z</time>
      </trkpt>
      <trkpt lat="43.43943" lon="6.85042">
        <ele>-45.718193</ele>
        <time>2011-02-18 16:44:46Z</time>
      </trkpt>
      <trkpt lat="43.43945" lon="6.85037">
        <ele>-48.718201</ele>
        <time>2011-02-18 16:44:50Z</time>
      </trkpt>
      <trkpt lat="43.43946" lon="6.85035">
        <ele>-47.718204</ele>
        <time>2011-02-18 16:44:54Z</time>
      </trkpt>
      <trkpt lat="43.43947" lon="6.85034">
        <ele>-46.718208</ele>
        <time>2011-02-18 16:44:58Z</time>
      </trkpt>
      <trkpt lat="43.4395" lon="6.85033">
        <ele>-43.718201</ele>
        <time>2011-02-18 16:45:02Z</time>
      </trkpt>
      <trkpt lat="43.43951" lon="6.85033">
        <ele>-42.718201</ele>
        <time>2011-02-18 16:45:06Z</time>
      </trkpt>
      <trkpt lat="43.43951" lon="6.85033">
        <ele>-42.718201</ele>
        <time>2011-02-18 16:45:10Z</time>
      </trkpt>
      <trkpt lat="43.43951" lon="6.85033">
        <ele>-42.718201</ele>
        <time>2011-02-18 16:45:14Z</time>
      </trkpt>
      <trkpt lat="43.43957" lon="6.85032">
        <ele>-29.718193</ele>
        <time>2011-02-18 16:45:18Z</time>
      </trkpt>
      <trkpt lat="43.43958" lon="6.85032">
        <ele>-24.718193</ele>
        <time>2011-02-18 16:45:22Z</time>
      </trkpt>
    </trkseg>
  </trk>
</gpx>